[[{"header":{"parameterUnit":"m.s-1","parameterCategory":1,"la1":30.6,"la2":28.766,"lo1":-90.7593,"lo2":-88.6598,"dy":0.0162,"dx":0.0183,"nx":116,"ny":114,"refTime":"2024-06-07T06:00:00:Z","depth":0,"parameterNumber":2,"parameterNumberName":"U-component_of_WINDS"},"data":[0.0,0.0,0.0,0.0,0.0,0.0,0.0,0.0,0.0,0.0,0.0,0.0,0.0,0.0,0.0,0.0,0.0,0.0,0.0,0.0,0.0,0.0,0.0,0.0,0.0,0.0,0.0,0.0,0.0,0.0,0.0,0.0,0.0,0.0,0.0,0.0,0.0,0.0,0.0,0.0,0.0,0.0,0.0,0.0,0.0,0.0,0.0,0.0,0.0,0.0,0.0,0.0,0.0,0.0,0.0,0.0,0.0,0.0,0.0,0.0,0.0,0.0,0.0,0.0,0.0,0.0,0.0,0.0,0.0,0.0,0.0,0.0,0.0,0.0,0.0,0.0,0.0,0.0,0.0,0.0,0.0,0.0,0.0,0.0,0.0,0.0,0.0,0.0,0.0,0.0,0.0,0.0,0.0,0.0,0.0,0.0,0.0,0.0,0.0,0.0,0.0,0.0,0.0,0.0,0.0,0.0,0.0,0.0,0.0,0.0,0.0,0.0,0.0,0.0,0.0,0.0,0.0,0.0,0.0,0.0,0.0,0.0,0.0,0.0,0.0,0.0,0.0,0.0,0.0,0.0,0.0,0.0,0.0,0.0,0.0,0.0,0.0,0.0,0.0,0.0,0.0,0.0,0.0,0.0,0.0,0.0,0.0,0.0,0.0,0.0,0.0,0.0,0.0,0.0,0.0,0.0,0.0,0.0,0.0,0.0,0.0,0.0,0.0,0.0,0.0,0.0,0.0,0.0,0.0,0.0,0.0,0.0,0.0,0.0,0.0,0.0,0.0,0.0,0.0,0.0,0.0,0.0,0.0,0.0,0.0,0.0,0.0,0.0,0.0,0.0,0.0,0.0,0.0,0.0,0.0,0.0,0.0,0.0,0.0,0.0,0.0,0.0,0.0,0.0,0.0,0.0,0.0,0.0,0.0,0.0,0.0,0.0,0.0,0.0,0.0,0.0,0.0,0.0,0.0,0.0,0.0,0.0,0.0,0.0,0.0,0.0,0.0,0.0,0.0,0.0,0.0,0.0,0.0,0.0,0.0,0.0,0.0,0.0,0.0,0.0,0.0,0.0,0.0,0.0,0.0,0.0,0.0,0.0,0.0,0.0,0.0,0.0,0.0,0.0,0.0,0.0,0.0,0.0,0.0,0.0,0.0,0.0,0.0,0.0,0.0,0.0,0.0,0.0,0.0,0.0,0.0,0.0,0.0,0.0,0.0,0.0,0.0,0.0,0.0,0.0,0.0,0.0,0.0,0.0,0.0,0.0,0.0,0.0,0.0,0.0,0.0,0.0,0.0,0.0,0.0,0.0,0.0,0.0,0.0,0.0,0.0,0.0,0.0,0.0,0.0,0.0,0.0,0.0,0.0,0.0,0.0,0.0,0.0,0.0,0.0,0.0,0.0,0.0,0.0,0.0,0.0,0.0,0.0,0.0,0.0,0.0,0.0,0.0,0.0,0.0,0.0,0.0,0.0,0.0,0.0,0.0,0.0,0.0,0.0,0.0,0.0,0.0,0.0,0.0,0.0,0.0,0.0,0.0,0.0,0.0,0.0,0.0,0.0,0.0,0.0,0.0,0.0,0.0,0.0,0.0,0.0,0.0,0.0,0.0,0.0,0.0,0.0,0.0,0.0,0.0,0.0,0.0,0.0,0.0,0.0,0.0,0.0,0.0,0.0,0.0,0.0,0.0,0.0,0.0,0.0,0.0,0.0,0.0,0.0,0.0,0.0,0.0,0.0,0.0,0.0,0.0,0.0,0.0,0.0,0.0,0.0,0.0,0.0,0.0,0.0,0.0,0.0,0.0,0.0,0.0,0.0,0.0,0.0,0.0,0.0,0.0,0.0,0.0,0.0,0.0,0.0,0.0,0.0,0.0,0.0,0.0,0.0,0.0,0.0,0.0,0.0,0.0,0.0,0.0,0.0,0.0,0.0,0.0,0.0,0.0,0.0,0.0,0.0,0.0,0.0,0.0,0.0,0.0,0.0,0.0,0.0,0.0,0.0,0.0,0.0,0.0,0.0,0.0,0.0,0.0,0.0,0.0,0.0,0.0,0.0,0.0,0.0,0.0,0.0,0.0,0.0,0.0,0.0,0.0,0.0,0.0,0.0,0.0,0.0,0.0,0.0,0.0,0.0,0.0,0.0,0.0,0.0,0.0,0.0,0.0,0.0,0.0,0.0,0.0,0.0,0.0,0.0,0.0,0.0,0.0,0.0,0.0,0.0,0.0,0.0,0.0,0.0,0.0,0.0,0.0,0.0,0.0,0.0,0.0,0.0,0.0,0.0,0.0,0.0,0.0,0.0,0.0,0.0,0.0,0.0,0.0,0.0,0.0,0.0,0.0,0.0,0.0,0.0,0.0,0.0,0.0,0.0,0.0,0.0,0.0,0.0,0.0,0.0,0.0,0.0,0.0,0.0,0.0,0.0,0.0,0.0,0.0,0.0,0.0,0.0,0.0,0.0,0.0,0.0,0.0,0.0,0.0,0.0,0.0,0.0,0.0,0.0,0.0,0.0,0.0,0.0,0.0,0.0,0.0,0.0,0.0,0.0,0.0,0.0,0.0,0.0,0.0,0.0,0.0,0.0,0.0,0.0,0.0,0.0,0.0,0.0,0.0,0.0,0.0,0.0,0.0,0.0,0.0,0.0,0.0,0.0,0.0,0.0,0.0,0.0,0.0,0.0,0.0,0.0,0.0,0.0,0.0,0.0,0.0,0.0,0.0,0.0,0.0,0.0,0.0,0.0,0.0,0.0,0.0,0.0,0.0,0.0,0.0,0.0,0.0,0.0,0.0,0.0,0.0,0.0,0.0,0.0,0.0,0.0,0.0,0.0,0.0,0.0,0.0,0.0,0.0,0.0,0.0,0.0,0.0,0.0,0.0,0.0,0.0,0.0,0.0,0.0,0.0,0.0,0.0,0.0,0.0,0.0,0.0,0.0,0.0,0.0,0.0,0.0,0.0,0.0,0.0,0.0,0.0,0.0,0.0,0.0,0.0,0.0,0.0,0.0,0.0,0.0,0.0,0.0,0.0,0.0,0.0,0.0,0.0,0.0,0.0,0.0,0.0,0.0,0.0,0.0,0.0,0.0,0.0,0.0,0.0,0.0,0.0,0.0,0.0,0.0,0.0,0.0,0.0,0.0,0.0,0.0,0.0,0.0,0.0,0.0,0.0,0.0,0.0,0.0,0.0,0.0,0.0,0.0,0.0,0.0,0.0,0.0,0.0,0.0,0.0,0.0,0.0,0.0,0.0,0.0,0.0,0.0,0.0,0.0,0.0,0.0,0.0,0.0,0.0,0.0,0.0,0.0,0.0,0.0,0.0,0.0,0.0,0.0,0.0,0.0,0.0,0.0,0.0,0.0,0.0,0.0,0.0,0.0,0.0,0.0,0.0,0.0,0.0,0.0,0.0,0.0,0.0,0.0,0.0,0.0,0.0,0.0,0.0,0.0,0.0,0.0,0.0,0.0,0.0,0.0,0.0,0.0,0.0,0.0,0.0,0.0,0.0,0.0,0.0,0.0,0.0,0.0,0.0,0.0,0.0,0.0,0.0,0.0,0.0,0.0,0.0,0.0,0.0,0.0,0.0,0.0,0.0,0.0,0.0,0.0,0.0,0.0,0.0,0.0,0.0,0.0,0.0,0.0,0.0,0.0,0.0,0.0,0.0,0.0,0.0,0.0,0.0,0.0,0.0,0.0,0.0,0.0,0.0,0.0,0.0,0.0,0.0,0.0,0.0,0.0,0.0,0.0,0.0,0.0,0.0,0.0,0.0,0.0,0.0,0.0,0.0,0.0,0.0,0.0,0.0,0.0,0.0,0.0,0.0,0.0,0.0,0.0,0.0,0.0,0.0,0.0,0.0,0.0,0.0,0.0,0.0,0.0,0.0,0.0,0.0,0.0,0.0,0.0,0.0,0.0,0.0,0.0,0.0,0.0,0.0,0.0,0.0,0.0,0.0,0.0,0.0,0.0,0.0,0.0,0.0,0.0,0.0,0.0,0.0,0.0,0.0,0.0,0.0,0.0,0.0,0.0,0.0,0.0,0.0,0.0,0.0,0.0,0.0,0.0,0.0,0.0,0.0,0.0,0.0,0.0,0.0,0.0,0.0,0.0,0.0,0.0,0.0,0.0,0.0,0.0,0.0,0.0,0.0,0.0,0.0,0.0,0.0,0.0,0.0,0.0,0.0,0.0,0.0,0.0,0.0,0.0,0.0,0.0,0.0,0.0,0.0,0.0,0.0,0.0,0.0,0.0,0.0,0.0,0.0,0.0,0.0,0.0,0.0,0.0,0.0,0.0,0.0,0.0,0.0,0.0,0.0,0.0,0.0,0.0,0.0,0.0,0.0,0.0,0.0,0.0,0.0,0.0,0.0,0.0,0.0,0.0,0.0,0.0,0.0,0.0,0.0,0.0,0.0,0.0,0.0,0.0,0.0,0.0,0.0,0.0,0.0,0.0,0.0,0.0,0.0,0.0,0.0,0.0,0.0,0.0,0.0,0.0,0.0,0.0,0.0,0.0,0.0,0.0,0.0,0.0,0.0,0.0,0.0,0.0,0.0,0.0,0.0,0.0,0.0,0.0,0.0,0.0,0.0,0.0,0.0,0.0,0.0,0.0,0.0,0.0,0.0,0.0,0.0,0.0,0.0,0.0,0.0,0.0,0.0,0.0,0.0,0.0,0.0,0.0,0.0,0.0,0.0,0.0,0.0,0.0,0.0,0.0,0.0,0.0,0.0,0.0,0.0,0.0,0.0,0.0,0.0,0.0,0.0,0.0,0.0,0.0,0.0,0.0,0.0,0.0,0.0,0.0,0.0,0.0,0.0,0.0,0.0,0.0,0.0,0.0,0.0,0.0,0.0,0.0,0.0,0.0,0.0,0.0,0.0,0.0,0.0,0.0,0.0,0.0,0.0,0.0,0.0,0.0,0.0,0.0,0.0,0.0,0.0,0.0,0.0,0.0,0.0,0.0,0.0,0.0,0.0,0.0,0.0,0.0,0.0,0.0,0.0,0.0,0.0,0.0,0.0,0.0,0.0,0.0,0.0,0.0,0.0,0.0,0.0,0.0,0.0,0.0,0.0,0.0,0.0,0.0,0.0,0.0,0.0,0.0,0.0,0.0,0.0,0.0,0.0,0.0,0.0,0.0,0.0,0.0,0.0,0.0,0.0,0.0,0.0,0.0,0.0,0.0,0.0,0.0,0.0,0.0,0.0,0.0,0.0,0.0,0.0,0.0,0.0,0.0,0.0,0.0,0.0,0.0,0.0,0.0,0.0,0.0,0.0,0.0,0.0,0.0,0.0,0.0,0.0,0.0,0.0,0.0,0.0,0.0,0.0,0.0,0.0,0.0,0.0,0.0,0.0,0.0,0.0,0.0,0.0,0.0,0.0,0.0,0.0,0.0,0.0,0.0,0.0,0.0,0.0,0.0,0.0,0.0,0.0,0.0,0.0,0.0,0.0,0.0,0.0,0.0,0.0,0.0,0.0,0.0,0.0,0.0,0.0,0.0,0.0,0.0,0.0,0.0,0.0,0.0,0.0,0.0,0.0,0.0,0.0,0.0,0.0,0.0,0.0,0.0,0.0,0.0,0.0,0.0,0.0,0.0,0.0,0.0,0.0,0.0,0.0,0.0,0.0,0.0,0.0,0.0,0.0,0.0,0.0,0.0,0.0,0.0,0.0,0.0,0.0,0.0,0.0,0.0,0.0,0.0,0.0,0.0,0.0,0.0,0.0,0.0,0.0,0.0,0.0,0.0,0.0,0.0,0.0,0.0,0.0,0.0,0.0,0.0,0.0,0.0,0.0,0.0,0.0,0.0,0.0,0.0,0.0,0.0,0.0,0.0,0.0,0.0,0.0,0.0,0.0,0.0,0.0,0.0,0.0,0.0,0.0,0.0,0.0,0.0,0.0,0.0,0.0,0.0,0.0,0.0,0.0,0.0,0.0,0.0,0.0,0.0,0.0,0.0,0.0,0.0,0.0,0.0,0.0,0.0,0.0,0.0,0.0,0.0,0.0,0.0,0.0,0.0,0.0,0.0,0.0,0.0,0.0,0.0,0.0,0.0,0.0,0.0,0.0,0.0,0.0,0.0,0.0,0.1051,0.2854,0.0,0.0,0.0,0.0,0.0,0.0,0.0,0.0,0.0,0.0,0.0,0.0,0.0,0.0,0.0,0.0,0.0,0.0,0.0,0.0,0.0,0.0,0.0,1.4126,1.4503,1.3884,1.3836,1.3978,1.4236,0.0,0.0,0.0,0.0,0.0,1.2602,1.2004,1.1176,1.0127,0.9301,0.8183,0.6854,0.7956,0.9291,1.0801,0.0,0.0,0.0,0.0,0.0,0.0,0.0,0.0,0.0,0.0,0.0,0.0,0.0,0.0,0.0,0.0,0.0,0.0,0.0,0.0,0.0,0.0,0.0,0.0,0.0,0.0,0.0,0.0,0.0,0.0,0.0,0.0,0.0,0.0,0.0,0.0,0.0,0.0,0.0,0.0,0.0,0.0,0.0,0.0,0.0,0.0,0.0,0.0,0.0,0.0,0.0,0.0,0.0,0.0,0.0,0.0,0.0,0.0,0.0,0.0,0.0,0.0,0.0,0.0,0.0,0.0,0.0,0.0,0.0,0.0,-0.4717,-0.2502,0.0,0.0,0.0,0.0,0.0,0.0,0.0,0.0,0.0,0.0,0.0,0.0,0.0,0.0,0.0,0.0,0.0,0.0,0.0,0.0,0.0,1.2058,1.197,1.268,1.2992,1.253,1.2735,1.3064,1.3569,1.3946,0.0,0.0,0.0,1.3365,1.252,1.1642,1.0385,0.8802,0.718,0.5376,0.3517,0.3489,0.4846,0.732,0.8657,0.0,0.0,0.0,0.0,0.0,0.0,0.0,0.0,0.0,0.0,0.0,0.0,0.0,0.0,0.0,0.0,0.0,0.0,0.0,0.0,0.0,0.0,0.0,0.0,0.0,0.0,0.0,0.0,0.0,0.0,0.0,0.0,0.0,0.0,0.0,0.0,0.0,0.0,0.0,0.0,0.0,0.0,0.0,0.0,0.0,0.0,0.0,0.0,0.0,0.0,0.0,0.0,0.0,0.0,0.0,0.0,0.0,0.0,0.0,0.0,0.0,0.0,0.0,-0.9955,-1.0238,-1.0651,-1.1739,-1.2829,-1.3689,-1.0451,-0.8177,-0.6677,-0.5943,0.0,0.0,0.0,0.0,0.0,0.0,0.0,0.0,0.0,0.0,0.0,0.0,0.0,0.0,0.0,0.0,0.0,0.0,0.0,1.0457,1.056,1.063,1.0776,1.0971,1.2011,1.2714,1.2918,1.447,0.0,0.0,1.3615,1.2738,1.2178,1.0299,0.8528,0.6887,0.3212,0.0785,-0.0477,-0.1649,-0.2283,-0.2083,0.4285,0.7749,0.8844,0.0,0.0,0.0,0.0,0.0,0.0,0.0,0.0,0.0,0.0,0.0,0.0,0.0,0.0,0.0,0.0,0.0,0.0,0.0,0.0,0.0,0.0,0.0,0.0,0.0,0.0,0.0,0.0,0.0,0.0,0.0,0.0,0.0,0.0,0.0,0.0,0.0,0.0,0.0,0.0,0.0,-0.1091,-0.2027,0.0,0.0,0.0,0.0,0.0,0.0,0.0,0.0,0.0,0.0,0.0,0.0,0.0,-1.0376,-1.252,-1.2727,-1.3586,-1.5191,-1.559,-1.626,-1.7095,-1.7961,-1.8527,-1.884,-1.8614,0.0,-1.3131,-1.1362,0.0,0.0,0.0,0.0,0.0,0.0,0.0,0.0,0.0,0.0,0.0,0.0,0.0,0.0,0.0,0.0,0.0,0.0,0.0,0.0,0.0,0.6651,0.6918,0.7773,0.8889,1.0262,1.1978,1.3057,1.3753,1.4136,1.2557,1.1431,1.0933,0.8608,0.5871,0.2841,-0.025,-0.2451,-0.3792,-0.4644,-0.5543,-0.6281,-0.2587,-0.0239,0.1094,0.3827,0.0,0.0,0.0,0.0,0.0,0.0,0.0,0.0,0.0,0.0,0.0,0.0,0.0,0.0,0.0,0.0,0.0,0.0,0.0,0.0,0.0,0.0,0.0,0.0,0.0,0.0,0.0,0.0,0.0,0.0,0.0,0.0,0.0,0.0,0.0,0.0,0.0,0.0,0.0,-0.3014,-0.613,-0.6995,-0.6491,-0.5497,0.0,0.0,0.0,0.0,0.0,0.0,0.0,0.0,0.0,-1.1802,-1.2869,-1.4126,-1.5675,-1.6168,-1.6795,-1.7552,-1.8145,-1.8681,-1.9154,-1.9631,-1.995,-2.0156,-2.0324,-1.9473,-1.783,-1.6522,-1.4738,-1.2568,0.0,0.0,0.0,0.0,-0.7811,-0.8493,0.0,0.0,0.0,0.0,0.0,0.0,0.0,0.0,0.0,0.0,0.0,0.0,0.297,0.2415,0.2592,0.3823,0.5266,0.7237,0.9785,1.1168,1.2097,1.2529,1.1045,0.9872,0.9115,0.633,0.3219,-0.0219,-0.2745,-0.4773,-0.6297,-0.7296,-0.8504,-0.9797,-0.9544,-0.7955,-0.5261,-0.1768,0.0363,0.0,0.0,0.0,0.0,0.0,0.0,0.0,0.0,0.0,0.0,0.0,0.0,0.0,0.0,0.0,0.0,0.0,0.0,0.0,0.0,0.0,0.0,0.0,0.0,0.0,0.0,0.0,0.0,0.0,0.0,0.0,0.0,0.0,0.0,0.0,0.0,0.0,0.0,-0.7656,-1.0386,-1.1549,-1.0855,-0.9804,0.0,0.0,0.0,0.0,0.0,0.0,-1.1217,-1.2295,-1.3718,-1.5514,-1.6188,-1.6869,-1.7516,-1.8235,-1.8623,-1.8715,-1.9301,-1.9669,-1.9802,-2.0,-2.0192,-2.037,-2.0441,-2.0508,-2.05,-1.9914,-1.8743,-1.7144,-1.565,-1.3839,-1.2255,-1.3553,-1.419,-1.4788,0.0,0.0,0.0,0.0,0.0,0.0,0.0,0.0,0.0,0.0,0.0,0.1391,-0.018,-0.161,-0.197,-0.0752,0.1777,0.3974,0.5584,0.9229,1.0789,0.9552,0.9075,0.8146,0.6717,0.3285,0.0735,-0.0841,-0.3828,-0.6074,-0.7575,-1.0211,-1.2421,-1.4252,-1.5664,-1.278,-0.674,-0.5819,-0.4669,-0.3134,0.0,0.0,0.0,0.0,0.0,0.0,0.0,0.0,0.0,0.0,0.0,0.0,0.0,0.0,0.0,0.0,0.0,0.0,0.0,0.0,0.0,0.0,0.0,0.0,0.0,0.0,0.0,0.0,0.0,0.0,0.0,0.0,0.0,0.0,0.0,0.0,0.0,0.0,0.0,-1.5524,-1.4119,0.0,0.0,0.0,0.0,-1.1975,-1.3963,-1.5579,-1.656,-1.7499,-1.8064,-1.8215,-1.825,-1.8241,-1.8146,-1.845,-1.8734,-1.8984,-1.9398,-1.9669,-1.9802,-2.0,-2.0178,-2.0299,-2.039,-2.0414,-2.0418,-2.0433,-2.0382,-2.0252,-1.9962,-1.9774,-1.9651,-1.9754,-1.9829,-1.9934,0.0,0.0,0.0,0.0,0.0,0.7044,0.6247,0.4701,0.3095,0.1731,0.0,-0.1866,-0.3936,-0.4702,-0.4679,-0.3796,-0.1206,0.1417,0.3833,0.6333,0.7782,0.7963,0.6921,0.5516,0.3665,0.162,-0.0277,-0.2039,-0.4568,-0.668,-0.8484,-1.1058,-1.3126,-1.4692,-1.6142,-1.5343,-1.2749,-1.0677,-0.8836,-0.704,-0.3643,0.0033,0.0,0.0,0.0,0.0,0.0,0.0,0.0,0.0,0.0,0.0,0.0,0.0,0.0,0.0,0.0,0.0,0.0,0.0,0.0,0.0,0.0,0.0,0.0,0.0,0.0,0.0,0.0,0.0,0.0,0.0,0.0,0.0,0.0,0.0,0.0,0.0,0.0,-1.7269,-1.7106,0.0,-1.5929,-1.5646,-1.5461,-1.5425,-1.636,-1.7181,-1.7741,-1.81,-1.8503,-1.9038,-1.9049,-1.9142,-1.9375,-1.9618,-1.9907,-2.0214,-2.0011,-2.0105,-2.0437,-1.9981,-1.9926,-2.0178,-2.0192,-2.0277,-2.0391,-2.0429,-2.047,-2.0508,-2.0467,-2.0437,-2.0387,-2.0387,-2.0385,-2.0359,0.0,0.0,0.0,0.0,0.6758,0.578,0.4771,0.3334,0.1744,-0.0088,-0.169,-0.352,-0.5593,-0.6341,-0.6399,-0.5597,-0.3219,-0.0651,0.1941,0.4252,0.5659,0.6054,0.4824,0.3556,0.2374,0.1144,-0.0139,-0.1504,-0.3766,-0.5764,-0.7534,-1.0261,-1.237,-1.3953,-1.5414,-1.5772,-1.5171,-1.332,-1.2097,-1.1102,-0.7889,-0.4595,-0.1358,0.0,0.0,0.0,0.0,0.0,0.0,0.0,0.0,0.0,0.0,0.0,0.0,0.0,0.0,0.0,0.0,0.0,0.0,0.0,0.0,0.0,0.0,0.0,0.0,0.0,0.0,0.0,0.0,0.0,0.0,0.0,0.0,0.0,0.0,-1.4752,-1.7151,-1.8406,-1.8592,-1.8545,-1.8167,-1.808,-1.8,-1.8003,-1.8358,-1.8675,-1.8902,-1.9045,-1.926,-1.9552,-1.9581,-1.9579,-1.9605,-1.9841,-2.0065,-2.0292,-1.9896,-2.0063,-2.0636,-1.9819,-1.9751,-2.0231,-2.006,-2.01,-2.0274,-2.0283,-2.0346,-2.0438,-2.0504,-2.0527,-2.0505,-2.0494,-2.0465,-2.0404,0.0,0.0,0.0,0.6868,0.554,0.4212,0.3595,0.2534,0.1167,-0.067,-0.193,-0.3333,-0.5082,-0.654,-0.7004,-0.6144,-0.4209,-0.2186,-0.0173,0.3105,0.4617,0.3791,0.2796,0.2497,0.3063,0.1831,0.1063,0.093,-0.1391,-0.3232,-0.4649,-0.7753,-1.0179,-1.202,-1.3506,-1.375,-1.3035,-1.3217,-1.3991,-1.4839,-1.2207,-1.0767,-0.9513,0.0,0.0,0.0,0.0,0.0,0.0,0.0,0.0,0.0,0.0,0.0,0.0,0.0,0.0,0.0,0.0,0.0,0.0,0.0,0.0,0.0,0.0,0.0,0.0,0.0,0.0,0.0,0.0,0.0,0.0,0.0,0.0,0.0,-1.3961,-1.5661,-1.736,-1.8961,-1.8623,-1.8469,-1.9096,-1.8887,-1.8952,-1.9594,-2.0019,-2.023,-2.023,-2.0649,-2.0591,-1.9908,-1.9876,-1.9511,-1.8829,-1.9034,-1.9153,-1.9165,-1.9096,-1.952,-2.0377,-1.9595,-1.9703,-2.0467,-2.0026,-1.9915,-2.0031,-2.0082,-2.0183,-2.0294,-2.0375,-2.0445,-2.0492,-2.0485,-2.0488,-2.0402,0.0,0.0,0.6093,0.5813,0.4995,0.4079,0.3196,0.2439,0.1313,-0.0463,-0.1351,-0.2527,-0.438,-0.4674,-0.476,-0.481,-0.2835,-0.1307,-0.0685,0.1467,0.2843,0.3122,0.2948,0.2906,0.2941,0.2611,0.2123,0.1542,0.0086,-0.0935,-0.1575,-0.3756,-0.4578,-0.4251,-0.4391,-0.3681,-0.2574,-0.5175,-0.6047,-0.6113,-1.0618,-1.0517,-0.7605,0.0,0.0,0.0,0.0,0.0,0.0,0.0,0.0,0.0,0.0,0.0,0.0,0.0,0.0,0.0,0.0,0.0,0.0,0.0,0.0,0.0,0.0,0.0,0.0,0.0,0.0,0.0,0.0,0.0,0.0,0.0,-1.0306,-1.234,-1.4181,-1.6278,-1.7824,-1.8366,-1.855,-1.8579,-1.8427,-1.8304,-1.8351,-1.8521,-1.8622,-1.8684,-1.8684,-1.8835,-1.8957,-1.9093,-1.9078,-1.9151,-1.9235,-1.9682,-2.0004,-2.0251,-2.0333,-2.045,-2.0602,-2.0142,-2.0097,-2.043,-2.0554,-2.0743,-2.0917,-2.0605,-2.0364,-2.0251,-2.0344,-2.0399,-2.0429,-2.0321,-2.0019,-1.9576,0.0,0.6375,0.6093,0.5744,0.5247,0.4582,0.3438,0.3053,0.2256,0.0434,-0.0144,-0.0943,-0.2248,-0.2246,-0.2256,-0.2483,-0.1044,0.0,0.028,0.1574,0.2693,0.3556,0.3628,0.3685,0.3739,0.4058,0.4018,0.3583,0.2668,0.2213,0.2102,0.0306,-0.0198,0.0392,0.0427,0.1063,0.1979,0.0163,-0.0394,-0.0522,-0.5718,-0.8547,-0.967,-0.9659,-0.905,-0.8004,-0.6335,-0.526,-0.4377,-0.2497,0.0,0.0,0.0,0.0,0.0,0.0,0.0,0.0,0.0,0.0,0.0,0.0,0.0,0.0,0.0,0.0,0.0,0.0,0.0,0.0,0.0,0.0,0.0,0.0,-1.0394,-1.1773,-1.3121,-1.5417,-1.7044,-1.7329,-1.7798,-1.7917,-1.741,-1.7558,-1.7612,-1.737,-1.737,-1.737,-1.737,-1.737,-1.7464,-1.7743,-1.7743,-1.786,-1.8089,-1.8394,-1.865,-1.8855,-1.8791,-1.8886,-1.9103,-1.8818,-1.892,-1.9332,-1.9792,-2.0105,-2.0315,-1.9974,-1.9795,-1.972,0.0,0.0,0.0,0.0,-1.9375,-1.8886,0.0,0.6469,0.631,0.631,0.5996,0.5394,0.4247,0.4296,0.3797,0.2017,0.1651,0.1326,0.0706,0.0498,0.0354,0.031,0.0966,0.1652,0.0,0.2861,0.3666,0.459,0.47,0.4885,0.5183,0.5931,0.6307,0.6368,0.5837,0.5693,0.592,0.4444,0.376,0.3752,0.3568,0.3767,0.4256,0.4876,0.479,0.3998,0.1174,-0.5085,-1.2586,-1.1118,-1.1968,-1.3537,-1.0783,-0.9214,-0.8292,-0.723,0.0,0.0,0.0,0.0,0.0,0.0,0.0,0.0,0.0,0.0,0.0,0.0,0.0,0.0,0.0,0.0,0.0,0.0,0.0,0.0,0.0,0.0,0.0,0.0,-0.9805,-1.0814,-1.1504,-1.3528,-1.5192,-1.5844,-1.638,-1.6477,-1.5973,-1.638,-1.6477,-1.593,-1.5874,-1.5874,-1.5874,-1.5874,0.0,0.0,0.0,-1.5862,-1.5764,-1.5838,-1.5825,-1.5715,-1.5555,-1.5771,-1.6327,-1.6217,-1.6539,-1.7274,-1.7992,-1.8387,-1.8486,-1.8451,-1.8365,-1.8312,-1.8724,-1.9051,-1.9257,-1.8892,-1.8494,-1.8128,0.0,0.7127,0.6942,0.6942,0.6451,0.6057,0.5942,0.5937,0.5654,0.4778,0.4453,0.4059,0.3333,0.2979,0.2646,0.2213,0.2855,0.3437,0.0,0.0,0.4509,0.5257,0.639,0.6985,0.6907,0.7765,0.8119,0.7954,0.7897,0.8111,0.8677,0.9013,0.9774,1.0903,1.2613,1.3885,1.4795,1.547,1.5209,1.3809,0.7251,0.027,-0.6487,-0.8885,-1.1779,-1.4501,-1.4261,-1.4181,-1.3942,-1.217,-1.0038,-0.7749,-0.56,-0.3537,0.0,0.0,0.0,0.0,0.0,0.0,0.0,0.0,0.0,0.0,0.0,0.0,0.0,0.0,0.0,0.0,0.0,0.0,0.0,-0.9332,-0.9799,-1.0202,-1.0906,-1.1382,-1.2125,-1.3252,-1.3476,-1.3522,-1.3382,-1.3476,-1.3522,-1.3382,-1.3393,-1.3393,-1.3393,-1.3393,-1.3393,-1.3393,-1.3393,-1.3107,-1.251,-1.2945,-1.2863,-1.2266,-1.2987,0.0,-1.3057,-1.331,-1.3523,-1.3769,-1.5312,-1.5731,-1.5411,-1.5924,-1.5174,-1.3983,-1.7004,-1.8164,-1.8052,-1.7456,-1.7082,-1.6782,0.797,0.7726,0.7487,0.7487,0.7401,0.7183,0.6906,0.6976,0.6938,0.6587,0.6385,0.6095,0.5726,0.5474,0.5125,0.4503,0.449,0.0,0.0,0.5468,0.5788,0.6535,0.789,0.8557,0.8362,0.9455,0.9908,0.9647,0.9993,1.0577,1.1369,1.2065,1.3064,1.4363,1.5876,1.6823,1.7286,1.7932,1.7391,1.5678,1.0709,0.5486,0.0087,-0.5516,-0.9686,-1.2675,-1.3652,-1.4322,-1.462,-1.3718,-1.2187,-1.0364,-0.8849,-0.688,-0.4855,0.0,0.0,0.0,0.0,0.0,0.0,0.0,0.0,0.0,0.0,0.0,0.0,0.0,0.0,-0.6396,-0.7503,0.0,-0.7391,-0.8072,-0.8178,-0.833,-0.8626,-0.8678,-0.9438,-1.1495,-1.2018,-1.2067,-1.1791,-1.1697,-1.1572,-1.1195,-1.0872,-1.0714,-1.0714,-1.0714,-1.0714,-1.0714,-1.0308,-0.9919,-0.9545,-0.909,-0.8658,-0.8297,-0.8407,-0.8359,-0.8178,-0.8659,-0.8892,-0.8979,-1.0821,-1.1441,-1.1271,-1.1912,-1.1406,-1.0349,-1.221,-1.383,-1.5038,-1.4688,-1.4385,-1.4134,0.8833,0.8644,0.8421,0.8283,0.8488,0.8494,0.8069,0.8151,0.8277,0.8239,0.8095,0.7916,0.7829,0.7624,0.7253,0.6466,0.0,0.0,0.0,0.7036,0.7388,0.818,0.957,1.02,0.9979,1.1192,1.1733,1.1531,1.2109,1.2826,1.3639,1.4343,1.5209,1.6178,1.6924,1.7227,1.7261,1.7583,1.6753,1.5075,1.3037,1.0016,0.6052,-0.048,-0.5584,-0.9393,-1.0573,-1.1607,-1.2424,-1.2673,-1.2084,-1.1148,-1.0508,-0.8989,-0.7136,-0.5578,-0.3508,0.0,0.0,0.0,0.0,0.0,0.0,0.0,0.0,-0.6396,-0.6966,-0.7396,-0.702,-0.6804,-0.7396,-0.702,-0.6529,-0.6411,-0.6411,-0.6357,-0.619,-0.6185,-0.6967,-0.9071,-1.0035,-1.0303,-0.9841,-0.957,-0.9227,-0.8703,-0.8176,-0.7862,-0.7862,-0.7739,-0.7675,-0.7675,-0.6896,-0.6398,-0.6235,-0.4955,-0.4194,-0.4036,-0.3324,-0.2947,-0.2997,-0.3482,-0.367,-0.377,-0.5506,-0.6347,-0.6601,-0.6988,-0.6834,-0.6278,-0.6278,-0.7756,-1.004,-1.0945,-1.1171,-1.0928,0.0,1.0479,1.0303,0.9709,0.9636,0.9805,1.0351,1.0434,1.045,1.045,1.0245,0.9842,0.9215,0.8879,0.8276,0.7271,0.0,0.0,0.8351,0.8469,0.9037,1.0391,1.1729,1.2435,1.2397,1.3299,1.3783,1.3727,1.4297,1.46,1.4765,1.6123,1.6996,1.7426,1.7884,1.835,1.88,1.8087,1.7186,1.6158,1.5115,1.2878,0.9916,0.7677,0.1886,-0.5078,-0.527,-0.6318,-0.7766,-0.8451,-0.863,-0.8654,-0.8867,-0.8496,-0.7772,-0.6565,-0.5187,-0.392,-0.3329,-0.3432,-0.4024,-0.4892,-0.6323,-0.7444,0.0,-0.7503,-0.7402,-0.6858,-0.6642,-0.6642,-0.6696,-0.6642,-0.6411,-0.5725,-0.5612,-0.5387,-0.4725,-0.4667,-0.4544,-0.418,-0.5338,-0.6182,-0.6084,-0.552,-0.5081,-0.4977,-0.4927,-0.4873,-0.4873,-0.4247,-0.3911,-0.3911,-0.3197,-0.2493,-0.1848,-0.1027,-0.027,0.038,0.1135,0.151,0.1456,0.14,0.1398,0.1342,0.0154,-0.0883,-0.1728,-0.1218,-0.0823,-0.0526,-0.0526,-0.0742,-0.1589,-0.6104,-0.7757,-0.7676,0.0,1.0813,1.0813,1.0965,1.0669,1.0466,1.0762,1.0813,1.0965,1.1316,1.093,1.0549,1.025,0.9392,0.8818,0.8783,0.8152,0.0,0.982,0.99,1.0554,1.1886,1.288,1.3558,1.3878,1.462,1.4983,1.4959,1.5551,1.5969,1.6311,1.7256,1.7728,1.7817,1.8272,1.8403,1.8253,1.7823,1.713,1.6275,1.5502,1.4026,1.2125,1.1193,0.8002,0.3633,0.094,-0.0785,0.0,-0.2991,-0.3678,-0.4356,-0.5556,-0.5843,-0.5617,-0.5496,-0.4983,-0.432,-0.4119,-0.4831,-0.5751,-0.6072,-0.695,-0.7723,-0.7723,-0.7343,-0.6848,-0.6122,-0.5629,-0.5198,-0.4751,-0.432,-0.3935,-0.3655,-0.3202,-0.2811,-0.2536,-0.2091,-0.1701,-0.1425,-0.1055,-0.1501,-0.3384,-0.2893,-0.2458,-0.2458,-0.2083,-0.1812,-0.1812,-0.1146,-0.0761,-0.0761,0.0379,0.1351,0.2048,0.3184,0.4154,0.4847,0.5602,0.5981,0.5981,0.5981,0.5708,0.5259,0.4871,0.4152,0.3398,0.3691,0.4104,0.4427,0.4069,0.3993,0.351,-0.124,-0.302,-0.2986,0.0,1.1384,1.1534,1.203,1.1683,1.1384,1.1384,1.1384,1.1525,1.203,1.1525,1.0914,1.0568,0.9666,0.9256,0.9762,0.9474,0.9769,1.1015,1.1273,1.1849,1.3024,1.3841,1.4503,1.4926,1.5664,1.6076,1.6089,1.6823,1.738,1.7745,1.8289,1.8483,1.8397,1.8817,1.8717,1.8253,1.7948,1.7442,1.676,1.6232,1.5273,1.4125,1.3638,1.2669,1.0927,0.658,0.4451,0.3469,0.2158,0.1163,0.0092,-0.1657,-0.2621,-0.3178,-0.359,-0.3887,-0.4161,-0.4457,-0.5386,-0.6312,-0.6312,-0.6681,-0.7052,-0.6838,-0.6239,-0.5412,-0.4457,-0.386,-0.3262,-0.254,-0.194,-0.1501,-0.1335,-0.0833,-0.0332,0.0055,0.0552,0.1106,0.1615,0.2705,0.2705,0.0995,0.0663,0.0495,0.0436,0.0931,0.121,0.121,0.2073,0.2609,0.2609,0.4012,0.5026,0.5487,0.676,0.7635,0.8132,0.905,0.9541,0.9541,0.9723,0.9475,0.8938,0.8895,0.8584,0.8088,0.8136,0.8379,0.8688,0.8252,0.8041,0.7595,0.4261,0.2352,0.1432,0.0,0.0,1.2822,1.2871,1.2832,1.2832,1.2832,1.2832,1.2822,1.2871,1.2236,1.1266,0.9961,0.9814,0.9762,0.9814,1.0364,1.1015,1.1715,1.2385,1.3062,1.3721,1.4903,1.5531,1.5588,1.6659,1.7258,1.7244,1.8313,1.8826,1.8864,1.9413,1.966,1.966,1.9645,1.9645,1.9585,1.8942,1.8416,1.8035,1.7878,1.72,1.6244,1.5876,1.5524,1.4829,1.1107,0.0,0.7983,0.6603,0.538,0.4181,0.2684,0.0711,-0.1001,-0.1001,-0.2164,-0.3566,-0.4294,-0.5003,-0.5538,-0.5538,-0.5575,-0.5391,-0.4641,-0.3926,-0.2984,-0.155,-0.1219,-0.0997,-0.0221,-0.0055,0.0166,0.0887,0.0998,0.155,0.2984,0.3207,0.3855,0.5588,0.5563,0.6188,0.8201,0.6076,0.4495,0.4235,0.428,0.428,0.428,0.5569,0.6318,0.6318,0.7751,0.8553,0.8553,0.9247,0.9621,0.9673,1.0989,1.1603,1.1644,1.2291,1.256,1.2522,1.2187,1.2037,1.2018,1.2008,1.2043,1.2053,1.2043,1.1709,1.1204,1.0809,0.8226,0.5001,0.0,0.0,0.0,1.2881,1.2881,1.2725,1.2236,1.2608,1.2881,1.2881,1.2236,0.0,0.0,0.0,0.0,0.0,1.1523,1.1953,1.3034,1.3321,1.3935,1.4949,1.574,1.6305,1.6714,1.745,1.8027,1.838,1.9051,1.9398,1.9442,2.0193,2.0398,2.0089,2.0431,2.0565,2.0516,1.9934,1.9886,2.0152,1.926,1.8825,1.8623,1.7648,1.6517,1.5224,0.0,0.0,1.036,0.9005,0.73,0.5464,0.3568,0.2089,0.0745,-0.0653,-0.1768,-0.2788,-0.3511,-0.422,-0.4761,-0.4761,-0.4419,-0.386,-0.308,-0.2373,-0.1439,0.0055,0.0772,0.1322,0.2041,0.2585,0.3018,0.3244,0.3684,0.4181,0.4678,0.5186,0.5817,0.6648,0.7245,0.8029,0.9285,0.8056,0.7359,0.802,0.7819,0.7672,0.7672,0.8271,0.8605,0.8605,0.957,1.0503,1.1428,1.1644,1.2183,1.3002,1.346,1.3716,1.3716,1.3939,1.4032,1.4,1.3928,1.3946,1.3923,1.3951,1.4216,1.4456,1.3712,1.3298,1.3073,1.2247,1.0911,0.9476,0.0,0.0,0.0,0.0,0.0,0.0,0.0,0.0,0.0,0.0,0.0,0.0,0.0,0.0,0.0,0.0,0.0,1.2772,1.3732,0.0,1.4627,1.5804,1.6417,1.7093,1.7919,1.8467,1.9027,1.9623,2.0108,2.0459,2.0695,2.1073,2.1268,2.1355,2.1458,2.1466,2.1359,2.1031,2.1009,2.1117,2.0292,1.9914,1.9683,1.8405,1.6896,0.0,0.0,1.231,1.0764,0.9724,0.8055,0.6067,0.3949,0.2362,0.0922,-0.0942,-0.1619,-0.1953,-0.273,-0.3279,-0.3547,-0.3264,-0.2654,-0.1877,-0.0877,-0.0055,0.0883,0.2371,0.3025,0.3627,0.4361,0.4956,0.5301,0.5183,0.5878,0.6529,0.6851,0.7139,0.764,0.8477,0.8978,0.9714,1.0836,1.055,1.0331,1.0461,1.0213,0.9989,0.9826,1.0205,1.0452,1.0452,1.1382,1.2288,1.3168,1.3348,1.4007,1.5017,1.5017,1.5152,1.5344,1.5344,1.5344,1.5365,1.5396,1.5393,1.5453,1.5661,1.5966,1.6194,1.5262,1.4794,1.4534,1.3409,1.2714,1.2162,0.0,0.0,0.0,0.0,0.0,0.0,0.0,0.0,0.0,0.0,0.0,0.0,0.0,0.0,0.0,0.0,0.0,0.0,1.3879,0.0,0.0,1.6429,1.7076,1.7964,1.9181,1.9712,2.0298,2.0947,2.1465,2.1963,2.2359,2.1963,2.2255,2.3122,2.2656,2.2315,2.2146,2.2146,2.1728,2.1103,2.107,2.0478,1.9485,1.8236,0.0,0.0,0.0,1.1329,0.9482,0.8867,0.7571,0.5882,0.3778,0.1656,-0.0334,-0.1672,-0.1619,-0.1229,-0.1896,-0.2063,-0.1893,-0.1109,-0.0389,0.0554,0.2088,0.2973,0.386,0.5387,0.5658,0.5887,0.6578,0.6991,0.713,0.6802,0.7588,0.8509,0.9336,0.9105,0.9472,1.1129,1.0872,1.1208,1.2877,1.3477,1.3155,1.1735,1.1648,1.1435,1.1015,1.1575,1.1913,1.1953,1.3178,1.3862,1.3909,1.4514,1.5062,1.5632,1.5632,1.5964,1.6522,1.6522,1.6522,1.6552,1.6552,1.6552,1.6637,1.7105,1.7353,1.7287,1.6718,1.6186,1.5591,1.4531,1.3758,1.3201,0.0,0.0,0.0,0.0,0.0,0.0,0.0,0.0,0.0,0.0,0.0,0.0,0.0,0.0,0.0,0.0,0.0,0.0,1.4864,0.0,0.0,0.0,0.0,1.9225,2.0401,2.0965,2.1317,2.152,2.1925,2.2026,2.1901,2.2406,2.2629,2.2524,2.276,2.281,2.2777,2.2777,2.2681,2.254,0.0,2.1129,2.0001,0.0,0.0,0.0,0.0,1.0128,0.9153,0.8218,0.5486,0.23,0.1159,0.0056,-0.0781,-0.0615,-0.0839,-0.1005,-0.0668,-0.0556,-0.0278,0.1047,0.1929,0.2977,0.4965,0.5565,0.6109,0.7606,0.7899,0.7923,0.8153,0.8463,0.8651,0.8576,0.9444,1.0171,1.0057,1.0755,1.1344,1.172,1.1647,1.2041,1.3313,1.3251,1.3086,1.3011,1.3246,1.3428,1.3481,1.3359,1.3511,1.3935,1.4272,1.4698,1.5129,1.5732,1.6107,1.6281,1.6281,1.6337,1.6522,1.6522,1.671,1.7118,1.7118,1.7312,1.7706,1.7827,1.7907,1.7798,1.676,1.6254,1.6014,1.4937,1.4436,1.4271,0.0,0.0,0.0,0.0,0.0,0.0,0.0,0.0,0.0,0.0,0.0,0.0,0.0,0.0,0.0,0.0,0.0,0.0,0.0,0.0,0.0,0.0,1.9155,2.0019,2.1237,2.1758,2.2085,0.0,0.0,0.0,2.2039,2.2073,2.2297,2.2724,2.2521,2.2483,2.262,2.262,0.0,0.0,0.0,0.0,0.0,0.0,0.0,0.0,0.9991,0.8263,0.6903,0.5658,0.3172,0.0498,-0.0223,-0.0781,-0.095,-0.0223,-0.0056,0.0112,0.1165,0.1441,0.1879,0.3664,0.4379,0.5251,0.743,0.7915,0.8235,0.9357,0.94,0.9162,0.9162,0.9289,0.9498,0.9742,1.0767,1.163,1.1822,1.2227,1.2651,1.2857,1.2599,1.2724,1.3534,1.3488,1.3468,1.3484,1.3721,1.3909,1.4129,1.3905,1.4097,1.4698,1.4971,1.5365,1.6008,1.6324,1.6522,1.6522,1.6522,1.6522,1.6522,1.6752,1.7034,1.7312,1.7544,1.7827,1.8145,1.8341,1.8458,1.8359,1.7438,1.6782,1.6291,1.543,1.4972,1.4765,0.0,0.0,0.0,0.0,0.0,0.0,0.0,0.0,0.0,0.0,0.0,0.0,0.0,0.0,0.0,0.0,0.0,0.0,0.0,0.0,0.0,0.0,1.9607,2.046,2.1669,2.2179,2.2469,2.2558,0.0,0.0,0.0,0.0,0.0,0.0,0.0,0.0,0.0,0.0,0.0,0.0,0.0,0.0,0.0,0.0,0.0,0.0,0.8614,0.6575,0.4477,0.3174,0.1556,0.0056,-0.0613,-0.0781,-0.0669,0.0167,0.089,0.1726,0.3314,0.375,0.4232,0.6371,0.6908,0.7489,0.9504,0.9987,1.0199,1.0906,1.0517,1.0064,1.0064,1.0031,1.0151,1.0631,1.1777,1.2881,1.3693,1.3542,1.3597,1.4236,1.3652,1.3341,1.3632,1.3914,1.3913,1.3599,1.361,1.3729,1.3894,1.3909,1.4236,1.4926,1.5454,1.5952,1.6466,1.6522,1.6522,1.6522,1.6522,1.6552,1.6637,1.7076,1.7394,1.7544,1.7987,1.8263,1.8341,1.8817,1.9006,1.8948,1.8397,1.7568,1.6593,1.6177,1.555,1.5065,0.0,0.0,0.0,0.0,0.0,0.0,0.0,0.0,0.0,0.0,1.4136,1.4834,0.0,0.0,0.0,0.0,0.0,0.0,0.0,0.0,0.0,0.0,1.9926,2.0496,2.1683,2.1791,2.1852,2.1852,2.1868,2.1841,0.0,0.0,0.0,0.0,0.0,0.0,0.0,0.0,0.0,0.0,0.0,0.0,0.0,0.0,0.0,0.0,0.9229,0.7644,0.6006,0.5506,0.3386,0.0887,0.0777,0.0722,0.0998,0.2323,0.2821,0.3369,0.5412,0.5949,0.6478,0.8605,0.9144,0.9555,1.1073,1.1449,1.1657,1.2353,1.194,1.1458,1.1458,1.1514,1.1543,1.1646,1.2886,1.382,1.3672,1.443,1.4945,1.4743,1.4215,1.3946,1.4013,1.3912,1.3834,1.3762,1.4226,1.451,1.4525,1.456,1.5062,1.6151,1.6293,1.638,1.6522,1.6522,1.6522,1.6522,1.6522,1.671,1.7146,1.7271,1.7787,1.8612,1.8727,1.9006,1.9442,1.953,1.9566,1.9507,1.8852,1.8149,1.7497,1.7526,1.68,1.5978,0.0,0.0,0.0,0.0,0.0,0.0,0.0,1.3066,1.3359,1.3779,1.4385,1.4863,1.5068,1.5618,1.6093,0.0,0.0,0.0,0.0,0.0,0.0,0.0,0.0,2.0651,2.1197,2.1507,2.1507,2.1245,0.0,2.0878,2.0272,1.9753,1.9501,1.9449,1.8884,1.8628,1.8601,1.8601,1.7909,1.6738,1.6241,1.4846,0.0,0.0,0.0,0.0,0.0,0.7714,0.6968,0.6808,0.5853,0.4539,0.3207,0.2808,0.308,0.4548,0.4985,0.5412,0.7594,0.8423,0.9125,1.0864,1.1297,1.1603,1.2638,1.2618,1.2508,1.3105,1.2673,1.2211,1.2461,1.2379,1.2428,1.2815,1.3651,1.4259,1.4484,1.5389,1.5898,1.5695,1.5641,1.5521,1.5237,1.4881,1.4555,1.4305,1.4514,1.4835,1.5141,1.5466,1.5876,1.6466,1.6522,1.6522,1.6522,1.6795,1.6909,1.6909,1.7188,1.7312,1.7312,1.7867,1.8263,1.8496,1.908,1.9442,1.969,1.969,1.969,1.966,1.9346,1.8669,1.791,1.7982,1.7479,1.6775,0.0,0.0,0.0,0.0,0.0,0.0,0.0,1.3164,1.3537,1.3965,1.437,1.4733,1.4988,1.5884,1.6581,0.0,0.0,0.0,0.0,0.0,0.0,0.0,0.0,2.0597,2.0597,0.0,0.0,2.0597,2.0512,0.0,0.0,0.0,0.0,0.0,1.7222,1.6723,1.6473,1.6473,1.5664,0.0,0.0,1.3085,0.0,0.0,0.0,0.0,0.0,0.8792,0.8681,0.8622,0.8804,0.8714,0.6689,0.5738,0.5565,0.6797,0.7172,0.7647,0.9804,1.0764,1.15,1.284,1.3205,1.3311,1.3721,1.342,1.3184,1.3418,1.3086,1.2844,1.324,1.3188,1.3283,1.3921,1.4252,1.4688,1.5294,1.6036,1.6451,1.6357,1.6721,1.6733,1.6076,1.5807,1.5461,1.4915,1.5017,1.5242,1.5588,1.6194,1.6522,1.6522,1.6522,1.6522,1.6522,1.6909,1.7105,1.7146,1.7666,1.7787,1.7504,1.8458,1.8727,1.8496,1.9332,1.9639,1.953,1.953,1.9442,1.9369,1.9369,1.8739,1.7906,1.804,1.768,1.7139,0.0,0.0,0.0,0.0,0.0,0.0,0.0,1.291,1.3183,1.3751,1.4022,1.4552,1.5488,1.6165,1.6935,0.0,0.0,0.0,0.0,0.0,0.0,0.0,0.0,0.0,0.0,0.0,0.0,1.9901,1.99,0.0,0.0,0.0,0.0,0.0,0.0,1.4926,1.4,1.4,0.0,0.0,0.0,0.0,0.0,0.0,0.0,0.0,0.0,1.2493,1.2482,1.2228,1.2157,1.206,1.1567,0.9987,0.8449,0.9195,0.9409,0.9862,1.1948,1.2561,1.2898,1.4215,1.4514,1.4422,1.3909,1.3779,1.3676,1.3509,1.3455,1.353,1.3946,1.4318,1.4608,1.4729,1.5022,1.5294,1.541,1.6036,1.6336,1.5808,1.6514,1.6587,1.5486,1.5962,1.61,1.5579,1.6008,1.6107,1.5632,1.6194,1.6522,1.6522,1.6522,1.6522,1.6522,1.6552,1.6552,1.6595,1.7105,1.7585,1.8066,1.8612,1.9132,1.9566,1.9639,1.9406,1.8968,1.8968,1.8688,1.8263,1.8263,1.781,1.7277,1.7885,1.7368,1.6573,0.0,0.0,0.0,0.0,0.0,0.0,1.3372,1.342,1.3741,1.4568,1.5096,1.57,1.6678,1.7734,1.834,1.8304,0.0,0.0,0.0,0.0,0.0,0.0,0.0,0.0,0.0,0.0,1.9579,1.915,1.915,0.0,0.0,0.0,0.0,0.0,0.0,1.4244,1.3481,1.3016,0.0,0.0,0.0,0.0,0.0,0.0,0.0,0.0,0.0,0.0,1.2984,1.2904,1.3008,1.3199,1.3042,1.2532,1.1948,1.191,1.1781,1.1899,1.3527,1.4193,1.4607,1.5129,1.5231,1.5096,1.4468,1.4264,1.4117,1.3893,1.4092,1.4404,1.4824,1.5049,1.5156,1.5156,1.5303,1.5584,1.5979,1.7009,1.7622,1.7506,1.8531,1.863,1.7195,1.7312,1.7097,1.6212,1.638,1.638,1.6139,1.638,1.6522,1.6522,1.6522,1.6522,1.6522,1.6837,1.6993,1.6993,1.7544,1.7706,1.7626,1.8185,1.838,1.8263,1.8612,1.8817,1.8855,1.8535,1.8496,1.8535,1.8224,1.7954,1.7697,1.7652,1.7316,1.6927,0.0,0.0,0.0,0.0,0.0,1.3334,1.3732,1.3956,1.4446,1.5491,1.5962,1.6609,1.7696,1.9013,1.958,1.8942,2.0006,0.0,0.0,0.0,0.0,0.0,0.0,0.0,0.0,0.0,1.9202,1.8715,1.8501,1.7809,0.0,0.0,1.5967,1.5227,0.0,0.0,0.0,0.0,0.0,0.0,0.0,0.0,0.0,0.0,0.0,0.0,0.0,0.0,0.0,0.0,0.0,1.4153,1.4153,1.4213,1.4282,1.3999,1.3601,1.359,1.5051,1.5638,1.5928,1.6262,1.6219,1.592,1.5257,1.4873,1.4618,1.436,1.457,1.4912,1.5332,1.541,1.541,1.541,1.5518,1.5889,1.6691,1.7893,1.876,1.8958,1.9974,2.0024,1.8367,1.7903,1.7375,1.6572,1.6522,1.6522,1.6522,1.6522,1.6522,1.6522,1.6522,1.6522,1.6522,1.6879,1.7076,1.7076,1.7626,1.7666,1.7312,1.7867,1.7907,1.7544,1.7947,1.8302,1.8612,1.8066,1.8106,1.838,1.7827,1.7626,1.7585,1.7188,1.7076,1.6993,0.0,0.0,0.0,0.0,0.0,0.0,1.3815,1.4329,1.5108,1.6255,1.6305,1.6814,1.8395,1.9666,2.0354,2.0214,2.0502,0.0,0.0,0.0,0.0,0.0,0.0,0.0,0.0,0.0,1.8715,1.8715,1.795,1.7203,1.6367,1.5628,1.4659,1.3462,0.0,0.0,0.0,0.0,0.0,0.0,0.0,0.0,0.0,0.0,0.0,0.0,0.0,0.0,0.0,0.0,0.0,0.0,0.0,1.5117,1.4854,1.5112,1.4797,1.4801,1.6691,1.6779,1.6676,1.78,1.7666,1.7083,1.6272,1.5645,1.5213,1.4865,1.4785,1.4912,1.5332,1.541,1.541,1.541,1.5771,1.6407,1.7269,1.8375,1.9215,1.9527,2.0261,2.0024,1.8367,1.7187,1.6491,1.6522,1.6522,1.6522,1.6522,1.6522,1.6522,1.6522,1.6522,1.6522,1.6522,1.6522,1.6522,1.6522,1.7034,1.7312,1.7312,1.7867,1.8106,1.8106,1.8106,1.8106,1.8066,1.7544,1.7312,1.7271,1.671,1.6522,1.6522,1.6522,1.6522,1.6522,0.0,0.0,0.0,0.0,0.0,0.0,0.0,1.5521,1.6148,1.7008,1.7254,1.7568,1.8052,1.9452,2.0366,2.0366,2.126,0.0,0.0,0.0,0.0,0.0,0.0,0.0,0.0,0.0,1.6881,1.6377,1.5561,1.4828,1.41,1.3811,1.3511,1.3093,1.2083,1.1455,0.0,0.0,0.0,0.0,0.0,0.0,0.0,0.0,0.0,0.0,0.0,0.0,0.0,0.0,0.0,0.0,0.0,0.0,0.0,1.6503,1.6269,1.598,1.7491,1.8047,1.8341,1.8692,1.8648,1.8234,1.7025,1.657,1.6057,1.4994,1.501,1.5254,1.5391,1.541,1.5508,1.5811,1.5977,1.6457,1.753,1.8474,1.9215,1.9403,1.9172,1.8781,1.8254,1.7187,1.6522,1.6522,1.6522,1.6522,1.6522,1.6522,1.6522,1.6522,1.6522,1.6522,1.6522,1.6522,1.6522,1.6522,1.668,1.6752,1.6752,1.6909,1.6993,1.6993,1.6993,1.7188,1.7504,1.6951,1.6951,1.7229,1.671,1.6522,1.6522,1.6522,1.6522,1.6522,0.0,0.0,0.0,0.0,0.0,0.0,0.0,1.6098,1.6654,1.722,1.7448,1.7635,1.7763,1.8899,1.9865,2.0354,2.1323,0.0,0.0,0.0,0.0,0.0,0.0,0.0,0.0,1.63,1.5331,1.4828,1.4073,1.3262,1.2573,1.2573,1.2397,1.2081,1.1319,1.1049,0.0,0.0,0.0,0.0,0.0,0.0,0.0,0.0,0.0,0.0,0.0,0.0,0.0,0.0,0.0,0.0,0.0,0.0,0.0,0.0,1.7207,1.7043,1.8434,1.8929,1.9099,1.9311,1.9221,1.8747,1.7581,1.7025,1.6471,1.5253,1.5234,1.541,1.541,1.541,1.5498,1.5771,1.6094,1.6705,1.7698,1.8491,1.8948,1.9089,1.878,1.8355,1.794,1.7061,1.6522,1.6522,1.6522,1.6522,1.6522,1.6522,1.6522,1.6522,1.6522,1.6522,1.6522,1.6522,1.6522,1.6522,1.6522,1.6522,1.6522,1.6522,1.6522,1.6522,1.6522,1.6795,0.0,1.671,1.6837,1.7229,1.671,1.6522,1.6522,1.6522,1.6522,1.6522,0.0,0.0,0.0,0.0,0.0,0.0,0.0,1.6032,1.6581,1.6978,1.7034,1.7132,1.7466,1.8092,1.8931,2.0145,0.0,0.0,0.0,0.0,0.0,0.0,0.0,0.0,1.6363,1.476,1.3945,1.3972,1.3201,1.2411,1.1673,1.165,1.1231,1.0591,1.0591,1.0604,0.0,0.0,0.0,0.0,0.0,0.0,0.0,0.0,0.0,0.0,0.0,0.0,0.0,0.0,0.0,0.0,0.0,0.0,0.0,0.0,0.0,0.0,0.0,1.9481,1.9245,1.9727,1.9458,1.8793,1.7876,1.7208,0.0,1.5601,1.541,1.541,1.541,1.541,1.542,1.5449,1.6152,1.6931,1.7801,1.8322,1.8599,1.8619,1.8753,1.8495,1.7488,1.6817,1.6466,1.6522,1.6522,1.6522,1.6522,1.6522,1.6522,1.6522,1.6522,1.6522,1.6522,1.6522,1.6522,1.6522,1.6522,1.6522,1.6522,1.6522,1.6522,1.6522,1.6522,1.6795,1.7188,1.671,1.6795,1.7188,1.668,1.6522,1.6522,1.6522,1.6522,1.6522,0.0,0.0,0.0,0.0,0.0,0.0,0.0,0.0,0.0,0.0,1.6284,1.631,1.6701,1.7284,1.7884,0.0,0.0,0.0,0.0,0.0,0.0,0.0,0.0,0.0,1.596,1.3571,1.2422,1.2617,1.1399,1.0695,1.0512,1.0279,1.018,1.0221,1.0221,1.0347,0.0,0.0,0.0,0.0,0.0,0.0,0.0,0.0,0.0,0.0,1.3183,1.3666,0.0,0.0,0.0,0.0,0.0,0.0,0.0,0.0,1.7578,1.7927,1.9418,0.0,2.04,2.0532,2.0067,1.9309,0.0,1.7452,1.6346,1.5555,1.541,1.541,1.541,1.541,1.5518,1.5859,1.6084,1.64,1.6921,1.7775,1.8305,1.8095,1.7881,1.7616,1.7405,1.6426,1.6008,1.6466,1.6522,1.6522,1.6522,1.6522,1.6522,1.6522,1.6522,1.6522,1.6522,1.6522,1.6522,1.6522,1.6522,1.6522,1.6522,1.6522,1.6522,1.6522,1.6522,1.6552,1.668,1.6552,1.6552,1.668,1.6552,1.6522,1.6522,1.6522,1.6522,1.6522,0.0,0.0,0.0,0.0,0.0,0.0,0.0,0.0,0.0,0.0,0.0,1.5631,1.5965,1.6297,0.0,0.0,0.0,0.0,0.0,0.0,0.0,0.0,0.0,1.4369,1.397,1.2158,1.1311,1.1475,1.0718,1.0247,1.0114,1.0094,1.01,1.0127,1.0261,1.0408,0.0,0.0,0.0,0.0,0.0,0.0,0.0,0.0,0.0,0.0,1.2273,1.2778,0.0,1.3763,1.4344,1.4863,0.0,0.0,0.0,0.0,1.709,1.7357,1.8501,1.9294,1.9863,1.9863,1.9258,1.8549,1.7784,1.7058,1.6322,1.5526,1.541,1.5294,1.4932,1.4874,1.4821,1.4684,1.5181,1.5766,1.6325,1.722,1.7676,1.7438,1.7279,1.7267,1.7393,1.6571,1.6139,1.6479,1.6522,1.6522,1.6522,1.6522,1.6522,1.6522,1.6522,1.6522,1.6522,1.6522,1.6522,1.6522,1.6522,1.6522,1.6522,1.6522,1.6522,1.6522,1.6522,1.6522,1.6522,1.6522,1.6522,1.6522,1.6522,1.6522,1.6522,1.6522,1.6522,1.6522,0.0,0.0,0.0,0.0,0.0,0.0,0.0,0.0,0.0,0.0,0.0,0.0,0.0,0.0,0.0,0.0,0.0,0.0,0.0,0.0,0.0,0.0,1.401,1.29,1.1909,1.101,1.0645,1.0692,1.0557,1.0294,1.0053,1.0214,1.0207,1.0067,1.0408,1.0624,0.0,0.0,0.0,0.0,0.0,0.0,0.0,0.0,0.0,0.0,0.0,0.0,0.0,1.327,1.3905,1.4307,1.4746,0.0,0.0,0.0,0.0,0.0,1.7224,1.7709,1.8078,1.8317,1.7709,1.688,1.628,1.6063,1.5786,1.5157,1.505,1.4815,1.4145,1.4025,1.3786,1.313,1.4005,1.5026,1.5715,1.6546,1.6963,1.6598,1.6717,1.6871,1.7107,1.6478,1.6194,1.6466,1.6423,1.6423,1.6522,1.6522,1.6522,1.6522,1.6522,1.6522,1.6522,1.6522,1.6522,1.6522,1.6522,1.6522,1.6522,1.6423,1.6423,1.6466,1.6423,1.6423,1.6466,1.638,1.638,1.6337,1.625,1.6281,1.638,1.638,1.638,1.638,0.0,0.0,0.0,0.0,0.0,0.0,0.0,0.0,0.0,0.0,0.0,0.0,0.0,0.0,0.0,0.0,0.0,0.0,0.0,0.0,0.0,1.1941,1.2029,1.207,1.2111,1.1114,1.0681,1.0929,1.018,0.98,0.974,0.9292,0.9319,0.9773,1.0383,1.0624,1.0624,0.0,0.0,0.0,1.0739,0.0,0.0,0.0,0.0,0.0,0.0,0.0,0.0,1.3629,1.4391,1.4756,1.5186,0.0,0.0,0.0,0.0,0.0,1.6377,1.5733,1.5148,1.6423,1.5676,1.4634,1.4468,1.3981,1.3485,1.3364,1.3373,1.3304,1.3191,1.3191,1.313,1.3009,1.3718,1.4363,1.4483,1.5712,1.6318,1.5448,1.5444,1.5587,1.5858,1.4869,1.4869,1.638,1.6008,1.5952,1.6466,1.6522,1.6522,1.6522,1.6522,1.6522,1.6522,1.6522,1.6522,1.6522,1.6522,1.6522,1.6466,1.5952,1.6008,1.6466,1.5952,1.6051,1.6479,1.5964,1.5732,1.5688,1.5197,1.5287,1.5732,1.5732,1.5732,1.5732,0.0,0.0,0.0,0.0,0.0,0.0,0.0,0.0,0.0,0.0,0.0,0.0,0.0,0.0,0.0,0.0,0.0,0.0,0.0,0.0,1.2109,1.1111,1.0258,0.9996,1.0593,1.0002,0.9931,1.0514,0.996,0.9599,0.9439,0.9332,0.9593,1.0167,1.0504,1.0624,1.0624,1.0624,0.0,0.0,0.0,0.0,0.0,0.0,0.0,0.0,0.0,0.0,0.0,0.0,1.3588,1.4131,1.4326,0.0,0.0,0.0,0.0,0.0,1.4613,1.3391,1.2287,1.3049,1.2997,1.2704,1.2195,1.2173,1.2281,1.2281,1.2679,1.2887,1.2451,1.2328,1.2512,1.2948,1.3304,1.3775,1.4456,1.5115,1.5491,1.5185,1.4923,1.4984,1.5498,1.5074,1.5129,1.5964,1.6051,1.6194,1.6479,1.6522,1.6522,1.6522,1.6194,1.5996,1.5996,1.5996,1.6194,1.6522,1.6522,1.6522,1.6466,1.5864,1.5764,1.5964,1.5377,1.5287,1.5522,1.5242,1.5096,1.5107,1.4789,1.488,1.5096,1.5096,1.5096,1.5096,0.0,0.0,0.0,0.0,0.0,0.0,0.0,0.0,0.0,0.0,0.0,0.0,0.0,0.0,0.0,0.0,0.0,0.0,0.0,0.0,1.0692,1.0692,0.9144,0.8586,0.9174,0.89,0.926,1.0246,0.9945,0.9685,0.946,0.9767,1.0132,1.0461,1.0528,1.0624,1.0624,1.0624,1.0815,0.0,0.0,0.0,0.0,0.0,0.0,0.0,0.0,0.0,0.0,0.0,0.0,0.0,0.0,0.0,0.0,1.3661,1.3522,1.3408,1.2748,1.1443,1.0179,0.9983,1.0398,1.0628,0.9989,1.0372,1.0885,1.1078,1.1673,1.202,1.1586,1.1531,1.1779,1.2573,1.2887,1.3357,1.4383,1.4673,1.479,1.48,1.4419,1.4408,1.503,1.5003,1.5084,1.5365,1.5688,1.5964,1.6281,1.6281,1.6281,1.6281,1.582,1.5543,1.541,1.541,1.5688,1.6281,1.6423,1.6423,1.6281,1.5676,1.541,1.5365,1.4732,1.456,1.4709,1.456,1.4468,1.4468,1.434,1.434,1.4468,1.4468,1.4468,1.4468,0.0,0.0,0.0,0.0,0.0,0.0,0.0,0.0,0.0,0.0,0.0,0.0,0.0,0.0,0.0,0.0,0.0,0.0,0.0,0.0,0.9426,0.9426,0.928,0.9087,0.883,0.8801,0.9396,1.0659,1.0398,1.0228,1.0213,1.0475,1.0471,1.016,1.0441,1.0624,1.0624,1.0624,1.0651,1.0705,0.0,0.0,0.0,0.0,0.0,0.0,0.0,0.0,0.0,0.0,0.0,0.0,0.0,0.0,1.3186,1.3132,1.2371,1.1479,1.1428,1.0431,0.9198,0.8415,0.821,0.8275,0.821,0.821,0.8474,0.932,0.9518,0.9779,1.0555,1.0688,1.0926,1.1772,1.2512,1.3177,1.3624,1.4326,1.4537,1.3704,1.3576,1.3681,1.391,1.344,1.3563,1.4698,1.4283,1.4503,1.5588,1.5676,1.5676,1.5676,1.5632,1.532,1.4744,1.4744,1.5062,1.5676,1.6238,1.6194,1.5632,1.5062,1.4744,1.4744,1.4143,1.419,1.4663,1.4097,1.3862,1.3826,1.3248,1.3372,1.3862,1.3862,1.3862,1.3862,0.0,0.0,0.0,0.0,0.0,0.0,0.0,0.0,0.0,0.0,0.0,0.0,0.0,0.0,0.0,0.0,0.0,0.0,0.0,0.9383,0.9092,0.9268,0.9233,0.9349,0.957,0.9285,0.9971,1.1631,1.1132,1.0763,1.0565,1.0378,1.0342,1.0401,1.0571,1.0624,1.0624,1.0624,1.0732,1.0822,1.0755,0.0,0.0,0.0,0.0,0.0,0.0,0.0,0.0,0.0,1.3298,1.288,1.2935,1.2708,1.2321,1.1592,1.1316,1.1212,1.0696,0.9942,0.921,0.8877,0.8027,0.7046,0.6535,0.6789,0.7437,0.8291,0.8941,0.9594,1.0428,1.0989,1.1593,1.2389,1.3243,1.3812,1.3913,1.4157,1.4072,1.3223,1.3125,1.3145,1.321,1.3372,1.3647,1.4097,1.4283,1.456,1.5017,1.5062,1.5062,1.5062,1.4687,1.4365,1.4143,1.4143,1.4226,1.4503,1.5107,1.5242,1.5017,1.4422,1.4143,1.4097,1.3515,1.3382,1.3563,1.3334,1.3238,1.3238,1.2968,1.3065,1.3238,1.3238,1.3238,1.3238,0.0,0.0,0.0,0.0,0.0,0.0,0.0,0.0,0.0,0.0,0.0,0.0,0.0,0.0,0.0,0.0,0.0,0.0,0.9168,0.9175,0.9426,0.9881,1.024,1.0739,1.1498,1.1047,1.1382,1.2562,1.1972,1.1452,1.102,1.0507,1.0309,1.0421,1.0421,1.0421,1.0421,1.0421,1.0588,1.0907,1.1049,1.1006,0.0,0.0,0.0,0.0,0.0,0.0,0.0,0.0,1.2241,1.1912,1.1771,1.1538,1.1231,1.0508,1.0526,1.0687,1.0208,0.97,0.921,0.8947,0.7767,0.6527,0.5943,0.6075,0.6593,0.7767,0.8935,0.9913,1.0491,1.1288,1.2081,1.2879,1.3666,1.4167,1.4086,1.4077,1.3818,1.2988,1.2881,1.2881,1.2881,1.3286,1.3505,1.3505,1.3884,1.4201,1.4422,1.4422,1.4422,1.4422,1.4003,1.3732,1.3505,1.3505,1.3505,1.3505,1.392,1.4247,1.4376,1.4003,1.3684,1.3505,1.3055,1.2881,1.2881,1.2881,1.2881,1.2881,1.2881,1.2881,1.2881,1.2881,1.2881,1.2881,0.0,0.0,0.0,0.0,0.0,0.0,0.0,0.0,0.0,0.0,0.0,0.0,0.0,0.0,0.0,0.0,0.0,0.0,0.9615,0.99,1.04,1.1271,1.2382,1.3525,1.4687,1.4086,1.3661,1.3398,1.2978,1.2406,1.1671,1.102,1.0457,1.0114,1.0114,1.0114,1.0114,1.0114,1.0281,1.0701,1.1739,1.1561,0.0,0.0,0.0,0.0,0.0,0.0,0.0,0.0,1.117,1.0879,1.1347,1.0701,0.9888,1.0217,1.0002,0.9753,1.004,0.9706,0.9075,0.8221,0.7372,0.6719,0.6719,0.6009,0.5885,0.7637,0.9384,1.0624,1.0624,1.1288,1.2081,1.2887,1.3674,1.4167,1.4096,1.4077,1.3828,1.2988,1.2881,1.2881,1.2881,1.2881,1.2881,1.2881,1.2881,1.3152,1.3779,1.3779,1.3779,1.3779,1.3779,1.3505,1.2929,1.2881,1.2881,1.2881,1.2881,1.319,1.3779,1.3779,1.3467,1.2881,1.2881,1.2881,1.2881,1.2881,1.2881,1.2881,1.2881,1.2881,1.2881,1.2881,1.2881,1.2881,0.0,0.0,0.0,0.0,0.0,0.0,0.0,0.0,0.0,0.0,0.0,0.0,0.0,0.0,0.0,0.0,0.0,0.0,0.9269,0.9911,1.0793,1.2038,1.2923,1.3687,1.4298,1.4326,1.3961,1.3237,1.2228,1.1247,1.0186,0.9656,0.9232,0.9085,0.9571,0.9813,0.9813,0.9813,0.998,1.0315,1.1228,1.153,0.0,0.0,0.0,0.0,0.0,0.0,0.0,0.0,0.0,0.0,1.0308,1.0056,0.9729,0.9542,0.9758,1.0007,1.0094,1.0148,0.9977,0.9139,0.8742,0.8355,0.7767,0.692,0.6789,0.8554,1.0268,1.1469,1.1469,1.2565,1.3597,1.3786,1.451,1.4926,1.4612,1.4326,1.3936,1.3389,1.3066,1.2881,1.2881,1.2881,1.2881,1.2881,1.2881,1.2968,1.3152,1.3152,1.3152,1.3152,1.3152,1.3055,1.2881,1.2881,1.2881,1.2881,1.2881,1.2968,1.3152,1.3152,1.3065,1.2881,1.2881,1.2881,1.2881,1.2881,1.2881,1.2881,1.2881,1.2881,1.2881,1.2881,1.2881,1.2881,0.0,0.0,0.0,0.0,0.0,0.0,0.0,0.0,0.0,0.0,0.0,0.0,0.0,0.0,0.0,0.0,0.0,0.0,0.0,1.07,1.1647,1.2632,1.3261,1.3669,1.3817,1.4015,1.3682,1.2762,1.1472,1.0428,0.9606,0.8875,0.8539,0.8455,0.9157,0.9506,0.9506,0.9506,0.9846,1.0401,1.1193,1.16,1.1957,0.0,0.0,0.0,0.0,0.0,0.0,0.0,0.0,0.0,0.9843,0.9722,0.9673,0.9606,0.959,0.9633,0.9754,0.9913,0.9849,0.9005,0.9075,0.9139,0.8613,0.8091,0.8027,0.9075,1.0647,1.1834,1.1834,1.3114,1.4213,1.4213,1.4874,1.5264,1.4844,1.4561,1.417,1.3574,1.3281,1.3066,1.29,1.2881,1.2881,1.2881,1.2881,1.2881,1.2881,1.2881,1.2881,1.2881,1.2881,1.2881,1.2881,1.2881,1.2881,1.2881,1.2881,1.2881,1.2881,1.2881,1.2881,1.2881,1.2881,1.2881,1.2881,1.2881,1.2881,1.2881,1.2881,1.2881,1.2881,1.2881,1.2881,1.2881,0.0,0.0,0.0,0.0,0.0,0.0,0.0,0.0,0.0,0.0,0.0,0.0,0.0,0.0,0.0,0.0,0.0,0.0,0.0,0.0,1.2679,1.3068,1.339,1.3482,1.3305,1.3296,1.2952,1.2089,1.0624,0.9798,0.9491,0.8557,0.8099,0.8187,0.886,0.9143,0.9143,0.9254,0.9799,1.0748,1.1631,1.1925,1.2047,1.3997,0.0,0.0,0.0,0.0,0.0,0.0,0.0,0.0,0.9693,0.9719,0.9813,1.0047,0.9566,0.9007,0.933,0.9402,0.9204,0.835,0.8683,0.9338,0.9402,0.9402,0.9466,0.9524,1.0773,1.195,1.202,1.3295,1.4332,1.4332,1.4932,1.5283,1.4893,1.4805,1.4492,1.3721,1.3555,1.3359,1.2978,1.29,1.2881,1.2881,1.2881,1.2881,1.2881,1.2881,1.2881,1.2881,1.2881,1.2881,1.2881,1.2881,1.2881,1.2881,1.2881,1.2881,1.2881,1.2881,1.2881,1.2881,1.2881,1.2881,1.2881,1.2881,1.2881,1.2881,1.2881,1.2881,1.2881,1.2881,1.2881,1.2881,0.0,0.0,0.0,0.0,0.0,0.0,0.0,0.0,0.0,0.0,0.0,0.0,0.0,0.0,0.0,0.0,0.0,0.0,0.0,0.0,1.2626,1.2905,1.3072,1.3126,1.3049,1.2498,1.2073,1.1829,0.9721,0.8734,0.8768,0.7698,0.7377,0.7859,0.8571,0.8898,0.8898,0.9461,0.9953,1.0521,1.182,1.2484,1.2758,1.385,1.3994,0.0,0.0,0.0,0.0,0.0,0.0,0.0,0.9753,1.0,1.0403,1.0167,1.0151,1.0216,1.0288,1.0301,1.011,0.9268,0.9139,0.9466,1.0174,1.0301,1.0485,1.1149,1.2074,1.294,1.3597,1.4501,1.5108,1.5108,1.5294,1.5381,1.5293,1.5,1.4717,1.4531,1.3916,1.3477,1.3379,1.3076,1.2881,1.2881,1.2881,1.2881,1.2881,1.2881,1.2881,1.2881,1.2881,1.2881,1.2881,1.2881,1.2881,1.2881,1.2881,1.2881,1.2881,1.2881,1.2881,1.2881,1.2881,1.2881,1.2881,1.2881,1.2881,1.2881,1.2881,1.2881,1.2881,1.2881,1.2881,1.2881,0.0,0.0,0.0,0.0,0.0,0.0,0.0,0.0,0.0,0.0,0.0,0.0,0.0,0.0,0.0,0.0,0.0,0.0,0.0,1.2022,1.2088,1.183,1.2198,1.2274,1.1849,1.1413,1.1226,1.1226,0.9383,0.8475,0.8604,0.788,0.7577,0.7723,0.848,0.8956,0.9309,0.9666,1.0267,1.1102,1.1833,1.2437,1.2917,1.3218,1.3346,1.3268,1.2687,0.0,0.0,0.0,0.0,0.0,0.0,0.0,1.0598,1.0374,1.0184,0.9977,0.9977,0.9977,0.9977,0.9919,0.9913,1.0168,1.0982,1.0988,1.1182,1.2438,1.2816,1.3252,1.4025,1.4874,1.541,1.541,1.541,1.541,1.541,1.5225,1.4932,1.4521,1.4072,1.3652,1.3242,1.3008,1.2881,1.2881,1.2881,1.2881,1.2881,1.2881,1.2881,1.2881,1.2881,1.2881,1.2881,1.2881,1.2881,1.2881,1.2881,1.2881,1.2881,1.2881,1.2881,1.2881,1.2881,1.2881,1.2881,1.2881,1.2881,1.2881,1.2881,1.2881,1.2881,1.2881,1.2881,1.2881,0.0,0.0,0.0,0.0,0.0,0.0,0.0,0.0,0.0,0.0,0.0,0.0,0.0,0.0,0.0,0.0,0.0,0.0,0.0,1.1639,1.1353,1.0853,1.133,1.1288,1.0624,1.0571,1.0481,1.0481,0.9336,0.8792,0.878,0.83,0.8038,0.7937,0.8633,0.9263,0.9814,1.0064,1.0762,1.1814,1.1814,1.2187,1.2656,1.2322,1.2191,1.2183,1.1869,1.151,1.1114,1.1056,0.0,0.0,0.0,0.0,1.0557,1.073,1.0288,0.9709,0.9709,0.9652,0.9722,1.0434,1.0681,1.0989,1.1648,1.1616,1.1838,1.338,1.3295,1.3254,1.4155,1.4828,1.5322,1.54,1.541,1.541,1.541,1.5352,1.5039,1.4326,1.4068,1.375,1.3057,1.292,1.2881,1.2881,1.2881,1.2881,1.2881,1.2881,1.2881,1.2881,1.2881,1.2881,1.2881,1.2881,1.2881,1.2881,1.2881,1.2881,1.2881,1.2881,1.2881,1.2881,1.2881,1.2881,1.2881,1.2881,1.2881,1.2881,1.2881,1.2881,1.2881,1.2881,1.2881,1.2881,0.0,0.0,0.0,0.0,0.0,0.0,0.0,0.0,0.0,0.0,0.0,1.0685,1.0734,1.1344,0.0,0.0,0.0,0.0,1.0965,0.0,0.0,1.1189,1.0918,1.0681,1.0624,1.0307,1.0174,1.0174,0.9781,0.9563,0.955,0.8337,0.808,0.8699,0.9361,0.971,0.9865,1.1065,1.1665,1.1814,1.1814,1.1864,1.1873,1.1276,1.104,1.0988,1.0677,1.0514,1.0376,1.005,0.9883,0.0,0.0,0.0,1.0343,1.1327,1.1586,1.1454,1.1454,1.0975,1.0428,1.0561,1.1108,1.1648,1.1772,1.2289,1.2987,1.3954,1.3455,1.3293,1.4505,1.4807,1.499,1.5352,1.541,1.541,1.541,1.5098,1.4824,1.4717,1.4043,1.3545,1.3437,1.3096,1.2881,1.2881,1.2881,1.2881,1.2881,1.2881,1.2881,1.2881,1.2881,1.2881,1.2881,1.2881,1.2881,1.2881,1.2881,1.2881,1.2881,1.2881,1.2881,1.2881,1.2881,1.2881,1.2881,1.2881,1.2881,1.2881,1.2881,1.2881,1.2881,1.2881,1.2881,1.2881,0.0,0.0,0.0,0.0,0.0,0.0,0.0,0.0,0.0,0.0,0.0,1.0288,1.0483,1.0937,0.0,0.0,0.0,0.0,1.0261,0.9991,0.0,1.0115,1.0241,1.0234,1.0074,1.01,1.004,0.9873,0.9579,0.9439,0.9426,0.8667,0.8771,0.9631,0.9938,1.0196,1.0415,1.0965,1.1266,1.1266,1.1266,1.1345,1.1404,1.0589,1.0335,1.0446,0.9742,0.958,0.9639,0.9498,0.9546,0.9706,0.9833,0.0,0.0,0.0,1.1989,1.2451,1.2451,1.2212,1.1965,1.1965,1.2212,1.2573,1.3053,1.3263,1.3529,1.4352,1.3997,1.3891,1.4953,1.5137,1.5195,1.5381,1.541,1.541,1.541,1.5254,1.5049,1.4814,1.4238,1.3769,1.3525,1.3125,1.2881,1.2881,1.2881,1.2881,1.2881,1.2881,1.2881,1.2881,1.2881,1.2881,1.2881,1.2881,1.2881,1.2881,1.2881,1.2881,1.2881,1.2881,1.2881,1.2881,1.2881,1.2881,1.2881,1.2881,1.2666,1.2344,1.2725,1.2666,1.2344,1.2774,1.2881,1.2881,0.0,0.0,0.0,0.0,0.0,0.0,0.0,0.0,0.0,0.0,0.0,0.0,1.0417,0.0,0.0,0.0,0.0,0.0,0.9614,0.0,0.0,0.0,0.0,0.998,0.9693,0.9893,0.986,0.9573,0.9272,0.911,0.9183,0.9018,0.9402,1.0307,1.0225,1.0302,1.0568,1.072,1.0704,1.0501,1.0391,1.0362,1.0348,0.9456,0.9391,0.9722,0.8897,0.8828,0.9176,0.9097,0.9279,0.9529,0.9767,1.0387,0.0,0.0,0.0,1.3194,1.3287,1.3258,1.3141,1.3141,1.3325,1.3631,1.4237,1.4236,1.424,1.4828,1.4687,1.4658,1.5293,1.5322,1.5283,1.5391,1.541,1.541,1.541,1.5322,1.5137,1.4824,1.4404,1.3951,1.3691,1.3281,1.3037,1.3037,1.2939,1.2881,1.2881,1.2881,1.2881,1.2881,1.2881,1.2881,1.2881,1.2881,1.2881,1.2881,1.2881,1.2774,1.2618,1.2822,1.2774,1.2618,1.2822,1.2881,1.2881,1.2715,1.2295,1.1814,1.2197,1.2138,1.1873,1.2403,1.2725,1.2881,0.0,0.0,0.0,0.0,0.0,0.0,0.0,0.0,0.0,0.0,0.0,0.0,1.0787,1.0779,1.0517,0.9917,0.0,0.0,0.0,0.0,0.0,0.0,0.0,0.0,0.9693,0.9699,0.9559,0.921,0.8971,0.8971,0.9183,0.917,0.9597,1.03,0.9978,0.9829,0.9917,1.0517,1.0383,0.971,0.9248,0.8705,0.8002,0.7465,0.7736,0.8474,0.8101,0.8478,0.9143,0.8925,0.8838,0.9004,0.9977,1.0297,1.0693,0.0,0.0,0.0,1.4046,1.3865,1.3575,1.3575,1.4204,1.4843,1.4843,1.5078,1.5323,1.5381,1.5361,1.5361,1.54,1.5088,1.4951,1.5352,1.541,1.541,1.541,1.5068,1.4805,1.4785,1.4404,1.4068,1.4048,1.3721,1.3477,1.3477,1.3105,1.2881,1.2881,1.2881,1.2881,1.2881,1.2881,1.2881,1.2881,1.2881,1.2881,1.2881,1.2881,1.255,1.1864,1.2559,1.251,1.1922,1.2608,1.2881,1.2832,1.2129,1.1814,1.1765,1.1166,1.1266,1.1814,1.1864,1.2295,1.2881,0.0,0.0,0.0,0.0,0.0,0.0,0.0,0.0,0.0,0.0,0.0,0.0,0.0,0.8376,0.8218,0.8455,0.889,0.0,0.0,0.0,0.0,0.0,0.0,0.0,0.9406,0.9586,0.9539,0.9183,0.9358,0.9267,0.8965,0.9372,0.9479,0.9379,0.9885,0.9737,0.911,0.9356,0.8776,0.77,0.7694,0.7602,0.757,0.7848,0.8218,0.8686,0.897,0.9227,0.9479,0.9185,0.903,0.9173,0.9766,1.05,1.1482,1.3497,1.4259,1.4468,1.4877,1.4859,1.4782,1.4782,1.5228,1.5613,1.5276,1.5554,1.5752,1.5469,1.541,1.541,1.541,1.5283,1.5234,1.5391,1.541,1.541,1.541,1.5283,1.5186,1.5186,1.4805,1.4551,1.4551,1.416,1.3799,1.3525,1.3369,1.3164,1.29,1.2881,1.2881,1.2881,1.2881,1.2881,1.2881,1.2881,1.2881,1.2881,1.2403,1.208,1.1814,1.1625,1.1625,1.1765,1.1633,1.1792,1.2138,1.1416,1.0914,1.0517,1.072,1.0661,1.0568,1.1015,1.1625,1.2187,0.0,0.0,0.0,0.0,0.0,0.0,0.0,0.0,0.0,0.8427,0.0,0.0,0.0,0.0,0.7289,0.7996,0.8533,0.8804,0.8804,0.8804,0.0,0.0,0.0,0.0,0.919,0.9532,0.9539,0.9183,0.9616,0.9465,0.8804,0.9465,0.9465,0.8818,0.9253,0.9052,0.8324,0.8112,0.7315,0.6223,0.6506,0.6583,0.6538,0.7152,0.785,0.8578,0.883,0.9347,0.9786,0.9486,0.9547,0.982,1.0189,1.1085,1.2313,1.3863,1.4453,1.4658,1.5088,1.541,1.5625,1.5625,1.585,1.6025,1.5889,1.5957,1.6037,1.5693,1.5625,1.5586,1.5439,1.541,1.541,1.541,1.5293,1.5254,1.5391,1.541,1.541,1.541,1.5166,1.5,1.5,1.4609,1.417,1.375,1.3584,1.332,1.29,1.2881,1.2881,1.2881,1.2881,1.2881,1.2881,1.2881,1.2774,1.251,1.2039,1.1575,1.1116,1.0914,1.0914,1.1116,1.0661,1.0965,1.1715,1.0813,1.0218,0.9814,1.0064,1.0012,0.9865,1.0312,1.1015,1.1814,0.0,0.0,0.0,0.0,0.0,0.0,0.0,0.0,0.767,0.767,0.0,0.0,0.0,0.0,0.0,0.8699,0.8804,0.8804,0.8804,0.8804,0.0,0.0,0.0,0.0,0.9203,0.9532,0.9546,0.9196,0.9631,0.9472,0.8804,0.9465,0.9465,0.8752,0.8049,0.767,0.7616,0.6858,0.615,0.5525,0.5839,0.5514,0.4955,0.5308,0.6527,0.7931,0.7714,0.8696,1.0087,0.9793,1.0257,1.091,1.1212,1.2064,1.2959,1.3379,1.3799,1.4175,0.0,0.0,0.0,1.6086,1.6105,1.6172,1.6602,1.6367,1.6115,1.6105,1.6105,1.5918,1.5488,1.54,1.54,1.541,1.5068,1.4941,1.5352,1.541,1.541,1.541,1.541,1.541,1.541,1.5039,1.4619,1.4116,1.376,1.334,1.29,1.2881,1.2881,1.2881,1.2881,1.2881,1.2881,1.2881,1.2501,1.1814,1.1742,1.104,0.9814,1.0466,1.0415,0.9814,0.9762,1.0517,1.1665,1.0312,0.9762,0.9718,0.9061,0.9211,0.9762,0.9762,1.0618,1.1765,0.0,0.0,0.0,0.0,0.0,0.7949,0.784,0.7323,0.6912,0.0,0.0,0.0,0.6534,0.7235,0.7777,0.799,0.848,0.8804,0.8804,0.8804,0.8804,0.8804,0.9165,0.9426,0.9559,0.9646,0.9646,0.9559,0.9962,0.9688,0.8804,0.9465,0.9465,0.8752,0.8049,0.7396,0.6858,0.6145,0.546,0.4916,0.5006,0.5062,0.5203,0.6543,0.7433,0.8146,0.9307,1.0052,1.0394,1.0094,1.0166,1.0418,1.1075,1.2064,1.2959,1.3379,1.3799,1.4107,1.4277,0.0,0.0,0.0,0.0,0.0,1.582,1.5928,1.5977,1.5654,1.5586,1.5557,1.543,1.5156,1.5059,1.5361,1.5312,1.5283,1.5391,1.541,1.541,1.541,1.541,1.541,1.541,1.5312,1.4932,1.4136,1.397,1.3643,1.292,1.2881,1.2881,1.2881,1.2881,1.2881,1.2881,1.2344,1.1972,1.1765,1.0821,1.0174,0.9762,0.9517,0.951,0.9762,0.9263,0.9562,1.0269,0.9413,0.9061,0.9061,0.8857,0.891,0.9061,0.9061,0.9614,1.0364,0.0,0.0,0.0,0.8477,0.7804,0.7277,0.712,0.6558,0.6145,0.0,0.0,0.0,0.6966,0.745,0.783,0.8156,0.854,0.8804,0.8804,0.8804,0.8804,0.8804,0.903,0.9379,0.9679,0.9686,0.974,0.9866,1.0286,1.0041,0.9172,0.9724,0.9659,0.8931,0.777,0.702,0.6534,0.5492,0.4897,0.4602,0.4663,0.4796,0.5074,0.6476,0.7321,0.7866,0.918,1.0014,1.0347,1.0174,1.0288,1.0671,1.1328,1.1928,1.251,1.2955,1.3449,1.3957,1.4295,1.4902,1.5352,1.5107,0.0,0.0,1.5703,1.5879,1.5986,1.5732,1.5684,1.5625,1.5449,1.5215,1.5127,1.5371,1.541,1.541,1.541,1.541,1.541,1.541,1.541,1.541,1.541,1.541,1.5059,1.4145,1.4077,1.3769,1.293,1.2881,1.2881,1.2881,1.2881,1.2764,1.2452,1.2021,1.1516,1.0965,1.0167,0.9666,0.9361,0.8956,0.9008,0.9361,0.8962,0.9008,0.9361,0.8956,0.8804,0.8804,0.8804,0.8804,0.8804,0.8804,0.9211,0.9814,0.0,0.0,0.7787,0.7556,0.7239,0.6973,0.6857,0.5985,0.5433,0.0,0.5651,0.6249,0.7557,0.7777,0.8103,0.8752,0.8804,0.8804,0.8804,0.8804,0.8804,0.8804,0.9004,0.9332,0.9626,0.9666,0.9813,1.0067,1.0429,1.0272,0.9626,0.9979,0.9781,0.9068,0.7443,0.6696,0.6534,0.5171,0.457,0.4529,0.4609,0.4684,0.4845,0.5791,0.6625,0.7408,0.8181,0.9069,0.9932,0.9903,1.0356,1.1041,1.1541,1.1696,1.1781,1.229,1.2931,1.3618,1.426,1.4878,1.5284,1.5235,1.5313,0.0,1.5908,1.5986,1.6047,1.6107,1.6107,1.5929,1.5595,1.5468,1.54,1.5352,1.5381,1.541,1.541,1.541,1.541,1.541,1.541,1.541,1.541,1.541,1.5059,1.4145,1.3937,1.3559,1.2812,1.2725,1.2676,1.2676,1.2676,1.2353,1.1715,1.1616,1.0965,0.9814,0.9718,0.9361,0.8804,0.8804,0.8804,0.8804,0.8804,0.8804,0.8804,0.8804,0.8804,0.8804,0.8804,0.8804,0.8804,0.8804,0.9159,0.9666,0.0,0.6955,0.6693,0.6489,0.5892,0.5296,0.5046,0.4809,0.4893,0.5433,0.6524,0.7396,0.767,0.8209,0.8646,0.8804,0.8804,0.8804,0.8804,0.8804,0.8804,0.8804,0.8864,0.9025,0.9263,0.9559,0.9713,0.9766,0.988,0.9667,0.9319,0.9133,0.8991,0.8838,0.7907,0.7182,0.6534,0.5655,0.5003,0.4519,0.4553,0.4653,0.4984,0.6397,0.7085,0.7408,0.8246,0.8771,0.9015,0.8535,0.9146,1.004,1.0159,1.0907,1.1719,1.1812,1.223,1.258,1.2375,1.3358,1.4378,1.4057,1.4686,0.0,1.5518,1.5537,1.5713,1.6284,1.5936,1.5683,1.6161,1.5806,1.5303,1.4961,1.5186,1.541,1.541,1.541,1.541,1.541,1.541,1.541,1.541,1.541,1.5059,1.4145,1.2945,1.2186,1.203,1.1475,1.1225,1.1225,1.1225,1.1124,1.1015,1.0466,1.0064,0.9814,0.9263,0.891,0.8804,0.8804,0.8804,0.8804,0.8804,0.8804,0.8804,0.8804,0.8804,0.8804,0.8804,0.8804,0.8804,0.8804,0.8857,0.9008,0.613,0.589,0.5708,0.5601,0.5214,0.4816,0.4567,0.4787,0.5195,0.5669,0.6688,0.7318,0.7192,0.7509,0.7723,0.7723,0.7723,0.783,0.8209,0.8262,0.8427,0.8804,0.8804,0.8945,0.9176,0.9385,0.9606,0.99,0.9753,0.9499,0.9072,0.8664,0.8306,0.7911,0.7009,0.6416,0.5982,0.5273,0.4787,0.4519,0.4519,0.4773,0.5308,0.6402,0.6875,0.7079,0.788,0.8034,0.793,0.7803,0.8488,0.9382,0.9244,1.0073,1.1189,1.1418,1.1795,1.2158,1.2321,1.2957,1.3622,1.3852,1.4363,0.0,0.0,1.541,1.5526,1.5864,1.5642,1.5458,1.5638,1.5372,1.5029,1.4814,1.4961,1.5098,1.5098,1.5469,1.5654,1.5439,1.5605,1.5654,1.543,1.541,1.5059,1.4145,1.2898,1.204,1.1823,1.1166,1.0813,1.0813,1.0813,1.0669,1.0312,0.9969,0.9614,0.9309,0.8956,0.8804,0.8804,0.8804,0.8804,0.8804,0.8804,0.8804,0.8804,0.8804,0.8804,0.8804,0.8804,0.8804,0.8804,0.8804,0.8804,0.8804,0.5008,0.5009,0.506,0.4975,0.5081,0.5104,0.4869,0.529,0.5703,0.5914,0.6482,0.6729,0.6442,0.6253,0.6253,0.6423,0.6428,0.6743,0.7524,0.7686,0.8015,0.8671,0.8785,0.8945,0.9176,0.9183,0.9385,0.9786,0.9499,0.9147,0.8659,0.8161,0.7583,0.6961,0.594,0.5487,0.5433,0.4787,0.457,0.4677,0.4677,0.5003,0.5597,0.6312,0.6696,0.6864,0.7344,0.7318,0.7068,0.722,0.8028,0.8906,0.8812,0.9617,1.0696,1.1034,1.1258,1.1516,1.2336,1.2464,1.2659,1.352,1.3793,1.4114,0.0,0.0,0.0,1.5526,1.5526,1.536,1.5186,1.4946,1.4812,1.4834,1.4879,1.4879,1.4879,1.5623,1.598,1.5449,1.5791,1.5928,1.5566,1.5381,1.4943,1.409,1.2929,1.2086,1.1538,1.0804,1.0415,1.0415,1.0415,1.0167,0.9614,0.9614,0.9361,0.8804,0.8804,0.8804,0.8804,0.8804,0.8804,0.8804,0.8804,0.8804,0.8804,0.8804,0.8804,0.8804,0.8804,0.8804,0.8804,0.8804,0.8804,0.8804,0.4887,0.4931,0.4975,0.5087,0.5731,0.6162,0.6011,0.5951,0.591,0.5825,0.5827,0.5846,0.5825,0.5096,0.4974,0.5762,0.5821,0.6115,0.6936,0.7538,0.7996,0.8237,0.8616,0.8945,0.9176,0.9183,0.8991,0.8581,0.8447,0.8046,0.7498,0.6997,0.6732,0.6623,0.5828,0.5487,0.5433,0.4787,0.4842,0.5378,0.5378,0.5433,0.5597,0.6312,0.702,0.7538,0.7139,0.6941,0.6855,0.6603,0.7541,0.8898,0.9115,0.9863,1.0618,1.064,1.0142,0.9779,1.0611,1.0636,1.0646,1.1805,1.2402,1.3024,1.4073,0.0,1.4737,1.6083,0.0,1.5565,1.6193,0.0,0.0,1.5016,1.5059,1.5059,1.5059,1.5835,1.6107,1.5478,1.5791,1.6105,1.6056,1.5303,1.4524,1.3743,1.2364,1.1296,1.0524,0.9563,0.9008,0.9008,0.9008,0.9008,0.891,0.891,0.8857,0.8804,0.8804,0.8804,0.8804,0.8804,0.8804,0.8804,0.8804,0.8804,0.8804,0.8804,0.8804,0.8804,0.8804,0.8804,0.8804,0.8804,0.8804,0.8804,0.5539,0.5712,0.5926,0.6487,0.6934,0.6894,0.6217,0.5659,0.5129,0.4464,0.4025,0.339,0.2305,0.2306,0.2491,0.2855,0.335,0.4243,0.5557,0.5902,0.6492,0.7512,0.802,0.8318,0.8435,0.8349,0.8288,0.8264,0.7616,0.7007,0.6522,0.617,0.5764,0.5391,0.5058,0.4893,0.4948,0.5058,0.5218,0.5542,0.5982,0.6416,0.6794,0.7128,0.745,0.7628,0.6963,0.6719,0.6638,0.6072,0.6725,0.7758,0.7568,0.8161,0.8931,0.9082,0.8807,0.8613,0.9,0.8862,0.9076,1.067,1.1131,1.1644,1.3151,1.3485,1.3846,1.4972,0.0,0.0,0.0,0.0,0.0,0.0,1.4892,1.4704,1.4704,1.5144,1.5479,1.5381,1.5791,1.5957,1.5703,1.5361,1.4697,1.3702,1.2694,1.1598,1.0384,0.9493,0.8978,0.8811,0.8804,0.8804,0.8804,0.8804,0.8804,0.8804,0.8804,0.8804,0.8804,0.8804,0.8804,0.8804,0.8804,0.8804,0.8804,0.8804,0.8804,0.8804,0.8804,0.8804,0.8804,0.8804,0.8804,0.8857,0.6019,0.6318,0.6572,0.7183,0.7544,0.733,0.5952,0.4887,0.3907,0.2826,0.1951,0.0891,-0.05,-0.0313,0.0,0.025,0.1067,0.2187,0.3643,0.4384,0.5308,0.6471,0.728,0.7681,0.7733,0.7561,0.7527,0.7537,0.6694,0.6091,0.5661,0.5361,0.4948,0.4519,0.4519,0.4519,0.4519,0.5218,0.5597,0.5869,0.6583,0.7343,0.7996,0.7996,0.7996,0.7883,0.6912,0.675,0.6756,0.5931,0.6272,0.7011,0.6698,0.7077,0.77,0.7812,0.7693,0.7614,0.7866,0.7762,0.8019,0.9712,1.0219,1.0664,1.2185,1.2679,1.304,1.3933,1.4227,0.0,0.0,0.0,1.5321,1.5403,0.0,1.4637,1.444,1.4582,1.484,1.5176,1.5625,1.5713,1.5283,1.5244,1.4697,1.3367,1.2821,1.1896,1.0333,0.9597,0.909,0.8931,0.8844,0.8804,0.8804,0.8804,0.8804,0.8804,0.8804,0.8804,0.8804,0.8804,0.8804,0.8804,0.8804,0.8804,0.8804,0.8804,0.8804,0.8804,0.8804,0.8804,0.8804,0.8804,0.8804,0.891,0.6044,0.6318,0.6383,0.6253,0.7227,0.7347,0.542,0.3759,0.2286,0.1276,-0.0196,-0.1196,-0.1262,-0.2064,-0.2199,-0.1328,-0.0466,0.0394,0.1148,0.35,0.4971,0.5154,0.6423,0.7166,0.7339,0.7062,0.6559,0.5887,0.5635,0.5254,0.4745,0.4591,0.4515,0.4519,0.4519,0.4519,0.4519,0.5218,0.5928,0.6642,0.7343,0.8103,0.8752,0.8752,0.8752,0.8586,0.7128,0.7074,0.749,0.637,0.6502,0.7125,0.741,0.7567,0.7701,0.756,0.6988,0.6643,0.7504,0.7527,0.7647,0.9012,0.9706,1.0349,1.1175,1.1894,1.2664,1.3645,1.4345,1.5147,1.6218,1.6129,1.5935,1.6154,1.5762,0.0,0.0,1.4422,1.4533,1.4808,1.5176,1.5264,1.4844,1.4805,1.4166,1.2539,1.2539,1.1878,1.0208,0.9546,0.9183,0.917,0.8958,0.8804,0.8804,0.8804,0.8804,0.8804,0.8804,0.8804,0.8804,0.8804,0.8804,0.8804,0.8804,0.8804,0.8804,0.8804,0.8804,0.8804,0.8804,0.8804,0.8804,0.8804,0.8804,0.891,0.5772,0.6269,0.6754,0.7269,0.7242,0.6258,0.3786,0.1882,0.0195,-0.1243,-0.2384,-0.3338,-0.3941,-0.3744,-0.3409,-0.3139,-0.1737,-0.0532,0.0329,0.1711,0.2832,0.3488,0.4855,0.5651,0.5713,0.6036,0.6054,0.5772,0.5143,0.4761,0.4594,0.4974,0.5164,0.5164,0.5164,0.5437,0.5878,0.615,0.6778,0.7699,0.8422,0.8756,0.8804,0.8804,0.848,0.7996,0.7503,0.7182,0.6815,0.5945,0.5857,0.6008,0.5752,0.5675,0.5735,0.5796,0.5616,0.5601,0.6384,0.6419,0.6714,0.8494,0.8926,0.9163,1.0253,1.0887,1.1603,1.277,1.3513,1.4497,1.6172,1.6481,1.6532,1.6577,1.6244,1.5449,0.0,1.3387,1.3513,1.4429,1.4566,1.4629,1.4775,1.4326,1.3678,1.287,1.2337,1.1518,1.0188,0.9746,0.9446,0.919,0.8958,0.8804,0.8804,0.8804,0.8804,0.8804,0.8804,0.8804,0.8804,0.8804,0.8804,0.8804,0.8804,0.8804,0.8804,0.8804,0.8804,0.8804,0.8804,0.8804,0.8804,0.8804,0.9061,0.9614,0.5456,0.5931,0.6375,0.6819,0.5661,0.4038,0.1988,0.0131,-0.1571,-0.2992,-0.3941,-0.4755,-0.5359,-0.4888,-0.435,-0.4015,-0.2678,-0.1405,-0.0535,0.0669,0.1541,0.2143,0.374,0.4589,0.4541,0.5172,0.5494,0.5431,0.4872,0.457,0.4519,0.4948,0.5273,0.5487,0.5487,0.5928,0.6647,0.7002,0.7516,0.8086,0.8751,0.881,0.8427,0.8427,0.8103,0.7616,0.7122,0.6632,0.6095,0.5382,0.5164,0.5077,0.4745,0.4646,0.4701,0.4745,0.497,0.5307,0.5774,0.6267,0.6994,0.8317,0.8721,0.9029,1.0155,1.0777,1.1414,1.2567,1.3414,1.4458,1.5794,1.6385,1.6569,1.6262,1.5931,1.5029,0.0,1.2894,1.3122,1.3809,1.3899,1.3955,1.4062,1.3635,1.3006,1.2249,1.1943,1.1381,1.0342,0.99,0.9593,0.9406,0.9011,0.8804,0.8804,0.8804,0.8804,0.8804,0.8804,0.8804,0.8804,0.8804,0.8804,0.8804,0.8804,0.8804,0.8804,0.8804,0.8804,0.8804,0.8804,0.8804,0.8804,0.8804,0.9361,1.0312,0.5131,0.5195,0.5124,0.4781,0.2827,0.1005,0.0067,-0.1538,-0.2945,-0.3813,-0.4688,-0.5292,-0.5292,-0.5292,-0.4891,-0.4015,-0.3145,-0.2275,-0.134,0.0268,0.1274,0.1273,0.3011,0.3899,0.3791,0.4683,0.4992,0.4711,0.4697,0.4616,0.4529,0.4522,0.4893,0.5542,0.555,0.5996,0.6781,0.7795,0.8043,0.7872,0.8579,0.8406,0.7741,0.7676,0.7616,0.7396,0.5977,0.5487,0.5378,0.4736,0.4519,0.4519,0.4519,0.4562,0.465,0.456,0.5121,0.5813,0.5874,0.7007,0.8208,0.8399,0.9105,0.9921,1.0706,1.1416,1.2121,1.2887,1.3986,1.481,1.5133,1.5844,1.6102,1.5279,1.4814,1.4076,1.2555,1.302,1.3338,1.2988,1.3241,1.3299,1.2832,1.2825,1.2206,1.0838,1.1361,1.1413,1.0624,1.0,0.9686,0.9686,0.9112,0.8804,0.8804,0.8804,0.8804,0.8804,0.8804,0.8804,0.8804,0.8804,0.8804,0.8804,0.8804,0.8804,0.8804,0.8804,0.8804,0.8804,0.8804,0.8804,0.8804,0.8857,0.9666,1.0864,0.5131,0.4204,0.3119,0.2387,0.1713,0.0809,-0.0757,-0.1357,-0.2009,-0.2945,-0.3211,-0.3413,-0.3413,-0.3413,-0.328,-0.3078,-0.221,-0.1541,-0.134,-0.0269,0.0605,0.1273,0.241,0.3334,0.3906,0.4733,0.5094,0.5016,0.4799,0.467,0.4629,0.5064,0.5601,0.6317,0.6587,0.7388,0.8533,0.8516,0.8767,0.9225,0.9396,0.8927,0.7987,0.7193,0.6524,0.6032,0.5651,0.5164,0.4732,0.457,0.4519,0.4519,0.4519,0.4543,0.4622,0.5124,0.5415,0.5835,0.6942,0.7492,0.7997,0.882,0.9391,0.9868,1.0327,1.1186,1.1997,1.2536,1.328,1.4027,1.4705,1.5039,1.4985,1.4487,1.369,1.3138,1.3235,1.3241,1.3315,1.3532,1.3277,1.3004,1.2885,1.1906,1.1341,1.148,1.1133,1.0807,1.0624,1.0,0.9686,0.9686,0.9112,0.8804,0.8804,0.8804,0.8804,0.8804,0.8804,0.8804,0.8804,0.8804,0.8804,0.8804,0.8804,0.8804,0.8804,0.8804,0.8804,0.8804,0.8804,0.8804,0.8857,0.9361,0.9762,1.0218,0.4058,0.2966,0.1934,0.1398,0.1001,0.028,-0.1064,-0.132,-0.1638,-0.2591,-0.2727,-0.2713,-0.2681,-0.2667,-0.2556,-0.2116,-0.1638,-0.0956,-0.0205,0.027,0.094,0.1876,0.2811,0.3678,0.4538,0.5387,0.5954,0.6249,0.5972,0.5793,0.5772,0.5912,0.6367,0.7085,0.7433,0.8161,0.9203,0.9087,0.9395,0.986,0.9311,0.857,0.0,0.6607,0.5729,0.5058,0.5058,0.4842,0.4519,0.4519,0.4519,0.4519,0.4519,0.4519,0.4625,0.5324,0.5706,0.6253,0.7396,0.7943,0.83,0.8897,0.9185,0.9544,1.0232,1.1044,1.1841,1.24,1.2958,1.3255,1.3062,1.3103,1.3061,1.2603,1.2674,1.2713,1.253,1.2683,1.2753,1.2699,1.2235,1.1909,1.1751,1.1097,1.0718,1.0651,1.0519,1.0367,1.0367,0.9933,0.9686,0.9686,0.9112,0.8804,0.8804,0.8804,0.8804,0.8804,0.8804,0.8804,0.8804,0.8804,0.8804,0.8804,0.8804,0.8804,0.8804,0.8804,0.8804,0.8804,0.8804,0.8804,0.8857,0.9562,0.9814,1.0012,0.2536,0.1874,0.1257,0.1134,0.0523,-0.0221,-0.1028,-0.1146,-0.1404,-0.2245,-0.2315,-0.2364,-0.2375,-0.2331,-0.2015,-0.1196,-0.1124,-0.0421,0.1264,0.1301,0.1752,0.2827,0.362,0.4475,0.5456,0.6252,0.7021,0.7726,0.7502,0.7282,0.7125,0.6789,0.7068,0.7782,0.8102,0.8658,0.9369,0.9447,0.9695,0.9903,0.8753,0.7752,0.6942,0.6107,0.53,0.4546,0.4546,0.4536,0.4519,0.4519,0.4519,0.4519,0.4625,0.4625,0.4787,0.5542,0.6253,0.6912,0.767,0.8315,0.8804,0.8804,0.8857,0.9182,1.018,1.0929,1.1555,1.2157,1.2582,1.2334,1.0877,1.0808,1.078,1.0374,1.1682,1.2382,1.1256,1.1846,1.2102,1.1182,1.0885,0.0,1.0071,1.0362,1.0222,0.9319,0.9806,1.01,1.006,0.9786,0.9626,0.9626,0.9092,0.8804,0.8804,0.8804,0.8804,0.8804,0.8804,0.8804,0.8804,0.8804,0.8804,0.8804,0.8804,0.8804,0.8804,0.8804,0.8804,0.8804,0.8804,0.8857,0.9008,0.9562,0.9865,1.0115,0.1707,0.1445,0.1085,0.039,0.0078,-0.0078,-0.0233,-0.0224,-0.0289,-0.0434,-0.0506,-0.0505,-0.0503,-0.0507,-0.0436,-0.0217,-0.0217,0.0289,0.1444,0.1408,0.208,0.388,0.3999,0.474,0.6388,0.6584,0.7093,0.7965,0.7731,0.7507,0.7288,0.7074,0.7421,0.8108,0.8425,0.9207,1.0265,0.8908,0.877,0.9307,0.8161,0.7178,0.6454,0.6121,0.5424,0.465,0.465,0.4568,0.4519,0.4519,0.4519,0.457,0.5164,0.5324,0.5597,0.6902,0.7396,0.767,0.8427,0.8699,0.8804,0.8804,0.9211,0.9681,0.9888,1.0458,1.0963,1.1065,1.1175,1.0837,0.9707,0.9262,0.9098,0.912,1.0504,1.1426,1.0977,1.1871,1.1953,1.0258,1.0563,1.0264,0.8689,0.9538,1.0032,0.9626,0.9927,1.0013,0.9773,0.9479,0.9263,0.9263,0.8985,0.8804,0.8804,0.8804,0.8804,0.8804,0.8804,0.8804,0.8804,0.8804,0.8804,0.8804,0.8804,0.8804,0.8804,0.8804,0.8804,0.8804,0.8804,0.9159,0.9666,0.9762,1.0167,1.0762,0.0703,0.0634,0.048,0.008,0.0,0.0157,0.0706,0.0846,0.0603,0.0074,0.0,0.0,0.0,0.0,0.0,0.0,0.0,0.0446,0.1409,0.1358,0.2163,0.4047,0.4009,0.4872,0.6654,0.6719,0.7111,0.8027,0.8169,0.7992,0.74,0.7651,0.7723,0.7623,0.7914,0.8466,0.9192,0.835,0.8221,0.8538,0.7521,0.6786,0.6312,0.5732,0.5236,0.4809,0.4809,0.4762,0.4674,0.457,0.4519,0.4625,0.5269,0.5487,0.581,0.7283,0.7723,0.7883,0.8586,0.8804,0.8804,0.8804,0.9061,0.9263,0.9263,0.9814,1.0261,1.0261,1.0261,0.9948,0.8741,0.8241,0.8167,0.852,0.974,1.059,1.0336,1.0777,1.0689,0.9622,0.9959,0.9826,0.8616,0.9374,0.9766,0.9479,0.9586,0.9666,0.9686,0.9406,0.9183,0.9183,0.8958,0.8804,0.8804,0.8804,0.8804,0.8804,0.8804,0.8731,0.8584,0.8584,0.8584,0.8584,0.8584,0.8664,0.8804,0.8804,0.8804,0.8857,0.9159,0.951,0.9865,1.0568,1.1065,1.1366,0.0,0.0163,0.0327,0.0323,0.0556,0.0941,0.1802,0.1958,0.1633,0.0764,0.0457,0.0303,0.0371,0.0153,0.0,0.0,0.0,0.0381,0.1294,0.1313,0.2054,0.3729,0.3769,0.4445,0.6106,0.6338,0.6798,0.769,0.8301,0.8229,0.7499,0.799,0.7844,0.72,0.7288,0.7604,0.7962,0.7572,0.7572,0.7632,0.6789,0.6314,0.6129,0.5435,0.5091,0.4965,0.4965,0.4945,0.488,0.4643,0.4594,0.4668,0.5504,0.576,0.6032,0.7503,0.7943,0.8049,0.8646,0.8804,0.8752,0.8586,0.8699,0.8752,0.8586,0.9106,0.9562,0.9562,0.934,0.8844,0.8034,0.7583,0.7523,0.8207,0.9231,0.9826,0.9539,0.9552,0.9422,0.8958,0.924,0.9256,0.8632,0.9114,0.9426,0.9196,0.9183,0.9312,0.9492,0.9279,0.909,0.909,0.8925,0.8804,0.8804,0.8804,0.8778,0.8711,0.8711,0.8564,0.8277,0.8277,0.8317,0.8427,0.8427,0.8537,0.8804,0.8804,0.8804,0.8857,0.9562,0.9865,1.0167,1.1366,1.1913,1.203,0.0,0.0743,0.1486,0.1426,0.2193,0.2812,0.2968,0.2968,0.2887,0.2803,0.2027,0.1483,0.148,0.0548,0.0,0.0,0.0,0.0469,0.1484,0.1371,0.1781,0.2969,0.2891,0.3259,0.4211,0.5055,0.5848,0.6726,0.7625,0.7889,0.7504,0.7546,0.7531,0.7422,0.6994,0.7223,0.7897,0.6338,0.6075,0.6719,0.5881,0.5484,0.547,0.5404,0.5243,0.5111,0.5111,0.503,0.4914,0.4887,0.4782,0.4873,0.6101,0.648,0.6799,0.8262,0.8699,0.8699,0.8758,0.8804,0.8646,0.7996,0.8315,0.8646,0.7937,0.8368,0.891,0.891,0.7824,0.7084,0.7762,0.7262,0.6989,0.7807,0.8727,0.9163,0.8931,0.9112,0.889,0.7955,0.8438,0.8598,0.7889,0.8472,0.8985,0.9163,0.9183,0.9084,0.8905,0.8864,0.8844,0.8844,0.8824,0.8804,0.8804,0.8804,0.8671,0.8417,0.8417,0.8257,0.7922,0.7922,0.8116,0.8427,0.8427,0.8537,0.8804,0.8804,0.8804,0.8857,0.9562,1.0167,1.0813,1.1516,1.2236,1.2715,0.0977,0.1797,0.253,0.2484,0.284,0.3279,0.3984,0.4062,0.4295,0.4924,0.3051,0.1333,0.0706,0.0235,0.0,0.0,0.0,0.0157,0.0628,0.0537,0.0978,0.1934,0.1886,0.2285,0.3207,0.3596,0.4191,0.5061,0.5958,0.632,0.6234,0.6859,0.6905,0.6475,0.6177,0.6233,0.6495,0.5729,0.5624,0.5881,0.5557,0.5428,0.5428,0.5428,0.5321,0.527,0.527,0.5233,0.5233,0.5638,0.5603,0.553,0.6473,0.7023,0.7396,0.7943,0.8156,0.8049,0.7616,0.7503,0.7509,0.767,0.7937,0.8156,0.8321,0.8593,0.8804,0.8804,0.799,0.7484,0.8292,0.7972,0.777,0.8323,0.8844,0.9084,0.8844,0.8911,0.8824,0.8387,0.8646,0.8699,0.8374,0.8646,0.8851,0.8971,0.909,0.9036,0.8577,0.8877,0.8786,0.8276,0.8618,0.8724,0.855,0.855,0.8404,0.811,0.811,0.7949,0.7649,0.7649,0.7816,0.813,0.8484,0.8697,0.8804,0.8804,0.9061,0.9465,1.0167,1.0813,1.1466,1.2197,1.2344,1.2187,0.2027,0.2835,0.3553,0.3607,0.387,0.4295,0.5079,0.5157,0.5315,0.5786,0.3597,0.1722,0.1019,0.0392,0.0,0.0,0.0,0.0,0.0,0.0,0.0305,0.0907,0.0891,0.125,0.191,0.2187,0.2743,0.3641,0.4523,0.5158,0.5559,0.6279,0.6324,0.5793,0.5654,0.5589,0.5579,0.5426,0.5428,0.5428,0.5428,0.5428,0.5428,0.5428,0.5428,0.5428,0.5428,0.5428,0.5474,0.594,0.6195,0.6438,0.7063,0.7533,0.7823,0.7747,0.7723,0.7557,0.6804,0.6588,0.675,0.7235,0.7557,0.783,0.8374,0.8646,0.8752,0.8533,0.7883,0.7616,0.8321,0.8094,0.799,0.8679,0.8978,0.9038,0.8838,0.8593,0.848,0.848,0.8262,0.8156,0.8156,0.8156,0.8156,0.8156,0.8404,0.849,0.8189,0.8614,0.8515,0.7871,0.8394,0.8577,0.8377,0.829,0.809,0.7796,0.7796,0.7635,0.7341,0.7522,0.7722,0.7915,0.855,0.8804,0.8804,0.9008,0.9361,0.9865,1.0762,1.1366,1.1864,1.2393,1.2236,1.1765,0.3075,0.3966,0.4661,0.4709,0.555,0.6261,0.6261,0.6261,0.5944,0.4844,0.3748,0.3046,0.3046,0.1253,0.0,0.0,0.0,0.0,0.0,0.0,0.0,0.0,0.0,0.0,0.0,0.0884,0.1839,0.294,0.3821,0.4787,0.5796,0.58,0.58,0.5793,0.5654,0.5589,0.5579,0.5426,0.5428,0.5428,0.5428,0.5428,0.5428,0.5428,0.5428,0.5428,0.5428,0.5428,0.5428,0.5425,0.6342,0.7542,0.804,0.8167,0.8114,0.78,0.7723,0.7557,0.6804,0.6588,0.6588,0.6588,0.7182,0.7723,0.7723,0.8262,0.8593,0.7883,0.7128,0.6858,0.7557,0.7133,0.7079,0.854,0.8811,0.8811,0.8804,0.8156,0.7723,0.7723,0.7074,0.6642,0.6642,0.6642,0.6642,0.6642,0.6961,0.7271,0.7693,0.7848,0.7865,0.7681,0.8165,0.8377,0.8427,0.8083,0.7782,0.752,0.752,0.7315,0.7005,0.7603,0.7882,0.7915,0.855,0.8804,0.8857,0.951,0.9814,0.9909,1.1266,1.1814,1.1814,1.1814,1.1814,1.1616,0.4187,0.5059,0.5761,0.5796,0.6103,0.6338,0.6338,0.6338,0.618,0.5867,0.4844,0.3904,0.3202,0.1253,0.0,0.0,0.0,0.0,0.0,0.0,0.0,0.0,0.0,0.0,0.0,0.1,0.1981,0.2868,0.3887,0.491,0.5959,0.5959,0.6013,0.6105,0.5847,0.5735,0.5718,0.5467,0.5428,0.5428,0.5428,0.5428,0.5428,0.5428,0.5428,0.5428,0.5428,0.5428,0.5491,0.6075,0.701,0.7805,0.7756,0.7921,0.8093,0.7449,0.6754,0.6032,0.5336,0.5171,0.5391,0.6372,0.675,0.7235,0.8209,0.8262,0.783,0.7128,0.675,0.6804,0.7563,0.7503,0.767,0.8646,0.8804,0.8646,0.8103,0.7433,0.6763,0.6269,0.5554,0.5283,0.5783,0.5842,0.6067,0.6583,0.6342,0.6256,0.6417,0.7493,0.784,0.72,0.7988,0.8277,0.8076,0.7769,0.7462,0.7161,0.7161,0.7221,0.7335,0.7528,0.7842,0.8243,0.843,0.8624,0.8804,0.9008,0.9361,0.9865,1.0269,1.1015,1.1765,1.1266,1.1116,1.1015,0.5315,0.5867,0.6338,0.6338,0.6338,0.6338,0.6338,0.6338,0.6338,0.6338,0.5392,0.4453,0.3748,0.1878,0.0471,0.0,0.0,0.0,0.0,0.0,0.0,0.0,0.0392,0.0628,0.0628,0.1644,0.264,0.3593,0.466,0.55,0.6115,0.6115,0.6169,0.6247,0.5939,0.58,0.5783,0.5488,0.5428,0.5428,0.5428,0.5428,0.5428,0.5752,0.5686,0.5428,0.5752,0.5686,0.5491,0.6009,0.6985,0.7936,0.735,0.7563,0.7824,0.6902,0.614,0.5524,0.5022,0.4897,0.5222,0.6637,0.702,0.7235,0.8156,0.783,0.7074,0.6367,0.6204,0.6308,0.6794,0.7122,0.7509,0.8268,0.8374,0.815,0.7379,0.6152,0.5101,0.4334,0.3627,0.3356,0.3796,0.4358,0.4867,0.5378,0.5322,0.5442,0.5667,0.6977,0.7511,0.7051,0.7827,0.8063,0.7762,0.7448,0.7208,0.7021,0.7134,0.7348,0.7642,0.7802,0.8064,0.8383,0.849,0.8644,0.8804,0.9061,0.9413,0.9865,1.0364,1.1065,1.1715,1.1065,1.0813,1.0669,0.6338,0.6338,0.6338,0.6338,0.6338,0.6338,0.6338,0.6338,0.6338,0.6338,0.5392,0.4766,0.4688,0.2973,0.1411,0.0314,0.0079,0.0,0.0,0.0079,0.0079,0.0079,0.1097,0.1724,0.1724,0.2657,0.3748,0.4844,0.5786,0.6338,0.6338,0.6338,0.6338,0.6247,0.5949,0.5817,0.5796,0.5511,0.5452,0.5446,0.5446,0.5435,0.5554,0.6396,0.6203,0.5624,0.6396,0.6137,0.5428,0.5428,0.6535,0.7832,0.6981,0.7172,0.7491,0.6186,0.578,0.5673,0.5538,0.5487,0.5869,0.7337,0.7723,0.767,0.7557,0.702,0.6312,0.5597,0.5433,0.5433,0.5487,0.6091,0.6858,0.7563,0.7723,0.7439,0.6651,0.4606,0.2909,0.2143,0.1381,0.0943,0.0998,0.2336,0.3289,0.34,0.4122,0.4842,0.5542,0.6435,0.7083,0.7331,0.772,0.7822,0.7574,0.7235,0.7038,0.7045,0.7368,0.7662,0.7922,0.823,0.837,0.8417,0.8671,0.8791,0.8857,0.9458,0.971,0.9865,1.1166,1.1665,1.1665,1.0965,1.0762,1.0618,0.6338,0.6338,0.6338,0.6338,0.6338,0.6338,0.6338,0.6338,0.6338,0.6338,0.6103,0.5628,0.4766,0.4297,0.3517,0.2423,0.094,0.0,0.0,0.0784,0.1254,0.1254,0.219,0.2735,0.2735,0.375,0.4844,0.5944,0.618,0.6338,0.6338,0.6338,0.6338,0.6251,0.6061,0.5976,0.5962,0.5776,0.5633,0.5535,0.5535,0.5862,0.6396,0.6654,0.6588,0.6396,0.6654,0.6137,0.5428,0.5428,0.6535,0.7832,0.6981,0.727,0.7668,0.6444,0.5534,0.5056,0.5376,0.5487,0.5869,0.7337,0.7723,0.7396,0.6303,0.5869,0.5546,0.4897,0.4732,0.4893,0.5433,0.6091,0.6858,0.7563,0.7723,0.7272,0.5936,0.3839,0.198,0.0665,-0.0111,-0.0334,0.0222,0.1614,0.2732,0.3345,0.4556,0.5601,0.6312,0.7068,0.7538,0.7582,0.8056,0.8237,0.8212,0.7862,0.7669,0.7669,0.7789,0.7976,0.8263,0.811,0.8277,0.8697,0.8544,0.8604,0.8804,0.8956,0.9061,0.9106,0.9969,1.0568,1.0965,1.0261,1.0364,1.0618,0.6352,0.6369,0.6441,0.6369,0.6417,0.6461,0.6461,0.6461,0.6437,0.6366,0.6359,0.6172,0.5479,0.5002,0.4453,0.3904,0.2345,0.1409,0.1409,0.1956,0.2268,0.2268,0.3281,0.3826,0.3826,0.4844,0.5709,0.6338,0.6338,0.6338,0.6338,0.6338,0.6338,0.6254,0.6098,0.603,0.602,0.5867,0.5755,0.5681,0.5616,0.6119,0.6967,0.6814,0.6852,0.6852,0.6785,0.6207,0.5491,0.5881,0.6854,0.7897,0.7437,0.7892,0.8286,0.675,0.5566,0.4935,0.5502,0.583,0.6253,0.7396,0.7176,0.6406,0.5257,0.4769,0.4333,0.3619,0.3456,0.3674,0.4388,0.5097,0.586,0.6573,0.6401,0.5671,0.4226,0.2366,0.0664,-0.0834,-0.106,-0.0949,-0.0557,0.1114,0.2397,0.2843,0.4494,0.5814,0.6588,0.7289,0.7776,0.8028,0.8247,0.831,0.8176,0.8009,0.7996,0.8136,0.8136,0.829,0.8564,0.8404,0.8504,0.8798,0.8644,0.8664,0.8804,0.8804,0.8804,0.8844,0.9409,0.9933,1.0297,0.9794,0.9933,1.021,0.6346,0.6529,0.6661,0.6529,0.6614,0.6702,0.6702,0.6702,0.6654,0.6522,0.6485,0.6427,0.6305,0.5482,0.4921,0.4921,0.4139,0.3435,0.3124,0.3279,0.3357,0.3357,0.4373,0.4921,0.4921,0.5864,0.6338,0.6338,0.6338,0.6338,0.6338,0.6338,0.6338,0.6254,0.6125,0.6064,0.6057,0.5925,0.5857,0.5827,0.5705,0.6409,0.7473,0.7108,0.7121,0.7254,0.7018,0.6237,0.5522,0.6276,0.7111,0.7832,0.7832,0.8291,0.8575,0.6917,0.5744,0.5032,0.5657,0.6197,0.675,0.723,0.6357,0.5152,0.4429,0.3724,0.301,0.2343,0.2174,0.2397,0.301,0.3718,0.4488,0.5242,0.4721,0.3817,0.2548,0.0999,-0.0501,-0.1896,-0.1507,-0.1062,-0.0949,0.0947,0.2232,0.2399,0.4436,0.5928,0.6588,0.7396,0.805,0.845,0.8437,0.8317,0.8014,0.8014,0.819,0.8437,0.8437,0.8571,0.8804,0.8804,0.8804,0.8804,0.8804,0.8804,0.8804,0.8804,0.8804,0.883,0.9271,0.9625,0.9784,0.9557,0.9625,0.9718,0.661,0.6668,0.6695,0.6668,0.6685,0.6702,0.6702,0.6702,0.6692,0.6668,0.6552,0.6464,0.6441,0.625,0.6025,0.6025,0.5867,0.5002,0.3202,0.3982,0.4453,0.4453,0.5473,0.6025,0.6025,0.6183,0.6338,0.6338,0.6338,0.6338,0.6338,0.6338,0.6338,0.6335,0.6237,0.6224,0.6224,0.62,0.6115,0.5993,0.5969,0.6901,0.8272,0.7398,0.7597,0.8269,0.7267,0.6314,0.5603,0.5603,0.6207,0.6915,0.6915,0.6981,0.7037,0.675,0.5913,0.5161,0.5689,0.6197,0.6475,0.5977,0.5198,0.4375,0.3727,0.2952,0.2343,0.2232,0.2174,0.2232,0.2343,0.2996,0.3796,0.4656,0.4058,0.3405,0.333,0.141,-0.0334,-0.1173,-0.1174,-0.0837,-0.0223,0.1281,0.251,0.3178,0.521,0.6475,0.6588,0.7883,0.8679,0.8744,0.8738,0.8717,0.8671,0.8671,0.8697,0.8738,0.8738,0.8764,0.8804,0.8804,0.8804,0.8804,0.8804,0.8804,0.8804,0.8804,0.8804,0.885,0.9511,0.9769,0.9806,0.9761,0.9769,0.9718,0.7577,0.7148,0.6787,0.6817,0.6888,0.6939,0.6939,0.6939,0.6878,0.6722,0.6637,0.6563,0.6481,0.6346,0.6291,0.6369,0.6305,0.5867,0.4921,0.5315,0.555,0.555,0.6025,0.6338,0.6338,0.6338,0.6338,0.6338,0.6338,0.6338,0.6338,0.6338,0.6338,0.6338,0.6338,0.6338,0.6338,0.6338,0.622,0.6146,0.6064,0.6845,0.8024,0.6903,0.7155,0.7857,0.6773,0.6072,0.5648,0.6041,0.641,0.6785,0.7242,0.7372,0.7307,0.685,0.589,0.5088,0.5673,0.5638,0.5386,0.4984,0.4378,0.35,0.2397,0.1898,0.1507,0.1118,0.1006,0.1118,0.1507,0.1866,0.2395,0.3241,0.2679,0.1995,0.1646,0.0674,-0.0279,-0.1006,-0.0391,0.0223,0.0558,0.195,0.3118,0.3886,0.5592,0.675,0.7182,0.8209,0.8804,0.8804,0.8804,0.8804,0.8804,0.8804,0.8804,0.8804,0.8804,0.8804,0.8804,0.8804,0.8804,0.8804,0.8804,0.8804,0.8804,0.8804,0.8804,0.8791,0.8978,0.9116,0.9242,0.9073,0.9123,0.9211,0.8101,0.7443,0.6926,0.697,0.7068,0.7139,0.7139,0.7139,0.7058,0.6831,0.6773,0.6709,0.659,0.6417,0.6356,0.6464,0.6342,0.6338,0.6338,0.6338,0.6338,0.6338,0.6338,0.6338,0.6338,0.6338,0.6338,0.6338,0.6338,0.6338,0.6338,0.6338,0.6338,0.6338,0.6338,0.6338,0.6338,0.6338,0.6338,0.6251,0.6132,0.6753,0.7693,0.65,0.6675,0.7405,0.641,0.5861,0.5773,0.6413,0.6479,0.6527,0.7181,0.7377,0.7246,0.6593,0.5736,0.5057,0.5483,0.5053,0.4457,0.4216,0.3611,0.273,0.1396,0.095,0.0671,0.0112,0.0,0.0168,0.0727,0.0857,0.1097,0.1869,0.132,0.0692,0.0339,0.0112,-0.0168,-0.0559,0.0391,0.1229,0.1563,0.2783,0.3886,0.4594,0.6027,0.7128,0.767,0.8374,0.8804,0.8804,0.8804,0.8804,0.8804,0.8804,0.8804,0.8804,0.8804,0.8804,0.8804,0.8804,0.8804,0.8804,0.8804,0.8804,0.8804,0.8804,0.8804,0.8784,0.8564,0.8611,0.8784,0.8557,0.8617,0.8804,0.7313,0.7112,0.7119,0.7126,0.7132,0.7139,0.7139,0.7139,0.7132,0.7109,0.6993,0.6909,0.6898,0.663,0.6461,0.6471,0.6342,0.6338,0.6338,0.6338,0.6338,0.6338,0.6338,0.6338,0.6338,0.6338,0.6338,0.6338,0.6338,0.6338,0.6338,0.6338,0.6338,0.6338,0.6338,0.6338,0.6338,0.6338,0.6338,0.6335,0.6247,0.6857,0.7706,0.663,0.693,0.7584,0.645,0.5925,0.5766,0.5703,0.562,0.5491,0.5557,0.5624,0.5557,0.5491,0.5308,0.5084,0.5003,0.4745,0.4349,0.3622,0.2899,0.2063,0.1284,0.056,0.0056,0.0,0.0,0.0,0.0056,0.0056,0.0341,0.1224,0.0629,0.0341,0.1107,0.0514,0.0224,0.0838,0.1062,0.1619,0.301,0.3828,0.4648,0.5374,0.6794,0.7616,0.7723,0.8374,0.8804,0.8804,0.8804,0.8804,0.8804,0.8804,0.8804,0.8804,0.8804,0.8804,0.8804,0.8804,0.8804,0.8804,0.8804,0.8804,0.8804,0.8804,0.8804,0.8804,0.8784,0.8791,0.8804,0.8784,0.8791,0.8804,0.8173,0.749,0.6993,0.7119,0.7139,0.7139,0.7139,0.7139,0.7109,0.7021,0.6963,0.6929,0.6929,0.6742,0.6651,0.6749,0.6532,0.639,0.639,0.6312,0.6338,0.6338,0.6338,0.6338,0.6338,0.6338,0.6338,0.6338,0.6338,0.6338,0.6338,0.6338,0.6338,0.6338,0.6338,0.6338,0.6338,0.6338,0.6338,0.6338,0.6338,0.6567,0.6795,0.6412,0.6567,0.6788,0.6346,0.6074,0.5922,0.5772,0.5623,0.5488,0.5459,0.5428,0.5428,0.5428,0.525,0.5098,0.4958,0.4765,0.4292,0.297,0.2452,0.1898,0.0671,0.0224,0.0,0.0,0.0,0.0,0.0,0.0,0.0115,0.0457,0.023,0.0288,0.1084,0.0902,0.095,0.1675,0.2174,0.2676,0.3231,0.4385,0.537,0.6145,0.7122,0.7889,0.8374,0.8646,0.8804,0.8804,0.8804,0.8804,0.8804,0.8804,0.8804,0.8804,0.8804,0.8804,0.8804,0.8804,0.8804,0.8804,0.8804,0.8804,0.8804,0.8804,0.8804,0.8804,0.8804,0.8804,0.8804,0.8804,0.8804,0.8804,0.8259,0.7468,0.6976,0.7115,0.7139,0.7139,0.7139,0.7139,0.7105,0.7007,0.6997,0.6997,0.6997,0.6861,0.6814,0.6919,0.6651,0.6491,0.6539,0.641,0.6308,0.6342,0.6338,0.6338,0.6338,0.6338,0.6338,0.6338,0.6338,0.6338,0.6338,0.6338,0.6338,0.6338,0.6338,0.6338,0.6338,0.6338,0.6338,0.6338,0.6338,0.6338,0.6338,0.6338,0.6338,0.6338,0.6338,0.6162,0.6006,0.585,0.5708,0.5562,0.541,0.5428,0.5428,0.5428,0.5287,0.5162,0.4969,0.4843,0.4419,0.2932,0.2565,0.2232,0.095,0.0504,0.0336,0.0336,0.0168,0.0,0.0,0.0,0.0058,0.0281,0.0343,0.0574,0.1345,0.1452,0.173,0.2454,0.301,0.3508,0.3947,0.5101,0.6145,0.6912,0.7616,0.8268,0.8752,0.8804,0.8804,0.8804,0.8804,0.8804,0.8804,0.8804,0.8804,0.8804,0.8804,0.8804,0.8804,0.8804,0.8804,0.8804,0.8804,0.8804,0.8804,0.8804,0.8804,0.8804,0.8804,0.8804,0.8804,0.8804,0.8956,0.9106,0.7285,0.7139,0.7139,0.7139,0.7139,0.7139,0.7139,0.7139,0.7139,0.7139,0.7139,0.7139,0.7139,0.7014,0.6929,0.6929,0.6651,0.6536,0.6685,0.6556,0.6407,0.6345,0.6338,0.6338,0.6338,0.6338,0.6338,0.6338,0.6338,0.6338,0.6338,0.6338,0.6338,0.6338,0.6338,0.6338,0.6338,0.6338,0.6338,0.6338,0.6338,0.6338,0.6338,0.6338,0.6338,0.6338,0.6338,0.6162,0.601,0.5854,0.5708,0.5566,0.5413,0.5428,0.5428,0.5428,0.5428,0.5298,0.4999,0.4918,0.4663,0.3572,0.3287,0.3121,0.2341,0.1619,0.1118,0.1118,0.0504,0.0,0.0,0.0,0.028,0.1006,0.1118,0.1341,0.212,0.223,0.2508,0.3231,0.3289,0.3892,0.5378,0.6145,0.6912,0.767,0.8374,0.8804,0.8804,0.8804,0.8804,0.8804,0.8804,0.8804,0.8804,0.8804,0.8804,0.8804,0.8804,0.8804,0.8804,0.8804,0.8804,0.8804,0.8804,0.8804,0.8804,0.8804,0.8804,0.8804,0.8804,0.8804,0.8804,0.8804,0.9211,0.9814,0.7004,0.7071,0.7139,0.7139,0.7139,0.7139,0.7139,0.7139,0.7139,0.7139,0.7054,0.7031,0.7129,0.7014,0.6929,0.6929,0.6749,0.6563,0.6403,0.6349,0.6305,0.6342,0.6338,0.6338,0.6338,0.6338,0.6338,0.6338,0.6338,0.6338,0.6338,0.6338,0.6338,0.6338,0.6338,0.6338,0.6338,0.6338,0.6338,0.6338,0.6338,0.6338,0.6338,0.6338,0.6338,0.6338,0.6338,0.623,0.6169,0.6013,0.5932,0.5854,0.5603,0.5447,0.5428,0.5428,0.5428,0.5318,0.5121,0.4996,0.4663,0.3629,0.3345,0.3178,0.2397,0.2009,0.1898,0.1898,0.1675,0.1563,0.1563,0.1563,0.1619,0.1842,0.1898,0.212,0.2843,0.301,0.3345,0.407,0.456,0.4992,0.5433,0.6632,0.745,0.767,0.8374,0.8804,0.8804,0.8804,0.8804,0.8804,0.8804,0.8804,0.8804,0.8804,0.8804,0.8804,0.8804,0.8804,0.8804,0.8804,0.8804,0.8804,0.8804,0.8804,0.8804,0.8804,0.8804,0.8804,0.8804,0.8804,0.8804,0.8804,0.9211,0.971,0.8311,0.8032,0.7841,0.7841,0.7404,0.7139,0.7139,0.7139,0.7139,0.7139,0.7017,0.6963,0.7048,0.6926,0.6841,0.6841,0.6753,0.66,0.6359,0.6342,0.6342,0.6342,0.6291,0.6338,0.6338,0.6338,0.6338,0.6338,0.6338,0.6338,0.6338,0.6338,0.6338,0.6338,0.6338,0.6338,0.6338,0.6338,0.6338,0.6338,0.6338,0.6338,0.6338,0.6338,0.6338,0.6338,0.6338,0.6338,0.6237,0.6081,0.5952,0.5823,0.5647,0.5484,0.5428,0.5428,0.5428,0.5315,0.5104,0.4986,0.4723,0.4026,0.3846,0.3735,0.3231,0.2843,0.2621,0.2621,0.2397,0.2174,0.2174,0.2174,0.2286,0.2619,0.2676,0.2899,0.3677,0.379,0.4122,0.4787,0.5269,0.5706,0.6303,0.7176,0.783,0.8103,0.8533,0.8804,0.8804,0.8804,0.8804,0.8804,0.8804,0.8804,0.8804,0.8804,0.8804,0.8804,0.8804,0.8804,0.8804,0.8804,0.8804,0.8804,0.8804,0.8804,0.8804,0.8804,0.8804,0.8804,0.8804,0.8804,0.8804,0.8804,0.9413,1.0167,1.0438,0.9753,0.9061,0.889,0.8017,0.7228,0.7139,0.7139,0.7139,0.7139,0.7017,0.6932,0.6946,0.68,0.6702,0.6702,0.6675,0.6603,0.6461,0.6454,0.6454,0.6454,0.6329,0.6338,0.6338,0.6338,0.6338,0.6338,0.6338,0.6338,0.6338,0.6338,0.6338,0.6338,0.6338,0.6338,0.6338,0.6338,0.6338,0.6338,0.6338,0.6338,0.6338,0.6338,0.6338,0.6338,0.6338,0.6338,0.6237,0.6081,0.584,0.5606,0.5593,0.5484,0.5428,0.5428,0.5428,0.5304,0.5033,0.4938,0.4853,0.4572,0.4539,0.4519,0.4519,0.3956,0.34,0.34,0.2899,0.2397,0.2397,0.2397,0.2621,0.34,0.3456,0.3677,0.4405,0.457,0.4842,0.5433,0.5592,0.6249,0.7557,0.7777,0.8103,0.8752,0.8804,0.8804,0.891,0.8857,0.8804,0.891,0.8857,0.8804,0.8804,0.8804,0.8804,0.8804,0.8804,0.8804,0.8804,0.8804,0.8804,0.8804,0.8804,0.8804,0.8804,0.8804,0.8804,0.8804,0.8804,0.8804,0.8804,0.8804,0.9666,1.0813,1.0524,1.0438,0.9923,0.9061,0.8715,0.8193,0.7228,0.7139,0.7139,0.7139,0.7017,0.697,0.7082,0.6858,0.6702,0.6702,0.6488,0.6342,0.6308,0.6305,0.6305,0.6305,0.6355,0.6338,0.6338,0.6338,0.6338,0.6338,0.6338,0.6338,0.6338,0.6338,0.6338,0.6338,0.6338,0.6338,0.6338,0.6338,0.6338,0.6338,0.6338,0.6338,0.6338,0.6338,0.6338,0.6338,0.6338,0.6338,0.6237,0.6081,0.5908,0.5735,0.5627,0.5484,0.5428,0.5428,0.5428,0.5415,0.5284,0.5098,0.4904,0.4836,0.464,0.4519,0.4519,0.4349,0.4236,0.4236,0.4125,0.4012,0.4012,0.4012,0.407,0.4236,0.4239,0.4294,0.446,0.4948,0.5324,0.5487,0.6519,0.7343,0.767,0.8209,0.8646,0.8804,0.8804,0.9008,0.9562,0.9061,0.9061,0.9562,0.9061,0.8804,0.8804,0.8804,0.8804,0.8804,0.8804,0.8804,0.8804,0.8804,0.8804,0.8804,0.8804,0.8804,0.8804,0.8804,0.8804,0.8804,0.8804,0.8804,0.8804,0.8804,0.9666,1.0864,1.1773,1.1573,1.1005,0.9709,0.9174,0.8452,0.7316,0.7139,0.7139,0.7139,0.7017,0.6956,0.7031,0.677,0.6566,0.6495,0.6349,0.6338,0.6338,0.6338,0.6338,0.6338,0.6338,0.6338,0.6338,0.6338,0.6338,0.6338,0.6338,0.6338,0.6338,0.6338,0.6338,0.6338,0.6338,0.6338,0.6338,0.6338,0.6338,0.6338,0.6338,0.6338,0.6338,0.6338,0.6338,0.6338,0.6338,0.6338,0.6247,0.6166,0.5989,0.5789,0.5715,0.5538,0.5428,0.5428,0.5428,0.5411,0.527,0.5138,0.4986,0.4847,0.4691,0.4551,0.4532,0.4519,0.4519,0.4519,0.4519,0.4519,0.4519,0.4519,0.4519,0.4519,0.4519,0.4625,0.4948,0.5273,0.576,0.6465,0.723,0.783,0.8209,0.8586,0.8804,0.8804,0.8804,0.9106,0.9762,0.9159,0.9113,0.9762,0.9166,0.8804,0.8804,0.8804,0.8804,0.8804,0.8804,0.8804,0.8804,0.8804,0.8804,0.8804,0.8804,0.8804,0.8804,0.8804,0.8804,0.8804,0.8804,0.9008,0.9256,0.9256,1.0115,1.1316,1.3139,1.2946,1.2178,1.0789,0.9981,0.9056,0.7921,0.7661,0.7665,0.7401,0.7295,0.7125,0.6932,0.6654,0.6417,0.6352,0.6338,0.6271,0.6295,0.6504,0.6578,0.6602,0.6732,0.6718,0.6567,0.6567,0.649,0.6338,0.6338,0.6338,0.6338,0.6338,0.6338,0.6338,0.6338,0.6338,0.6338,0.6338,0.6338,0.6338,0.6338,0.6338,0.6338,0.6338,0.6338,0.6338,0.6338,0.6338,0.6257,0.623,0.6034,0.5796,0.5772,0.5579,0.5428,0.5428,0.5428,0.5332,0.5206,0.5148,0.5064,0.4796,0.4711,0.465,0.4553,0.4519,0.4519,0.4519,0.4519,0.4519,0.4519,0.4519,0.4519,0.468,0.468,0.4893,0.5597,0.5814,0.6357,0.7557,0.783,0.8156,0.8752,0.8804,0.8804,0.8804,0.8804,0.9106,0.9762,0.9159,0.9113,0.9762,0.9166,0.8804,0.8804,0.8804,0.8804,0.8804,0.8804,0.8804,0.8804,0.8804,0.8804,0.8804,0.8804,0.8804,0.8804,0.8804,0.8804,0.8804,0.891,0.9309,0.9814,1.0064,1.0864,1.1814,1.3566,1.3682,1.3457,1.2202,1.1958,1.1466,1.026,1.0091,0.9749,0.8803,0.8607,0.819,0.7028,0.6654,0.6417,0.6352,0.6338,0.6315,0.6434,0.7177,0.7618,0.777,0.8476,0.8466,0.7629,0.7629,0.7176,0.6338,0.6338,0.6338,0.6338,0.6338,0.6338,0.6338,0.6338,0.6338,0.6338,0.6338,0.6338,0.6338,0.6338,0.6338,0.6338,0.6338,0.6338,0.6338,0.6338,0.6338,0.624,0.6105,0.5945,0.5779,0.5657,0.5501,0.5428,0.5428,0.5428,0.5422,0.5335,0.5233,0.5091,0.4928,0.4789,0.465,0.4553,0.4519,0.4519,0.4519,0.4519,0.4519,0.4519,0.4519,0.4677,0.5273,0.5378,0.5597,0.6367,0.7015,0.745,0.767,0.8268,0.8699,0.8804,0.8804,0.8804,0.8804,0.8804,0.9106,0.9762,0.9159,0.9113,0.9762,0.9166,0.8804,0.8804,0.8804,0.8804,0.8804,0.8804,0.8804,0.8804,0.8804,0.8804,0.8804,0.8804,0.8804,0.8804,0.8804,0.8804,0.8857,0.9465,0.971,0.9969,1.1116,1.1665,1.1873,1.3494,1.3774,1.3685,1.2314,1.2228,1.1895,1.0783,1.0611,1.0183,0.9065,0.889,0.8392,0.7028,0.6732,0.6539,0.639,0.7081,0.7445,0.7422,0.8365,0.8954,0.9237,0.9246,0.9128,0.8859,0.8751,0.8389,0.8008,0.6872,0.6338,0.6338,0.6338,0.6338,0.6338,0.6338,0.6338,0.6338,0.6338,0.6338,0.6338,0.6338,0.6338,0.6338,0.6338,0.6338,0.6338,0.6338,0.6338,0.6251,0.6183,0.6057,0.5901,0.5755,0.5606,0.5471,0.5452,0.5428,0.5428,0.5428,0.5311,0.5223,0.5074,0.4925,0.4779,0.4623,0.458,0.4519,0.4519,0.4519,0.4519,0.4519,0.4787,0.5164,0.5433,0.5873,0.6362,0.7128,0.7509,0.783,0.8268,0.8586,0.8804,0.8804,0.8804,0.8804,0.8804,0.8804,0.9106,0.9762,0.9159,0.9263,1.032,0.9718,0.9562,0.9909,0.9917,0.9718,0.9361,0.9361,0.9159,0.8804,0.8804,0.8804,0.8804,0.8804,0.8804,0.8804,0.8804,0.9008,0.9361,0.9666,1.0261,1.1015,1.2039,1.2403,1.2452]},{"header":{"parameterUnit":"m.s-1","parameterCategory":1,"la1":30.6,"la2":28.766,"lo1":-90.7593,"lo2":-88.6598,"dy":0.0162,"dx":0.0183,"nx":116,"ny":114,"refTime":"2024-06-07T06:00:00:Z","depth":0,"parameterNumber":3,"parameterNumberName":"V-component_of_WINDS"},"data":[0.0,0.0,0.0,0.0,0.0,0.0,0.0,0.0,0.0,0.0,0.0,0.0,0.0,0.0,0.0,0.0,0.0,0.0,0.0,0.0,0.0,0.0,0.0,0.0,0.0,0.0,0.0,0.0,0.0,0.0,0.0,0.0,0.0,0.0,0.0,0.0,0.0,0.0,0.0,0.0,0.0,0.0,0.0,0.0,0.0,0.0,0.0,0.0,0.0,0.0,0.0,0.0,0.0,0.0,0.0,0.0,0.0,0.0,0.0,0.0,0.0,0.0,0.0,0.0,0.0,0.0,0.0,0.0,0.0,0.0,0.0,0.0,0.0,0.0,0.0,0.0,0.0,0.0,0.0,0.0,0.0,0.0,0.0,0.0,0.0,0.0,0.0,0.0,0.0,0.0,0.0,0.0,0.0,0.0,0.0,0.0,0.0,0.0,0.0,0.0,0.0,0.0,0.0,0.0,0.0,0.0,0.0,0.0,0.0,0.0,0.0,0.0,0.0,0.0,0.0,0.0,0.0,0.0,0.0,0.0,0.0,0.0,0.0,0.0,0.0,0.0,0.0,0.0,0.0,0.0,0.0,0.0,0.0,0.0,0.0,0.0,0.0,0.0,0.0,0.0,0.0,0.0,0.0,0.0,0.0,0.0,0.0,0.0,0.0,0.0,0.0,0.0,0.0,0.0,0.0,0.0,0.0,0.0,0.0,0.0,0.0,0.0,0.0,0.0,0.0,0.0,0.0,0.0,0.0,0.0,0.0,0.0,0.0,0.0,0.0,0.0,0.0,0.0,0.0,0.0,0.0,0.0,0.0,0.0,0.0,0.0,0.0,0.0,0.0,0.0,0.0,0.0,0.0,0.0,0.0,0.0,0.0,0.0,0.0,0.0,0.0,0.0,0.0,0.0,0.0,0.0,0.0,0.0,0.0,0.0,0.0,0.0,0.0,0.0,0.0,0.0,0.0,0.0,0.0,0.0,0.0,0.0,0.0,0.0,0.0,0.0,0.0,0.0,0.0,0.0,0.0,0.0,0.0,0.0,0.0,0.0,0.0,0.0,0.0,0.0,0.0,0.0,0.0,0.0,0.0,0.0,0.0,0.0,0.0,0.0,0.0,0.0,0.0,0.0,0.0,0.0,0.0,0.0,0.0,0.0,0.0,0.0,0.0,0.0,0.0,0.0,0.0,0.0,0.0,0.0,0.0,0.0,0.0,0.0,0.0,0.0,0.0,0.0,0.0,0.0,0.0,0.0,0.0,0.0,0.0,0.0,0.0,0.0,0.0,0.0,0.0,0.0,0.0,0.0,0.0,0.0,0.0,0.0,0.0,0.0,0.0,0.0,0.0,0.0,0.0,0.0,0.0,0.0,0.0,0.0,0.0,0.0,0.0,0.0,0.0,0.0,0.0,0.0,0.0,0.0,0.0,0.0,0.0,0.0,0.0,0.0,0.0,0.0,0.0,0.0,0.0,0.0,0.0,0.0,0.0,0.0,0.0,0.0,0.0,0.0,0.0,0.0,0.0,0.0,0.0,0.0,0.0,0.0,0.0,0.0,0.0,0.0,0.0,0.0,0.0,0.0,0.0,0.0,0.0,0.0,0.0,0.0,0.0,0.0,0.0,0.0,0.0,0.0,0.0,0.0,0.0,0.0,0.0,0.0,0.0,0.0,0.0,0.0,0.0,0.0,0.0,0.0,0.0,0.0,0.0,0.0,0.0,0.0,0.0,0.0,0.0,0.0,0.0,0.0,0.0,0.0,0.0,0.0,0.0,0.0,0.0,0.0,0.0,0.0,0.0,0.0,0.0,0.0,0.0,0.0,0.0,0.0,0.0,0.0,0.0,0.0,0.0,0.0,0.0,0.0,0.0,0.0,0.0,0.0,0.0,0.0,0.0,0.0,0.0,0.0,0.0,0.0,0.0,0.0,0.0,0.0,0.0,0.0,0.0,0.0,0.0,0.0,0.0,0.0,0.0,0.0,0.0,0.0,0.0,0.0,0.0,0.0,0.0,0.0,0.0,0.0,0.0,0.0,0.0,0.0,0.0,0.0,0.0,0.0,0.0,0.0,0.0,0.0,0.0,0.0,0.0,0.0,0.0,0.0,0.0,0.0,0.0,0.0,0.0,0.0,0.0,0.0,0.0,0.0,0.0,0.0,0.0,0.0,0.0,0.0,0.0,0.0,0.0,0.0,0.0,0.0,0.0,0.0,0.0,0.0,0.0,0.0,0.0,0.0,0.0,0.0,0.0,0.0,0.0,0.0,0.0,0.0,0.0,0.0,0.0,0.0,0.0,0.0,0.0,0.0,0.0,0.0,0.0,0.0,0.0,0.0,0.0,0.0,0.0,0.0,0.0,0.0,0.0,0.0,0.0,0.0,0.0,0.0,0.0,0.0,0.0,0.0,0.0,0.0,0.0,0.0,0.0,0.0,0.0,0.0,0.0,0.0,0.0,0.0,0.0,0.0,0.0,0.0,0.0,0.0,0.0,0.0,0.0,0.0,0.0,0.0,0.0,0.0,0.0,0.0,0.0,0.0,0.0,0.0,0.0,0.0,0.0,0.0,0.0,0.0,0.0,0.0,0.0,0.0,0.0,0.0,0.0,0.0,0.0,0.0,0.0,0.0,0.0,0.0,0.0,0.0,0.0,0.0,0.0,0.0,0.0,0.0,0.0,0.0,0.0,0.0,0.0,0.0,0.0,0.0,0.0,0.0,0.0,0.0,0.0,0.0,0.0,0.0,0.0,0.0,0.0,0.0,0.0,0.0,0.0,0.0,0.0,0.0,0.0,0.0,0.0,0.0,0.0,0.0,0.0,0.0,0.0,0.0,0.0,0.0,0.0,0.0,0.0,0.0,0.0,0.0,0.0,0.0,0.0,0.0,0.0,0.0,0.0,0.0,0.0,0.0,0.0,0.0,0.0,0.0,0.0,0.0,0.0,0.0,0.0,0.0,0.0,0.0,0.0,0.0,0.0,0.0,0.0,0.0,0.0,0.0,0.0,0.0,0.0,0.0,0.0,0.0,0.0,0.0,0.0,0.0,0.0,0.0,0.0,0.0,0.0,0.0,0.0,0.0,0.0,0.0,0.0,0.0,0.0,0.0,0.0,0.0,0.0,0.0,0.0,0.0,0.0,0.0,0.0,0.0,0.0,0.0,0.0,0.0,0.0,0.0,0.0,0.0,0.0,0.0,0.0,0.0,0.0,0.0,0.0,0.0,0.0,0.0,0.0,0.0,0.0,0.0,0.0,0.0,0.0,0.0,0.0,0.0,0.0,0.0,0.0,0.0,0.0,0.0,0.0,0.0,0.0,0.0,0.0,0.0,0.0,0.0,0.0,0.0,0.0,0.0,0.0,0.0,0.0,0.0,0.0,0.0,0.0,0.0,0.0,0.0,0.0,0.0,0.0,0.0,0.0,0.0,0.0,0.0,0.0,0.0,0.0,0.0,0.0,0.0,0.0,0.0,0.0,0.0,0.0,0.0,0.0,0.0,0.0,0.0,0.0,0.0,0.0,0.0,0.0,0.0,0.0,0.0,0.0,0.0,0.0,0.0,0.0,0.0,0.0,0.0,0.0,0.0,0.0,0.0,0.0,0.0,0.0,0.0,0.0,0.0,0.0,0.0,0.0,0.0,0.0,0.0,0.0,0.0,0.0,0.0,0.0,0.0,0.0,0.0,0.0,0.0,0.0,0.0,0.0,0.0,0.0,0.0,0.0,0.0,0.0,0.0,0.0,0.0,0.0,0.0,0.0,0.0,0.0,0.0,0.0,0.0,0.0,0.0,0.0,0.0,0.0,0.0,0.0,0.0,0.0,0.0,0.0,0.0,0.0,0.0,0.0,0.0,0.0,0.0,0.0,0.0,0.0,0.0,0.0,0.0,0.0,0.0,0.0,0.0,0.0,0.0,0.0,0.0,0.0,0.0,0.0,0.0,0.0,0.0,0.0,0.0,0.0,0.0,0.0,0.0,0.0,0.0,0.0,0.0,0.0,0.0,0.0,0.0,0.0,0.0,0.0,0.0,0.0,0.0,0.0,0.0,0.0,0.0,0.0,0.0,0.0,0.0,0.0,0.0,0.0,0.0,0.0,0.0,0.0,0.0,0.0,0.0,0.0,0.0,0.0,0.0,0.0,0.0,0.0,0.0,0.0,0.0,0.0,0.0,0.0,0.0,0.0,0.0,0.0,0.0,0.0,0.0,0.0,0.0,0.0,0.0,0.0,0.0,0.0,0.0,0.0,0.0,0.0,0.0,0.0,0.0,0.0,0.0,0.0,0.0,0.0,0.0,0.0,0.0,0.0,0.0,0.0,0.0,0.0,0.0,0.0,0.0,0.0,0.0,0.0,0.0,0.0,0.0,0.0,0.0,0.0,0.0,0.0,0.0,0.0,0.0,0.0,0.0,0.0,0.0,0.0,0.0,0.0,0.0,0.0,0.0,0.0,0.0,0.0,0.0,0.0,0.0,0.0,0.0,0.0,0.0,0.0,0.0,0.0,0.0,0.0,0.0,0.0,0.0,0.0,0.0,0.0,0.0,0.0,0.0,0.0,0.0,0.0,0.0,0.0,0.0,0.0,0.0,0.0,0.0,0.0,0.0,0.0,0.0,0.0,0.0,0.0,0.0,0.0,0.0,0.0,0.0,0.0,0.0,0.0,0.0,0.0,0.0,0.0,0.0,0.0,0.0,0.0,0.0,0.0,0.0,0.0,0.0,0.0,0.0,0.0,0.0,0.0,0.0,0.0,0.0,0.0,0.0,0.0,0.0,0.0,0.0,0.0,0.0,0.0,0.0,0.0,0.0,0.0,0.0,0.0,0.0,0.0,0.0,0.0,0.0,0.0,0.0,0.0,0.0,0.0,0.0,0.0,0.0,0.0,0.0,0.0,0.0,0.0,0.0,0.0,0.0,0.0,0.0,0.0,0.0,0.0,0.0,0.0,0.0,0.0,0.0,0.0,0.0,0.0,0.0,0.0,0.0,0.0,0.0,0.0,0.0,0.0,0.0,0.0,0.0,0.0,0.0,0.0,0.0,0.0,0.0,0.0,0.0,0.0,0.0,0.0,0.0,0.0,0.0,0.0,0.0,0.0,0.0,0.0,0.0,0.0,0.0,0.0,0.0,0.0,0.0,0.0,0.0,0.0,0.0,0.0,0.0,0.0,0.0,0.0,0.0,0.0,0.0,0.0,0.0,0.0,0.0,0.0,0.0,0.0,0.0,0.0,0.0,0.0,0.0,0.0,0.0,0.0,0.0,0.0,0.0,0.0,0.0,0.0,0.0,0.0,0.0,0.0,0.0,0.0,0.0,0.0,0.0,0.0,0.0,0.0,0.0,0.0,0.0,0.0,0.0,0.0,0.0,0.0,0.0,0.0,0.0,0.0,0.0,0.0,0.0,0.0,0.0,0.0,0.0,0.0,0.0,0.0,0.0,0.0,0.0,0.0,0.0,0.0,0.0,0.0,0.0,0.0,0.0,0.0,0.0,0.0,0.0,0.0,0.0,0.0,0.0,0.0,0.0,0.0,0.0,0.0,0.0,0.0,0.0,0.0,0.0,0.0,0.0,0.0,0.0,0.0,0.0,0.0,0.0,0.0,0.0,0.0,0.0,0.0,0.0,0.0,0.0,0.0,0.0,0.0,0.0,0.0,0.0,0.0,0.0,0.0,0.0,0.0,0.0,0.0,0.0,0.0,0.0,0.0,0.0,0.0,0.0,0.0,0.0,0.0,0.0,0.0,0.0,0.0,0.0,0.0,0.0,0.0,0.0,0.0,0.0,0.0,0.0,0.0,0.0,0.0,0.0,0.0,0.0,0.0,0.0,0.0,0.0,0.0,0.0,0.0,0.0,0.0,0.0,0.0,0.0,0.0,0.0,0.0,0.0,0.0,0.0,0.0,0.0,0.0,0.0,0.0,0.0,0.0,0.0,0.0,0.0,0.0,0.0,0.0,0.0,0.0,0.0,0.0,0.0,0.0,0.0,0.0,0.0,0.0,0.0,0.0,0.0,0.0,0.0,0.0,0.0,0.0,0.0,0.0,0.0,0.0,0.0,0.0,0.0,0.0,0.0,0.0,0.0,0.0,0.0,0.0,0.0,0.0,0.0,0.0,0.0,1.2652,1.357,0.0,0.0,0.0,0.0,0.0,0.0,0.0,0.0,0.0,0.0,0.0,0.0,0.0,0.0,0.0,0.0,0.0,0.0,0.0,0.0,0.0,0.0,0.0,2.008,2.1102,2.1584,2.1615,2.1524,2.1306,0.0,0.0,0.0,0.0,0.0,1.7832,1.763,1.7543,1.754,1.7772,1.7648,1.7179,1.7258,1.7024,1.6553,0.0,0.0,0.0,0.0,0.0,0.0,0.0,0.0,0.0,0.0,0.0,0.0,0.0,0.0,0.0,0.0,0.0,0.0,0.0,0.0,0.0,0.0,0.0,0.0,0.0,0.0,0.0,0.0,0.0,0.0,0.0,0.0,0.0,0.0,0.0,0.0,0.0,0.0,0.0,0.0,0.0,0.0,0.0,0.0,0.0,0.0,0.0,0.0,0.0,0.0,0.0,0.0,0.0,0.0,0.0,0.0,0.0,0.0,0.0,0.0,0.0,0.0,0.0,0.0,0.0,0.0,0.0,0.0,0.0,0.0,1.1047,1.1648,0.0,0.0,0.0,0.0,0.0,0.0,0.0,0.0,0.0,0.0,0.0,0.0,0.0,0.0,0.0,0.0,0.0,0.0,0.0,0.0,0.0,1.9204,1.9534,2.0794,2.1838,2.2375,2.2281,2.2068,2.1715,2.1475,0.0,0.0,0.0,1.9538,1.8388,1.8451,1.845,1.835,1.8227,1.8004,1.7681,1.7149,1.649,1.5788,1.6455,0.0,0.0,0.0,0.0,0.0,0.0,0.0,0.0,0.0,0.0,0.0,0.0,0.0,0.0,0.0,0.0,0.0,0.0,0.0,0.0,0.0,0.0,0.0,0.0,0.0,0.0,0.0,0.0,0.0,0.0,0.0,0.0,0.0,0.0,0.0,0.0,0.0,0.0,0.0,0.0,0.0,0.0,0.0,0.0,0.0,0.0,0.0,0.0,0.0,0.0,0.0,0.0,0.0,0.0,0.0,0.0,0.0,0.0,0.0,0.0,0.0,0.0,0.0,1.1402,1.0883,1.2039,0.9212,0.8252,0.8721,0.7875,0.8285,0.9535,0.9065,0.0,0.0,0.0,0.0,0.0,0.0,0.0,0.0,0.0,0.0,0.0,0.0,0.0,0.0,0.0,0.0,0.0,0.0,0.0,1.8297,1.9757,2.0976,2.1972,2.2746,2.2237,2.191,2.204,2.1054,0.0,0.0,2.057,2.0484,2.0572,1.9784,1.9613,2.0144,1.8215,1.713,1.681,1.4477,1.346,1.373,1.6423,1.7822,1.8134,0.0,0.0,0.0,0.0,0.0,0.0,0.0,0.0,0.0,0.0,0.0,0.0,0.0,0.0,0.0,0.0,0.0,0.0,0.0,0.0,0.0,0.0,0.0,0.0,0.0,0.0,0.0,0.0,0.0,0.0,0.0,0.0,0.0,0.0,0.0,0.0,0.0,0.0,0.0,0.0,0.0,1.8503,1.7795,0.0,0.0,0.0,0.0,0.0,0.0,0.0,0.0,0.0,0.0,0.0,0.0,0.0,1.5311,1.3905,1.3769,1.3063,1.1709,1.0417,0.953,0.8994,0.6671,0.5182,0.4263,0.3198,0.0,0.9067,0.8837,0.0,0.0,0.0,0.0,0.0,0.0,0.0,0.0,0.0,0.0,0.0,0.0,0.0,0.0,0.0,0.0,0.0,0.0,0.0,0.0,0.0,2.0778,2.1451,2.18,2.1327,2.1158,2.1498,2.0998,2.0877,2.1256,2.164,2.1727,2.1457,2.1042,2.0646,2.0211,1.9119,1.7722,1.6103,1.4509,1.2903,1.1391,1.217,1.3689,1.5645,1.5491,0.0,0.0,0.0,0.0,0.0,0.0,0.0,0.0,0.0,0.0,0.0,0.0,0.0,0.0,0.0,0.0,0.0,0.0,0.0,0.0,0.0,0.0,0.0,0.0,0.0,0.0,0.0,0.0,0.0,0.0,0.0,0.0,0.0,0.0,0.0,0.0,0.0,0.0,0.0,1.8011,1.7554,1.6784,1.7132,1.7435,0.0,0.0,0.0,0.0,0.0,0.0,0.0,0.0,0.0,1.4317,1.3983,1.3289,1.2137,1.1268,1.0495,0.983,0.8413,0.7359,0.6642,0.4986,0.3608,0.2519,0.1644,0.2305,0.4035,0.5209,0.6562,0.8007,0.0,0.0,0.0,0.0,0.8525,0.7817,0.0,0.0,0.0,0.0,0.0,0.0,0.0,0.0,0.0,0.0,0.0,0.0,2.0173,2.0404,2.0737,2.1141,2.0547,2.0436,2.1104,2.1115,2.1274,2.1701,2.2645,2.2841,2.2142,2.1896,2.1222,2.0077,1.9535,1.7971,1.5488,1.4015,1.1759,0.8822,0.6934,0.8202,1.1747,1.1486,1.1889,0.0,0.0,0.0,0.0,0.0,0.0,0.0,0.0,0.0,0.0,0.0,0.0,0.0,0.0,0.0,0.0,0.0,0.0,0.0,0.0,0.0,0.0,0.0,0.0,0.0,0.0,0.0,0.0,0.0,0.0,0.0,0.0,0.0,0.0,0.0,0.0,0.0,0.0,1.7607,1.6541,1.5751,1.5503,1.5614,0.0,0.0,0.0,0.0,0.0,0.0,1.5654,1.5251,1.4393,1.296,1.2366,1.1594,1.0629,0.9341,0.8635,0.848,0.693,0.5873,0.526,0.4069,0.2973,0.2006,0.1385,0.0895,0.0582,0.2049,0.3474,0.4835,0.6363,0.7127,0.7363,0.7168,0.6542,0.5676,0.0,0.0,0.0,0.0,0.0,0.0,0.0,0.0,0.0,0.0,0.0,1.9893,2.0585,1.9896,2.0001,2.153,2.0313,1.998,2.1211,2.1353,2.1639,2.2234,2.3337,2.3656,2.3045,2.1982,2.1042,2.0275,1.8814,1.7035,1.4948,1.1541,0.8617,0.6013,0.175,0.2426,0.6711,0.5947,0.5073,0.4624,0.0,0.0,0.0,0.0,0.0,0.0,0.0,0.0,0.0,0.0,0.0,0.0,0.0,0.0,0.0,0.0,0.0,0.0,0.0,0.0,0.0,0.0,0.0,0.0,0.0,0.0,0.0,0.0,0.0,0.0,0.0,0.0,0.0,0.0,0.0,0.0,0.0,0.0,0.0,1.4796,1.4494,0.0,0.0,0.0,0.0,1.7837,1.6788,1.5853,1.5174,1.4298,1.3184,1.1829,1.1739,1.1015,0.9597,0.8999,0.8439,0.7912,0.6774,0.5873,0.526,0.4069,0.3196,0.2627,0.2008,0.1741,0.1697,0.1205,0.1068,0.1283,0.2495,0.2999,0.3025,0.2996,0.2611,0.2051,0.0,0.0,0.0,0.0,0.0,1.9094,1.9225,1.958,1.9818,1.9788,1.9824,1.9834,1.9788,1.9037,1.8942,1.9994,1.9044,1.9068,2.0683,2.0877,2.1236,2.1877,2.2637,2.2759,2.2199,2.1795,2.115,2.0249,1.921,1.7289,1.4474,1.145,0.7578,0.3023,-0.0564,-0.274,-0.3506,-0.0373,0.0948,0.1241,0.4539,0.7539,0.0,0.0,0.0,0.0,0.0,0.0,0.0,0.0,0.0,0.0,0.0,0.0,0.0,0.0,0.0,0.0,0.0,0.0,0.0,0.0,0.0,0.0,0.0,0.0,0.0,0.0,0.0,0.0,0.0,0.0,0.0,0.0,0.0,0.0,0.0,0.0,0.0,1.4362,1.3852,0.0,1.505,1.551,1.5941,1.6326,1.573,1.5067,1.4495,1.4141,1.3443,1.2246,1.2194,1.1788,1.0851,1.0322,0.9709,0.9053,0.8136,0.7119,0.6102,0.5494,0.4509,0.3196,0.2973,0.249,0.1784,0.1563,0.1252,0.0895,0.0938,0.0714,0.04,0.04,0.0489,0.0711,0.0,0.0,0.0,0.0,1.9217,1.9513,1.9684,2.0195,2.0453,2.0136,2.034,2.0223,1.9507,1.868,1.8453,1.9201,1.8491,1.8641,2.0161,2.09,2.1494,2.2015,2.2696,2.2771,2.2119,2.1825,2.1191,2.0237,1.9602,1.7739,1.4706,1.2067,0.7919,0.2523,-0.1518,-0.5546,-0.9071,-0.6897,-0.5481,-0.4429,-0.1126,0.2547,0.6321,0.0,0.0,0.0,0.0,0.0,0.0,0.0,0.0,0.0,0.0,0.0,0.0,0.0,0.0,0.0,0.0,0.0,0.0,0.0,0.0,0.0,0.0,0.0,0.0,0.0,0.0,0.0,0.0,0.0,0.0,0.0,0.0,0.0,0.0,1.7272,1.5511,1.451,1.3883,1.3848,1.4777,1.5037,1.5374,1.5788,1.5404,1.4988,1.4636,1.4417,1.3929,1.3065,1.3022,1.2776,1.2191,1.1687,1.1179,1.0676,0.9597,0.862,0.7715,0.6873,0.5804,0.4578,0.4264,0.3544,0.2669,0.2446,0.2049,0.1429,0.0403,-0.0134,-0.0358,-0.076,-0.0402,0.049,0.0,0.0,0.0,1.9261,1.9644,2.0031,2.0131,2.102,2.1374,2.0458,2.1005,2.1046,1.9828,1.8859,1.8608,1.934,1.8792,1.8819,1.9784,2.1417,2.244,2.2654,2.3624,2.3756,2.2882,2.2033,2.1165,2.0291,1.9893,1.833,1.5693,1.3295,0.9617,0.4765,-0.1152,-0.5695,-0.917,-1.3217,-1.4237,-1.273,-0.7665,-0.4268,-0.1358,0.0,0.0,0.0,0.0,0.0,0.0,0.0,0.0,0.0,0.0,0.0,0.0,0.0,0.0,0.0,0.0,0.0,0.0,0.0,0.0,0.0,0.0,0.0,0.0,0.0,0.0,0.0,0.0,0.0,0.0,0.0,0.0,0.0,2.0408,1.8499,1.6691,1.5286,1.455,1.443,1.5054,1.55,1.5973,1.6514,1.5996,1.5664,1.5664,1.5141,1.462,1.42,1.4177,1.3982,1.3493,1.296,1.2677,1.2625,1.1025,1.0215,0.9993,0.8017,0.7026,0.6848,0.5837,0.5058,0.4487,0.3858,0.3287,0.2672,0.0801,0.0401,0.0805,-0.0358,0.0,0.1382,0.0,0.0,1.9623,1.9626,1.985,2.0277,2.1068,2.1404,2.1464,2.1206,2.1324,2.0961,1.9755,1.8923,1.8741,1.9473,1.8969,1.9292,2.0926,2.0984,2.1236,2.1868,2.2779,2.2843,2.1972,2.1659,2.1085,2.0156,1.9746,1.8609,1.6742,1.4522,1.1548,0.7871,0.292,-0.1187,-0.4892,-1.257,-1.6172,-1.646,-1.3713,-1.0112,-0.5969,0.0,0.0,0.0,0.0,0.0,0.0,0.0,0.0,0.0,0.0,0.0,0.0,0.0,0.0,0.0,0.0,0.0,0.0,0.0,0.0,0.0,0.0,0.0,0.0,0.0,0.0,0.0,0.0,0.0,0.0,0.0,2.3012,2.2034,2.0731,1.8975,1.7669,1.7277,1.6702,1.6582,1.7183,1.737,1.7491,1.7653,1.7518,1.7423,1.7423,1.7259,1.692,1.6379,1.6367,1.607,1.5507,1.4967,1.4467,1.3983,1.246,1.1688,1.1538,1.0374,0.9586,0.9096,0.8304,0.7652,0.7101,0.6152,0.5935,0.5903,0.2588,0.1426,0.1563,0.1689,0.2947,0.4881,0.0,1.8916,1.9623,1.9707,2.0108,2.067,2.1405,2.2075,2.2406,2.2125,2.205,2.16,2.0522,1.9716,1.942,1.9865,1.9914,2.0371,2.1424,2.1818,2.2338,2.3107,2.357,2.3265,2.2048,2.1893,2.1165,1.9815,1.9604,1.8698,1.7118,1.5563,1.2987,0.9445,0.5139,0.1568,-0.1653,-0.8319,-1.1282,-1.1394,-1.0005,-0.9492,-0.9217,-0.6213,-0.1413,0.4167,0.7788,1.0494,1.2622,1.4533,0.0,0.0,0.0,0.0,0.0,0.0,0.0,0.0,0.0,0.0,0.0,0.0,0.0,0.0,0.0,0.0,0.0,0.0,0.0,0.0,0.0,0.0,0.0,0.0,2.3209,2.2496,2.1623,2.0002,1.8846,1.8664,1.819,1.8074,1.8589,1.8503,1.8478,1.8627,1.8627,1.8627,1.8627,1.8627,1.8484,1.8135,1.8135,1.7938,1.7622,1.7304,1.694,1.6535,1.5217,1.4689,1.4791,1.3238,1.2464,1.2257,1.1027,1.0189,0.9581,0.853,0.8149,0.7917,0.0,0.0,0.0,0.0,0.5192,0.6874,0.0,1.9193,1.9862,1.9862,2.057,2.124,2.1598,2.2901,2.3642,2.3056,2.289,2.248,2.157,2.0756,2.027,2.0291,2.1072,2.1597,0.0,2.3302,2.4532,2.5071,2.5051,2.4279,2.2677,2.2331,2.1292,1.9453,1.9395,1.8622,1.7193,1.6441,1.4158,1.0523,0.6818,0.3884,0.1497,-0.2108,-0.3022,-0.2004,-0.1537,-0.4997,-0.9967,-0.5757,-0.1709,0.2296,0.6738,0.9015,1.0149,1.1741,0.0,0.0,0.0,0.0,0.0,0.0,0.0,0.0,0.0,0.0,0.0,0.0,0.0,0.0,0.0,0.0,0.0,0.0,0.0,0.0,0.0,0.0,0.0,0.0,2.3527,2.3059,2.2701,2.144,2.0344,1.9741,1.9349,1.9292,1.9637,1.9349,1.9292,1.9671,1.9691,1.9691,1.9691,1.9691,0.0,0.0,0.0,1.9676,1.973,1.9645,1.963,1.9668,1.8538,1.8303,1.8699,1.6431,1.5627,1.5898,1.4057,1.2934,1.241,1.1196,1.0337,0.9533,0.663,0.5553,0.575,0.6321,0.7192,0.8214,0.0,2.0847,2.1525,2.1525,2.1779,2.2216,2.2975,2.3379,2.355,2.3484,2.2911,2.2171,2.1343,2.0547,2.01,2.0211,2.0978,2.1702,0.0,0.0,2.463,2.3961,2.4271,2.3964,2.2948,2.1927,2.0879,1.9811,1.8948,1.8324,1.7889,1.7041,1.5795,1.4209,1.2074,0.9996,0.7743,0.1728,-0.0431,-0.003,-0.1674,-0.2466,-0.2393,0.0155,0.1655,0.2884,0.6574,0.8818,1.0316,1.2548,1.4335,1.5713,1.6497,1.8413,0.0,0.0,0.0,0.0,0.0,0.0,0.0,0.0,0.0,0.0,0.0,0.0,0.0,0.0,0.0,0.0,0.0,0.0,0.0,2.3844,2.3656,2.3464,2.3124,2.2828,2.2331,2.152,2.1358,2.1328,2.1416,2.1358,2.1328,2.1416,2.1433,2.1433,2.1433,2.1433,2.1433,2.1433,2.1433,2.1494,2.1667,2.1228,2.1094,2.1245,2.0094,0.0,2.0397,1.9457,1.9047,1.9039,1.7692,1.7242,1.7267,1.5111,1.4027,1.3327,0.9329,0.8087,0.861,0.9478,1.0213,1.0951,2.175,2.1817,2.19,2.19,2.228,2.2781,2.3315,2.3742,2.3998,2.3955,2.322,2.255,2.2143,2.136,2.0945,2.1187,2.2067,0.0,0.0,2.4415,2.4582,2.3969,2.3928,2.3511,2.2667,2.1744,2.0657,1.9349,1.8598,1.8047,1.7675,1.6992,1.6061,1.4938,1.356,1.2167,1.0593,0.6749,0.5946,0.7186,0.6371,0.6991,0.7968,0.4329,0.3597,0.4802,0.7107,0.8776,1.0142,1.2084,1.3835,1.5438,1.673,1.8904,2.1029,0.0,0.0,0.0,0.0,0.0,0.0,0.0,0.0,0.0,0.0,0.0,0.0,0.0,0.0,2.4733,2.4543,0.0,2.4556,2.43,2.4264,2.4192,2.4026,2.4007,2.3656,2.2683,2.2366,2.234,2.2531,2.247,2.2468,2.2702,2.2794,2.2847,2.2847,2.2847,2.2847,2.2847,2.2883,2.2948,2.3043,2.2785,2.2702,2.2795,2.2191,2.2063,2.2318,2.1842,2.1601,2.1544,2.0459,2.0119,2.0125,1.7997,1.6595,1.5635,1.3501,1.2398,1.2123,1.2545,1.3066,1.3649,2.3011,2.2519,2.2082,2.2154,2.2703,2.318,2.3269,2.384,2.421,2.4099,2.3343,2.2827,2.2898,2.2142,2.1835,2.2365,0.0,0.0,0.0,2.4538,2.4353,2.4099,2.3539,2.291,2.2282,2.15,2.0425,1.9002,1.8382,1.7817,1.7301,1.6646,1.575,1.4695,1.3705,1.2805,1.1919,1.104,1.1895,1.3875,1.4543,1.5874,1.6628,0.9167,0.7212,0.857,0.9478,1.0314,1.1187,1.2238,1.3718,1.5415,1.7063,1.9277,2.1483,2.2583,2.3825,0.0,0.0,0.0,0.0,0.0,0.0,0.0,0.0,2.4733,2.47,2.4575,2.4685,2.4746,2.4575,2.4685,2.4799,2.479,2.479,2.4804,2.4826,2.4807,2.4497,2.3631,2.3217,2.3142,2.3469,2.3392,2.3424,2.3749,2.3914,2.4019,2.4019,2.3998,2.3977,2.3977,2.405,2.4087,2.4109,2.4085,2.4091,2.4118,2.4029,2.3999,2.3974,2.3651,2.3504,2.3469,2.25,2.1952,2.1592,2.0151,1.8775,1.7606,1.7606,1.692,1.5835,1.5416,1.5518,1.5975,0.0,2.3127,2.3142,2.344,2.3554,2.3527,2.3249,2.3298,2.3333,2.3333,2.2611,2.2236,2.2524,2.1838,2.1844,2.3061,0.0,0.0,2.4081,2.4082,2.3853,2.3338,2.2651,2.2204,2.2136,2.0776,1.9961,1.9787,1.83,1.7554,1.7441,1.6194,1.5304,1.4752,1.4225,1.3455,1.2503,1.2373,1.2892,1.3861,1.4853,1.6484,1.8263,1.7448,1.6553,1.5744,1.5866,1.5837,1.5661,1.5168,1.5894,1.6985,1.6853,1.8643,2.0927,2.1643,2.3397,2.5106,2.529,2.5217,2.505,2.4875,2.4671,2.454,0.0,2.4543,2.4594,2.4731,2.479,2.479,2.4775,2.479,2.479,2.4797,2.4803,2.4812,2.4887,2.4878,2.4822,2.4648,2.4583,2.4566,2.4631,2.4643,2.4698,2.4739,2.4769,2.4779,2.4779,2.4716,2.4692,2.4692,2.4696,2.4758,2.4873,2.4764,2.4764,2.488,2.4759,2.468,2.4684,2.4648,2.4628,2.4573,2.3574,2.2463,2.1356,2.145,2.0941,2.0091,2.0091,2.0006,1.9643,1.7853,1.722,1.7342,0.0,2.3189,2.3189,2.3117,2.3277,2.3369,2.3212,2.3189,2.3117,2.2947,2.2788,2.2752,2.2888,2.2958,2.3122,2.349,2.3675,0.0,2.3563,2.3466,2.3158,2.2591,2.2085,2.1698,2.1472,2.0591,1.9793,1.9146,1.8208,1.758,1.7263,1.6375,1.5892,1.5763,1.5264,1.4639,1.3943,1.3924,1.4437,1.531,1.5983,1.7167,1.8582,1.8908,1.8967,1.8912,1.8726,1.8929,0.0,1.8886,1.8923,1.9059,1.8908,2.0045,2.1525,2.1839,2.3441,2.5139,2.5292,2.5146,2.4911,2.4815,2.4644,2.4495,2.4495,2.4591,2.4693,2.4782,2.4879,2.4992,2.5022,2.5139,2.5202,2.5205,2.5168,2.5156,2.5185,2.5167,2.5118,2.5096,2.5447,2.5444,2.4868,2.4911,2.4957,2.4957,2.507,2.513,2.513,2.4993,2.491,2.491,2.4841,2.4748,2.4642,2.4599,2.4494,2.4366,2.4264,2.4214,2.4214,2.4214,2.4239,2.4221,2.3165,2.2133,2.1155,2.0669,2.0173,1.9764,2.0,2.0075,1.9908,1.8924,1.8545,1.859,0.0,2.2958,2.2883,2.2625,2.2807,2.2958,2.2958,2.2958,2.2865,2.2625,2.2865,2.3141,2.3323,2.3774,2.3958,2.3714,2.3746,2.3584,2.3093,2.286,2.2522,2.2,2.1519,2.1102,2.0829,2.023,1.9502,1.8673,1.8041,1.7533,1.7136,1.6612,1.6425,1.6492,1.6071,1.5706,1.5316,1.5194,1.5568,1.6327,1.6662,1.7416,1.8408,1.8772,1.9509,2.0336,2.0103,2.0719,2.1598,2.1435,2.1296,2.1172,2.1048,2.1737,2.261,2.2667,2.3865,2.5206,2.5274,2.5072,2.4855,2.4855,2.4718,2.4595,2.4655,2.4793,2.4927,2.4957,2.5076,2.52,2.5224,2.5356,2.5444,2.5473,2.5436,2.5388,2.5351,2.5306,2.5327,2.5496,2.5737,2.5737,2.5332,2.5323,2.5229,2.4996,2.51,2.5186,2.5186,2.4953,2.4824,2.4824,2.4636,2.443,2.425,2.417,2.4031,2.3785,2.3576,2.3467,2.3467,2.3328,2.3304,2.3285,2.2295,2.1515,2.0933,2.0137,1.974,1.9628,1.9921,1.9902,1.9658,1.9221,1.9153,1.9263,0.0,0.0,2.2321,2.2293,2.2338,2.2338,2.2338,2.2338,2.2321,2.2293,2.2537,2.2972,2.361,2.3692,2.3714,2.3692,2.3414,2.3093,2.2746,2.2344,2.1955,2.1642,2.0797,2.0333,2.0314,1.9419,1.8916,1.8902,1.784,1.7327,1.7286,1.6727,1.6497,1.6497,1.6484,1.6484,1.6434,1.5894,1.5938,1.631,1.6454,1.705,1.7884,1.8263,1.9171,2.0224,2.035,0.0,2.2389,2.1938,2.241,2.3121,2.2674,2.327,2.4139,2.4139,2.473,2.5376,2.5322,2.5152,2.4979,2.4979,2.4891,2.4832,2.5042,2.5144,2.5215,2.5343,2.5381,2.5371,2.5311,2.5293,2.5331,2.5395,2.541,2.5343,2.5215,2.5207,2.5412,2.6008,2.5354,2.5289,2.6412,2.6319,2.5823,2.4975,2.4908,2.4908,2.4908,2.4612,2.4431,2.4431,2.4035,2.3823,2.3823,2.3626,2.3518,2.3497,2.2911,2.265,2.2607,2.2173,2.1976,2.1908,2.1109,2.0745,2.0711,2.0694,2.0651,2.0668,2.0651,2.0281,1.9602,1.8816,1.8807,1.9163,0.0,0.0,0.0,2.231,2.231,2.2377,2.2537,2.2398,2.231,2.231,2.2537,0.0,0.0,0.0,0.0,0.0,2.3237,2.26,2.2017,2.1845,2.1458,2.0765,2.0147,1.9692,1.9398,1.8712,1.8185,1.7827,1.7079,1.6714,1.6752,1.5776,1.5511,1.5908,1.5466,1.5287,1.532,1.5504,1.5818,1.6174,1.6304,1.695,1.7828,1.8037,1.9,2.0295,0.0,0.0,2.2602,2.2861,2.3154,2.3434,2.352,2.3874,2.4383,2.4952,2.529,2.5453,2.5383,2.5216,2.5079,2.5079,2.5063,2.5076,2.5085,2.5221,2.535,2.5391,2.5281,2.5219,2.523,2.5121,2.5033,2.5064,2.5023,2.4985,2.4936,2.4935,2.5197,2.5939,2.6123,2.6261,2.6403,2.5946,2.5665,2.563,2.5181,2.4899,2.4899,2.4192,2.3805,2.3805,2.3539,2.3181,2.2673,2.2607,2.2321,2.1854,2.1645,2.1529,2.1529,2.1362,2.1301,2.1252,2.0265,1.9824,1.9792,1.9027,1.8952,1.9358,1.9224,1.8991,1.8671,1.8243,1.7893,1.7635,0.0,0.0,0.0,0.0,0.0,0.0,0.0,0.0,0.0,0.0,0.0,0.0,0.0,0.0,0.0,0.0,0.0,2.2575,2.1658,0.0,2.1183,2.069,1.9827,1.9405,1.9555,1.8628,1.8056,1.7903,1.7326,1.694,1.6683,1.617,1.5881,1.573,1.559,1.5311,1.4956,1.528,1.5475,1.5626,1.5712,1.6343,1.7338,1.7773,1.8848,0.0,0.0,2.2207,2.2953,2.3476,2.3729,2.389,2.4251,2.4535,2.4846,2.5393,2.5554,2.5531,2.544,2.5335,2.524,2.5219,2.5251,2.5262,2.5121,2.5215,2.5297,2.5201,2.5092,2.5012,2.5053,2.5201,2.521,2.4916,2.4962,2.5021,2.4915,2.4692,2.4991,2.6284,2.6261,2.6332,2.6819,2.6113,2.557,2.5411,2.4964,2.457,2.432,2.3611,2.3204,2.3204,2.2828,2.2398,2.1915,2.1782,2.1364,2.0764,2.0764,2.0665,2.0548,2.0548,2.0548,2.0483,1.9795,1.9526,1.9428,1.8499,1.8367,1.8711,1.835,1.8027,1.771,1.7554,1.7027,1.6512,0.0,0.0,0.0,0.0,0.0,0.0,0.0,0.0,0.0,0.0,0.0,0.0,0.0,0.0,0.0,0.0,0.0,0.0,2.168,0.0,0.0,2.1219,1.973,1.9434,2.0569,1.9035,1.8438,1.8943,1.8414,1.7786,1.7157,1.7786,1.7388,1.6115,1.6764,1.6437,1.5363,1.5363,1.5143,1.4776,1.4822,1.5501,1.6642,1.7611,0.0,0.0,0.0,2.2723,2.3469,2.3875,2.4195,2.4499,2.491,2.5258,2.5506,2.5512,2.5554,2.5595,2.5516,2.5503,2.5477,2.5405,2.5446,2.5404,2.5128,2.5118,2.5076,2.4812,2.4752,2.4759,2.4766,2.5423,2.5709,2.4949,2.5211,2.5431,2.5139,2.4516,2.4837,2.6868,2.5769,2.5625,2.7614,2.6737,2.5542,2.4329,2.4284,2.3975,2.3223,2.284,2.2643,2.26,2.1931,2.1552,2.1521,2.1118,2.0731,2.028,2.028,2.007,1.969,1.969,1.969,1.9639,1.9639,1.9639,1.9566,1.908,1.8855,1.8783,1.8086,1.7434,1.6866,1.6716,1.6323,1.5872,0.0,0.0,0.0,0.0,0.0,0.0,0.0,0.0,0.0,0.0,0.0,0.0,0.0,0.0,0.0,0.0,0.0,0.0,2.2037,0.0,0.0,0.0,0.0,1.9058,1.9445,1.863,1.8287,1.838,1.7834,1.7677,1.7894,1.7193,1.6898,1.6973,1.6688,1.6421,1.6097,1.6097,1.6029,1.5856,0.0,1.7263,1.8328,0.0,0.0,0.0,0.0,2.4302,2.4644,2.421,2.4491,2.5031,2.5286,2.5469,2.5574,2.5637,2.5631,2.5586,2.5519,2.5502,2.5448,2.5232,2.5219,2.5156,2.4681,2.4593,2.4504,2.4122,2.4131,2.4205,2.419,2.4931,2.5486,2.5264,2.5599,2.5655,2.5049,2.5033,2.533,2.5867,2.5557,2.5676,2.6557,2.5866,2.4873,2.3716,2.4144,2.3977,2.2887,2.2233,2.1728,2.1458,2.1259,2.0991,2.0634,2.0227,1.998,1.9839,1.9839,1.9818,1.969,1.969,1.9479,1.9095,1.9095,1.8893,1.8496,1.838,1.8302,1.819,1.713,1.6613,1.6439,1.6301,1.6174,1.606,0.0,0.0,0.0,0.0,0.0,0.0,0.0,0.0,0.0,0.0,0.0,0.0,0.0,0.0,0.0,0.0,0.0,0.0,0.0,0.0,0.0,0.0,1.9922,1.9587,2.0153,1.9677,1.9368,0.0,0.0,0.0,1.9243,1.8604,1.8056,1.7516,1.7203,1.6636,1.5912,1.5912,0.0,0.0,0.0,0.0,0.0,0.0,0.0,0.0,2.4886,2.5059,2.5103,2.4752,2.4936,2.5366,2.5507,2.5574,2.5607,2.5604,2.5605,2.5566,2.5403,2.5369,2.5282,2.4888,2.4832,2.4702,2.4116,2.4002,2.3915,2.3603,2.3712,2.3868,2.3868,2.501,2.5745,2.5215,2.5834,2.6122,2.5498,2.535,2.5512,2.6216,2.569,2.552,2.6137,2.5367,2.4423,2.3473,2.3765,2.3496,2.2285,2.1826,2.1399,2.0991,2.0797,2.0483,2.0035,1.9803,1.969,1.969,1.969,1.969,1.969,1.9442,1.9169,1.8893,1.865,1.838,1.8066,1.7867,1.7747,1.7652,1.6694,1.6277,1.622,1.6403,1.6268,1.6114,0.0,0.0,0.0,0.0,0.0,0.0,0.0,0.0,0.0,0.0,0.0,0.0,0.0,0.0,0.0,0.0,0.0,0.0,0.0,0.0,0.0,0.0,2.1026,2.064,2.1669,2.1232,2.0953,2.0944,0.0,0.0,0.0,0.0,0.0,0.0,0.0,0.0,0.0,0.0,0.0,0.0,0.0,0.0,0.0,0.0,0.0,0.0,2.5931,2.5655,2.539,2.5388,2.5441,2.5508,2.5559,2.5574,2.5558,2.5488,2.5492,2.5488,2.5173,2.5092,2.4956,2.4417,2.4291,2.4118,2.3524,2.3386,2.3316,2.3124,2.3346,2.3566,2.3566,2.5143,2.6103,2.5044,2.5992,2.6704,2.6165,2.5604,2.5708,2.6916,2.5811,2.5224,2.591,2.4846,2.3857,2.3203,2.3106,2.2625,2.1601,2.1521,2.1306,2.0829,2.0416,2.0054,1.9711,1.969,1.969,1.969,1.969,1.9639,1.9566,1.9132,1.8817,1.865,1.8224,1.7947,1.7867,1.7394,1.7188,1.7136,1.6492,1.6098,1.6023,1.6606,1.6531,1.6155,0.0,0.0,0.0,0.0,0.0,0.0,0.0,0.0,0.0,0.0,2.4608,2.5693,0.0,0.0,0.0,0.0,0.0,0.0,0.0,0.0,0.0,0.0,2.1556,2.1504,2.1683,2.1602,2.1568,2.1568,2.1773,2.1746,0.0,0.0,0.0,0.0,0.0,0.0,0.0,0.0,0.0,0.0,0.0,0.0,0.0,0.0,0.0,0.0,2.7785,2.733,2.6816,2.6185,2.5716,2.5414,2.5437,2.5439,2.541,2.5284,2.5253,2.5166,2.4667,2.4543,2.4389,2.3805,2.3666,2.3503,2.2957,2.2838,2.2754,2.2517,2.2695,2.2855,2.2855,2.4413,2.5625,2.5407,2.642,2.6978,2.6264,2.6302,2.6282,2.5926,2.5125,2.4649,2.4768,2.3154,2.2032,2.1917,2.1595,2.131,2.1134,2.1086,2.0731,1.9945,1.9854,1.9782,1.969,1.969,1.969,1.969,1.969,1.9479,1.9043,1.893,1.8419,1.7585,1.7463,1.7188,1.6752,1.668,1.6637,1.6587,1.603,1.55,1.521,1.6201,1.651,1.6473,0.0,0.0,0.0,0.0,0.0,0.0,0.0,2.2632,2.3139,2.3866,2.4915,2.5744,2.6099,2.6252,2.6262,0.0,0.0,0.0,0.0,0.0,0.0,0.0,0.0,2.2243,2.2239,2.2564,2.2564,2.2193,0.0,2.2884,2.222,2.1557,2.0912,2.0316,1.964,1.929,1.9262,1.9262,2.0065,2.1424,2.277,2.4346,0.0,0.0,0.0,0.0,0.0,2.7817,2.7188,2.6805,2.613,2.5418,2.5207,2.5137,2.5085,2.4841,2.4777,2.4667,2.4085,2.3787,2.3464,2.2906,2.2783,2.265,2.2224,2.2303,2.2566,2.2813,2.31,2.3457,2.3811,2.5102,2.6055,2.5845,2.6648,2.7103,2.6539,2.6387,2.6198,2.5864,2.491,2.4131,2.3802,2.259,2.1681,2.1308,2.1118,2.0894,2.0649,2.0431,2.0139,1.9711,1.969,1.969,1.969,1.9406,1.9281,1.9281,1.9006,1.8893,1.8893,1.8341,1.7947,1.7706,1.7105,1.6752,1.6522,1.6522,1.6522,1.6497,1.6233,1.5944,1.5776,1.6915,1.7101,1.6922,0.0,0.0,0.0,0.0,0.0,0.0,0.0,2.2801,2.3329,2.3826,2.4765,2.539,2.5445,2.5794,2.6026,0.0,0.0,0.0,0.0,0.0,0.0,0.0,0.0,2.2875,2.2875,0.0,0.0,2.2875,2.3911,0.0,0.0,0.0,0.0,0.0,1.9811,1.9493,1.9373,1.9373,2.06,0.0,0.0,2.527,0.0,0.0,0.0,0.0,0.0,2.7885,2.7326,2.714,2.6506,2.5671,2.5181,2.4854,2.4593,2.4302,2.4214,2.4068,2.3379,2.2953,2.2571,2.2018,2.1869,2.1828,2.1642,2.1899,2.2382,2.3241,2.3608,2.4029,2.477,2.5744,2.6353,2.6044,2.6664,2.7051,2.6758,2.6297,2.5947,2.5799,2.479,2.3786,2.2959,2.2264,2.1575,2.0909,2.0764,2.0599,2.0314,1.9909,1.969,1.969,1.969,1.969,1.969,1.9281,1.908,1.9043,1.8535,1.8419,1.8688,1.7747,1.7463,1.7706,1.6879,1.6552,1.668,1.668,1.6752,1.6837,1.6837,1.6725,1.6625,1.7728,1.7758,1.7441,0.0,0.0,0.0,0.0,0.0,0.0,0.0,2.2361,2.2269,2.19,2.3452,2.4704,2.5029,2.562,2.6077,0.0,0.0,0.0,0.0,0.0,0.0,0.0,0.0,0.0,0.0,0.0,0.0,2.3508,2.3611,0.0,0.0,0.0,0.0,0.0,0.0,2.1617,2.1252,2.1252,0.0,0.0,0.0,0.0,0.0,0.0,0.0,0.0,0.0,2.7897,2.7709,2.6988,2.6677,2.6463,2.5679,2.4719,2.3861,2.3646,2.3583,2.3376,2.247,2.2201,2.2006,2.1274,2.1118,2.1181,2.1521,2.1628,2.1993,2.3165,2.3422,2.3672,2.4401,2.5178,2.5688,2.5641,2.6283,2.6758,2.6691,2.6297,2.5766,2.5175,2.4482,2.3578,2.2322,2.167,2.1078,2.0395,2.0035,1.998,2.028,1.9909,1.969,1.969,1.969,1.969,1.969,1.9639,1.9639,1.9603,1.908,1.8612,1.8145,1.7585,1.7076,1.6637,1.6552,1.6795,1.7229,1.7229,1.7504,1.7947,1.7947,1.7655,1.7277,1.7885,1.8064,1.8007,0.0,0.0,0.0,0.0,0.0,0.0,2.1928,2.1899,2.1883,2.1907,2.2916,2.4061,2.5078,2.5445,2.5831,2.6262,0.0,0.0,0.0,0.0,0.0,0.0,0.0,0.0,0.0,0.0,2.3752,2.4074,2.4074,0.0,0.0,0.0,0.0,0.0,0.0,2.2467,2.2547,2.2773,0.0,0.0,0.0,0.0,0.0,0.0,0.0,0.0,0.0,0.0,2.7844,2.7515,2.6968,2.633,2.6016,2.5135,2.4095,2.3502,2.2998,2.2496,2.1648,2.1241,2.0959,2.0634,2.0583,2.0682,2.115,2.1756,2.2592,2.3823,2.4408,2.4949,2.5676,2.6065,2.6251,2.6251,2.6505,2.659,2.6332,2.6192,2.576,2.477,2.448,2.3738,2.2009,2.1667,2.1113,2.0021,1.9782,1.9782,1.9929,1.9782,1.969,1.969,1.969,1.969,1.969,1.9369,1.9207,1.9207,1.865,1.8496,1.8574,1.8027,1.7827,1.7947,1.7585,1.7394,1.7353,1.7666,1.7706,1.7666,1.7987,1.7954,1.7852,1.8359,1.8569,1.8636,0.0,0.0,0.0,0.0,0.0,2.1974,2.1658,2.1491,2.1518,2.1818,2.2585,2.361,2.4923,2.5462,2.5866,2.6313,2.5264,0.0,0.0,0.0,0.0,0.0,0.0,0.0,0.0,0.0,2.4032,2.4389,2.4552,2.4625,0.0,0.0,2.4587,2.4017,0.0,0.0,0.0,0.0,0.0,0.0,0.0,0.0,0.0,0.0,0.0,0.0,0.0,0.0,0.0,0.0,0.0,2.6341,2.6341,2.5641,2.4613,2.3647,2.2862,2.2069,2.11,2.0472,2.0024,1.9728,1.9763,2.0104,2.0903,2.1843,2.2946,2.45,2.5236,2.5828,2.6556,2.6691,2.6691,2.6691,2.6877,2.6841,2.6327,2.6403,2.6059,2.4818,2.4665,2.3864,2.1889,2.1335,2.0707,1.975,1.969,1.969,1.969,1.969,1.969,1.969,1.969,1.969,1.969,1.9332,1.9132,1.9132,1.8574,1.8535,1.8893,1.8341,1.8302,1.865,1.8263,1.7907,1.7585,1.8145,1.8106,1.7827,1.838,1.8574,1.8612,1.9006,1.9132,1.9207,0.0,0.0,0.0,0.0,0.0,0.0,2.1582,2.1244,2.1083,2.1279,2.2339,2.3465,2.4411,2.5629,2.6406,2.6463,2.5318,0.0,0.0,0.0,0.0,0.0,0.0,0.0,0.0,0.0,2.4389,2.4389,2.4934,2.5384,2.5815,2.6269,2.6309,2.5999,0.0,0.0,0.0,0.0,0.0,0.0,0.0,0.0,0.0,0.0,0.0,0.0,0.0,0.0,0.0,0.0,0.0,0.0,0.0,2.6184,2.5343,2.4067,2.3226,2.2362,2.0889,2.0085,1.9353,1.8352,1.8535,1.9309,2.0921,2.1732,2.2768,2.511,2.5609,2.5828,2.6556,2.6691,2.6691,2.6691,2.7317,2.7578,2.6977,2.7114,2.6814,2.5563,2.4909,2.3864,2.1889,2.0483,1.9741,1.969,1.969,1.969,1.969,1.969,1.969,1.969,1.969,1.969,1.969,1.969,1.969,1.969,1.9169,1.8893,1.8893,1.8341,1.8106,1.8106,1.8106,1.8106,1.8145,1.865,1.8893,1.893,1.9479,1.969,1.969,1.969,1.969,1.969,0.0,0.0,0.0,0.0,0.0,0.0,0.0,2.0976,2.114,2.0909,2.2284,2.342,2.374,2.535,2.6421,2.6421,2.6137,0.0,0.0,0.0,0.0,0.0,0.0,0.0,0.0,0.0,2.5505,2.5832,2.6286,2.6751,2.723,2.74,2.7397,2.7296,2.7139,2.6986,0.0,0.0,0.0,0.0,0.0,0.0,0.0,0.0,0.0,0.0,0.0,0.0,0.0,0.0,0.0,0.0,0.0,0.0,0.0,2.5053,2.3894,2.2716,2.1599,2.0853,2.028,1.9957,1.9998,2.0429,2.1596,2.2702,2.3918,2.5328,2.5998,2.642,2.6657,2.6691,2.686,2.7385,2.7672,2.7799,2.7783,2.7518,2.6814,2.5633,2.3781,2.2383,2.1754,2.0483,1.969,1.969,1.969,1.969,1.969,1.969,1.969,1.969,1.969,1.969,1.969,1.969,1.969,1.969,1.953,1.9442,1.9442,1.9281,1.9207,1.9207,1.9207,1.9006,1.8688,1.9244,1.9244,1.8968,1.9479,1.969,1.969,1.969,1.969,1.969,0.0,0.0,0.0,0.0,0.0,0.0,0.0,2.0512,2.0843,2.1265,2.2332,2.3297,2.4006,2.5425,2.6361,2.6406,2.6687,0.0,0.0,0.0,0.0,0.0,0.0,0.0,0.0,2.5834,2.6421,2.6751,2.7178,2.7648,2.8075,2.8075,2.8174,2.829,2.8015,2.787,0.0,0.0,0.0,0.0,0.0,0.0,0.0,0.0,0.0,0.0,0.0,0.0,0.0,0.0,0.0,0.0,0.0,0.0,0.0,0.0,2.4575,2.3565,2.2164,2.1301,2.0752,2.0528,2.0612,2.1097,2.2302,2.3433,2.4535,2.5765,2.6387,2.6691,2.6691,2.6691,2.6843,2.7317,2.7875,2.8219,2.8185,2.807,2.7313,2.5332,2.3295,2.1874,2.138,2.0333,1.969,1.969,1.969,1.969,1.969,1.969,1.969,1.969,1.969,1.969,1.969,1.969,1.969,1.969,1.969,1.969,1.969,1.969,1.969,1.969,1.969,1.9406,0.0,1.9479,1.9369,1.8968,1.9479,1.969,1.969,1.969,1.969,1.969,0.0,0.0,0.0,0.0,0.0,0.0,0.0,2.0065,2.0476,2.2226,2.2502,2.3258,2.5061,2.5838,2.6297,2.6492,0.0,0.0,0.0,0.0,0.0,0.0,0.0,0.0,2.5933,2.6766,2.7222,2.7274,2.7677,2.804,2.8355,2.8301,2.8512,2.8902,2.8902,2.8938,0.0,0.0,0.0,0.0,0.0,0.0,0.0,0.0,0.0,0.0,0.0,0.0,0.0,0.0,0.0,0.0,0.0,0.0,0.0,0.0,0.0,0.0,0.0,2.1541,2.091,2.0428,2.0685,2.1524,2.3087,2.3903,0.0,2.6353,2.6691,2.6691,2.6691,2.6691,2.6708,2.6759,2.7977,2.8743,2.8213,2.8622,2.7835,2.4708,2.3366,2.2139,2.0842,2.013,1.9711,1.969,1.969,1.969,1.969,1.969,1.969,1.969,1.969,1.969,1.969,1.969,1.969,1.969,1.969,1.969,1.969,1.969,1.969,1.969,1.969,1.9406,1.9006,1.9479,1.9406,1.9006,1.953,1.969,1.969,1.969,1.969,1.969,0.0,0.0,0.0,0.0,0.0,0.0,0.0,0.0,0.0,0.0,2.3694,2.4642,2.5717,2.6363,2.702,0.0,0.0,0.0,0.0,0.0,0.0,0.0,0.0,0.0,2.723,2.7824,2.8398,2.9016,2.8214,2.7861,2.7931,2.7309,2.7409,2.8081,2.8081,2.8429,0.0,0.0,0.0,0.0,0.0,0.0,0.0,0.0,0.0,0.0,2.7794,2.756,0.0,0.0,0.0,0.0,0.0,0.0,0.0,0.0,2.5221,2.4902,2.3556,0.0,2.2262,2.2114,2.2484,2.3113,0.0,2.4808,2.5782,2.6539,2.6691,2.6691,2.6691,2.6691,2.6877,2.7469,2.7858,2.8262,2.8727,2.7767,2.6142,2.3904,2.2886,2.1949,2.0835,2.0375,2.0035,1.9711,1.969,1.969,1.969,1.969,1.969,1.969,1.969,1.969,1.969,1.969,1.969,1.969,1.969,1.969,1.969,1.969,1.969,1.969,1.969,1.9639,1.953,1.9639,1.9639,1.953,1.9639,1.969,1.969,1.969,1.969,1.969,0.0,0.0,0.0,0.0,0.0,0.0,0.0,0.0,0.0,0.0,0.0,2.4894,2.618,2.6595,0.0,0.0,0.0,0.0,0.0,0.0,0.0,0.0,0.0,2.775,2.8019,2.847,2.89,2.9319,2.8667,2.8154,2.7787,2.7732,2.775,2.7824,2.8191,2.8594,0.0,0.0,0.0,0.0,0.0,0.0,0.0,0.0,0.0,0.0,2.8058,2.7402,0.0,2.6723,2.6282,2.5744,0.0,0.0,0.0,0.0,2.5577,2.5373,2.4552,2.3933,2.3463,2.3463,2.3888,2.4393,2.4932,2.5529,2.612,2.6624,2.6691,2.6758,2.6939,2.6971,2.7156,2.7762,2.7961,2.8152,2.8418,2.7425,2.596,2.4002,2.293,2.1903,2.082,2.0282,1.9929,1.9726,1.969,1.969,1.969,1.969,1.969,1.969,1.969,1.969,1.969,1.969,1.969,1.969,1.969,1.969,1.969,1.969,1.969,1.969,1.969,1.969,1.969,1.969,1.969,1.969,1.969,1.969,1.969,1.969,1.969,1.969,0.0,0.0,0.0,0.0,0.0,0.0,0.0,0.0,0.0,0.0,0.0,0.0,0.0,0.0,0.0,0.0,0.0,0.0,0.0,0.0,0.0,0.0,2.8566,2.8806,2.8575,2.887,2.9049,2.9177,2.881,2.8282,2.7622,2.8062,2.8044,2.7658,2.8594,2.8994,0.0,0.0,0.0,0.0,0.0,0.0,0.0,0.0,0.0,0.0,0.0,0.0,0.0,2.6185,2.5609,2.478,2.5541,0.0,0.0,0.0,0.0,0.0,2.5416,2.5057,2.4768,2.4641,2.5057,2.5623,2.6054,2.6212,2.6402,2.6791,2.6873,2.7004,2.7317,2.7378,2.75,2.784,2.8089,2.8111,2.7777,2.7267,2.6245,2.4378,2.3222,2.2086,2.0752,2.0258,1.9909,1.9711,1.9747,1.9747,1.969,1.969,1.969,1.969,1.969,1.969,1.969,1.969,1.969,1.969,1.969,1.969,1.969,1.9747,1.9747,1.9711,1.9747,1.9747,1.9711,1.9782,1.9782,1.9818,1.9889,1.9839,1.9782,1.9782,1.9782,1.9782,0.0,0.0,0.0,0.0,0.0,0.0,0.0,0.0,0.0,0.0,0.0,0.0,0.0,0.0,0.0,0.0,0.0,0.0,0.0,0.0,0.0,2.9554,2.8863,2.8783,2.9421,2.9144,2.9347,3.0026,2.797,2.6924,2.6759,2.5529,2.5603,2.6851,2.8333,2.8994,2.8994,0.0,0.0,0.0,2.9305,0.0,0.0,0.0,0.0,0.0,0.0,0.0,0.0,2.6748,2.6367,2.5558,2.6302,0.0,0.0,0.0,0.0,0.0,2.5832,2.6184,2.6504,2.5779,2.6218,2.6813,2.6926,2.7291,2.7648,2.7707,2.7725,2.7736,2.7811,2.7811,2.784,2.7897,2.7665,2.7445,2.7382,2.6673,2.5615,2.4131,2.3669,2.268,2.0574,2.0942,2.0846,1.9782,2.0035,2.0054,1.9711,1.969,1.969,1.969,1.969,1.969,1.969,1.969,1.969,1.969,1.969,1.969,1.9711,2.0054,2.0035,1.9711,2.0054,2.0,1.9726,2.007,2.0227,2.0261,2.0632,2.0565,2.0227,2.0227,2.0227,2.0227,0.0,0.0,0.0,0.0,0.0,0.0,0.0,0.0,0.0,0.0,0.0,0.0,0.0,0.0,0.0,0.0,0.0,0.0,0.0,0.0,2.997,2.9917,2.9374,2.9237,2.9504,2.8842,2.8639,2.8888,2.7365,2.6374,2.5933,2.564,2.6355,2.7934,2.8663,2.8994,2.8994,2.8994,0.0,0.0,0.0,0.0,0.0,0.0,0.0,0.0,0.0,0.0,0.0,0.0,2.5026,2.4475,2.4814,0.0,0.0,0.0,0.0,0.0,2.6914,2.7455,2.7924,2.7511,2.7558,2.7715,2.7879,2.7995,2.8076,2.8076,2.7984,2.7954,2.8129,2.8183,2.8102,2.7926,2.7736,2.733,2.6487,2.6049,2.5279,2.3951,2.3424,2.2639,2.1331,2.1036,2.0634,2.007,2.0,1.9909,1.9726,1.969,1.969,1.969,1.9909,2.0019,2.0019,2.0019,1.9909,1.969,1.969,1.969,1.9711,2.0124,2.0177,2.007,2.0499,2.0565,2.0413,2.0599,2.0682,2.0698,2.0926,2.0862,2.0682,2.0682,2.0682,2.0682,0.0,0.0,0.0,0.0,0.0,0.0,0.0,0.0,0.0,0.0,0.0,0.0,0.0,0.0,0.0,0.0,0.0,0.0,0.0,0.0,2.9779,2.9779,2.9678,2.9458,2.9096,2.8445,2.7877,2.7405,2.66,2.5905,2.5301,2.6124,2.7281,2.8741,2.8925,2.8994,2.8994,2.8994,2.9714,0.0,0.0,0.0,0.0,0.0,0.0,0.0,0.0,0.0,0.0,0.0,0.0,0.0,0.0,0.0,0.0,2.5828,2.6539,2.7338,2.7652,2.8323,2.8946,2.8993,2.8764,2.8617,2.8805,2.8691,2.8542,2.8488,2.8355,2.8316,2.8496,2.854,2.8438,2.8075,2.7954,2.7385,2.5948,2.5673,2.5108,2.3801,2.3187,2.2617,2.1972,2.1229,2.0667,2.0483,2.0261,2.007,1.9839,1.9839,1.9839,1.9839,2.0158,2.0348,2.0449,2.0449,2.0261,1.9839,1.9747,1.9747,1.9839,2.0246,2.0449,2.0483,2.0943,2.1086,2.1007,2.1086,2.115,2.115,2.126,2.126,2.115,2.115,2.115,2.115,0.0,0.0,0.0,0.0,0.0,0.0,0.0,0.0,0.0,0.0,0.0,0.0,0.0,0.0,0.0,0.0,0.0,0.0,0.0,0.0,2.9446,2.9446,2.9431,2.9041,2.8221,2.8128,2.7481,2.6217,2.5416,2.5,2.4964,2.5764,2.6754,2.7915,2.8686,2.8994,2.8994,2.8994,2.9067,2.9214,0.0,0.0,0.0,0.0,0.0,0.0,0.0,0.0,0.0,0.0,0.0,0.0,0.0,0.0,2.5063,2.5092,2.6082,2.7209,2.7252,2.8274,2.9395,2.9588,2.9605,2.9587,2.9605,2.9605,2.9551,2.9336,2.9293,2.9228,2.8998,2.897,2.8839,2.842,2.8102,2.7472,2.6311,2.5846,2.5053,2.3617,2.3397,2.2882,2.173,2.1932,2.1811,2.0991,2.1275,2.1102,2.0314,2.0246,2.0246,2.0246,2.028,2.0516,2.0959,2.0959,2.0731,2.0246,1.9874,1.9909,2.028,2.0731,2.0959,2.0959,2.1368,2.1337,2.1039,2.1399,2.1552,2.1598,2.2049,2.1928,2.1552,2.1552,2.1552,2.1552,0.0,0.0,0.0,0.0,0.0,0.0,0.0,0.0,0.0,0.0,0.0,0.0,0.0,0.0,0.0,0.0,0.0,0.0,0.0,2.8454,2.8835,2.9394,2.9282,2.8773,2.7793,2.7354,2.6319,2.466,2.4568,2.4902,2.5664,2.6686,2.7661,2.8576,2.8847,2.8994,2.8994,2.8994,2.9287,2.9732,2.9549,0.0,0.0,0.0,0.0,0.0,0.0,0.0,0.0,0.0,2.3624,2.3721,2.3824,2.4542,2.5261,2.5002,2.6025,2.7236,2.7505,2.847,2.9433,2.9494,2.9696,2.9924,3.0099,3.0003,2.9829,2.9644,2.9474,2.931,2.9044,2.8815,2.8515,2.8156,2.7765,2.6961,2.536,2.5023,2.4374,2.2902,2.2733,2.2541,2.2094,2.1928,2.1735,2.1399,2.1275,2.1086,2.0764,2.0731,2.0731,2.0731,2.0975,2.1197,2.1368,2.1368,2.129,2.1102,2.0698,2.0599,2.0764,2.1181,2.1368,2.1399,2.184,2.1945,2.1811,2.1974,2.2032,2.2032,2.2237,2.218,2.2032,2.2032,2.2032,2.2032,0.0,0.0,0.0,0.0,0.0,0.0,0.0,0.0,0.0,0.0,0.0,0.0,0.0,0.0,0.0,0.0,0.0,0.0,2.7599,2.7823,2.8172,2.8698,2.8717,2.8158,2.6925,2.6183,2.512,2.3626,2.3624,2.4421,2.5961,2.6845,2.7757,2.8631,2.8631,2.8631,2.8631,2.8631,2.909,2.9764,2.9357,2.9436,0.0,0.0,0.0,0.0,0.0,0.0,0.0,0.0,2.3265,2.3632,2.3353,2.4056,2.4931,2.4905,2.5891,2.7131,2.7669,2.8574,2.9433,2.9493,2.9765,3.0061,3.0222,3.0196,3.0047,2.9765,2.9456,2.9203,2.9021,2.8658,2.829,2.7936,2.756,2.6644,2.4771,2.4506,2.3934,2.2496,2.231,2.231,2.231,2.2003,2.1823,2.1823,2.1584,2.1354,2.1181,2.1181,2.1181,2.1181,2.146,2.1658,2.1823,2.1823,2.1823,2.1823,2.1538,2.1323,2.1213,2.146,2.1688,2.1823,2.2163,2.231,2.231,2.231,2.231,2.231,2.231,2.231,2.231,2.231,2.231,2.231,0.0,0.0,0.0,0.0,0.0,0.0,0.0,0.0,0.0,0.0,0.0,0.0,0.0,0.0,0.0,0.0,0.0,0.0,2.6597,2.72,2.7451,2.7211,2.7647,2.7128,2.5439,2.4771,2.4024,2.3207,2.2479,2.3333,2.561,2.5961,2.6718,2.7787,2.7787,2.7787,2.7787,2.7787,2.8246,2.9007,2.9424,2.9348,0.0,0.0,0.0,0.0,0.0,0.0,0.0,0.0,2.3819,2.333,2.406,2.4034,2.3873,2.4667,2.5721,2.6796,2.7585,2.8593,2.9454,2.9643,2.9845,2.9999,2.9999,3.0209,3.0273,2.9799,2.9316,2.8994,2.8994,2.8658,2.829,2.7954,2.7577,2.6644,2.4788,2.4506,2.3951,2.2496,2.231,2.231,2.231,2.231,2.231,2.231,2.231,2.2106,2.1628,2.1628,2.1628,2.1628,2.1628,2.1823,2.2282,2.231,2.231,2.231,2.231,2.2061,2.1628,2.1628,2.1869,2.231,2.231,2.231,2.231,2.231,2.231,2.231,2.231,2.231,2.231,2.231,2.231,2.231,0.0,0.0,0.0,0.0,0.0,0.0,0.0,0.0,0.0,0.0,0.0,0.0,0.0,0.0,0.0,0.0,0.0,0.0,2.5642,2.5652,2.6056,2.6881,2.6792,2.6718,2.675,2.5712,2.455,2.3277,2.3998,2.4967,2.6194,2.708,2.7392,2.7153,2.7027,2.6961,2.6961,2.6961,2.742,2.815,2.7967,2.8182,0.0,0.0,0.0,0.0,0.0,0.0,0.0,0.0,0.0,0.0,2.3993,2.4733,2.568,2.5353,2.6274,2.7493,2.7732,2.846,2.9181,2.9434,2.9514,2.9626,2.9765,2.9973,3.0003,2.9589,2.8997,2.8565,2.8565,2.8057,2.7572,2.75,2.7147,2.6517,2.5438,2.4814,2.4137,2.319,2.2632,2.231,2.231,2.231,2.231,2.231,2.231,2.2237,2.2106,2.2106,2.2106,2.2106,2.2106,2.2163,2.231,2.231,2.231,2.231,2.231,2.2237,2.2106,2.2106,2.218,2.231,2.231,2.231,2.231,2.231,2.231,2.231,2.231,2.231,2.231,2.231,2.231,2.231,0.0,0.0,0.0,0.0,0.0,0.0,0.0,0.0,0.0,0.0,0.0,0.0,0.0,0.0,0.0,0.0,0.0,0.0,0.0,2.4461,2.4977,2.6043,2.6167,2.6398,2.6827,2.6083,2.533,2.4646,2.4885,2.5488,2.6392,2.6914,2.6879,2.6414,2.6221,2.6117,2.6117,2.6117,2.6512,2.7096,2.6693,2.6839,2.7173,0.0,0.0,0.0,0.0,0.0,0.0,0.0,0.0,0.0,2.4987,2.5661,2.6576,2.6392,2.7082,2.7978,2.8329,2.879,2.9225,2.9455,2.9454,2.9434,2.9551,2.9678,2.9696,2.9454,2.886,2.8394,2.8394,2.7805,2.7303,2.7303,2.6971,2.6437,2.571,2.522,2.4543,2.3511,2.3004,2.2632,2.2344,2.231,2.231,2.231,2.231,2.231,2.231,2.231,2.231,2.231,2.231,2.231,2.231,2.231,2.231,2.231,2.231,2.231,2.231,2.231,2.231,2.231,2.231,2.231,2.231,2.231,2.231,2.231,2.231,2.231,2.231,2.231,2.231,2.231,0.0,0.0,0.0,0.0,0.0,0.0,0.0,0.0,0.0,0.0,0.0,0.0,0.0,0.0,0.0,0.0,0.0,0.0,0.0,0.0,2.4227,2.4971,2.586,2.6318,2.6255,2.6237,2.6409,2.6836,2.5492,2.536,2.6434,2.595,2.5687,2.5577,2.5372,2.5293,2.5293,2.5252,2.5528,2.5948,2.5522,2.5428,2.5544,2.5514,0.0,0.0,0.0,0.0,0.0,0.0,0.0,0.0,2.6631,2.6704,2.6961,2.7603,2.798,2.835,2.9148,2.9372,2.9414,2.9607,2.9551,2.9392,2.9372,2.9372,2.9351,2.9312,2.8814,2.8324,2.8316,2.7718,2.7241,2.7241,2.6939,2.6471,2.5795,2.5642,2.5101,2.3765,2.3477,2.3139,2.2479,2.2344,2.231,2.231,2.231,2.231,2.231,2.231,2.231,2.231,2.231,2.231,2.231,2.231,2.231,2.231,2.231,2.231,2.231,2.231,2.231,2.231,2.231,2.231,2.231,2.231,2.231,2.231,2.231,2.231,2.231,2.231,2.231,2.231,0.0,0.0,0.0,0.0,0.0,0.0,0.0,0.0,0.0,0.0,0.0,0.0,0.0,0.0,0.0,0.0,0.0,0.0,0.0,0.0,2.4254,2.5056,2.6654,2.7518,2.7511,2.7745,2.7932,2.8036,2.6891,2.6488,2.6785,2.6197,2.5517,2.4739,2.4543,2.4447,2.4447,2.4172,2.448,2.509,2.4505,2.4634,2.5174,2.4859,2.4734,0.0,0.0,0.0,0.0,0.0,0.0,0.0,2.6796,2.7475,2.8388,2.7934,2.8272,2.885,2.9052,2.9089,2.9156,2.9394,2.9434,2.9351,2.9134,2.9089,2.9003,2.867,2.8272,2.7908,2.7572,2.7129,2.6841,2.6841,2.6758,2.664,2.6488,2.5981,2.549,2.5169,2.4103,2.3342,2.3173,2.2649,2.231,2.231,2.231,2.231,2.231,2.231,2.231,2.231,2.231,2.231,2.231,2.231,2.231,2.231,2.231,2.231,2.231,2.231,2.231,2.231,2.231,2.231,2.231,2.231,2.231,2.231,2.231,2.231,2.231,2.231,2.231,2.231,0.0,0.0,0.0,0.0,0.0,0.0,0.0,0.0,0.0,0.0,0.0,0.0,0.0,0.0,0.0,0.0,0.0,0.0,0.0,2.3093,2.3981,2.5516,2.7237,2.8228,2.843,2.8608,2.8682,2.8682,2.7444,2.6879,2.6879,2.6184,2.5377,2.4495,2.4284,2.4113,2.3937,2.3774,2.3755,2.3808,2.3476,2.3515,2.379,2.4093,2.4201,2.431,2.5035,0.0,0.0,0.0,0.0,0.0,0.0,0.0,2.892,2.8503,2.8758,2.9181,2.9181,2.9181,2.9181,2.9222,2.9203,2.9115,2.8797,2.8439,2.8027,2.745,2.7642,2.7783,2.7378,2.6971,2.6691,2.6691,2.6691,2.6691,2.6691,2.637,2.5862,2.5152,2.4374,2.3646,2.2936,2.253,2.231,2.231,2.231,2.231,2.231,2.231,2.231,2.231,2.231,2.231,2.231,2.231,2.231,2.231,2.231,2.231,2.231,2.231,2.231,2.231,2.231,2.231,2.231,2.231,2.231,2.231,2.231,2.231,2.231,2.231,2.231,2.231,0.0,0.0,0.0,0.0,0.0,0.0,0.0,0.0,0.0,0.0,0.0,0.0,0.0,0.0,0.0,0.0,0.0,0.0,0.0,2.3092,2.4208,2.6201,2.7694,2.8658,2.8994,2.8847,2.8796,2.8796,2.7502,2.6859,2.6822,2.593,2.5112,2.4426,2.421,2.3976,2.3692,2.3566,2.3212,2.2695,2.2695,2.2563,2.2483,2.3421,2.3797,2.3911,2.5023,2.6004,2.6832,2.7025,0.0,0.0,0.0,0.0,2.881,2.8892,2.9052,2.923,2.923,2.927,2.9267,2.9062,2.8952,2.8815,2.8471,2.7871,2.7225,2.6545,2.6959,2.7326,2.7047,2.6751,2.6539,2.6674,2.6691,2.6691,2.6691,2.659,2.6048,2.4814,2.4489,2.3816,2.2615,2.2378,2.231,2.231,2.231,2.231,2.231,2.231,2.231,2.231,2.231,2.231,2.231,2.231,2.231,2.231,2.231,2.231,2.231,2.231,2.231,2.231,2.231,2.231,2.231,2.231,2.231,2.231,2.231,2.231,2.231,2.231,2.231,2.231,0.0,0.0,0.0,0.0,0.0,0.0,0.0,0.0,0.0,0.0,0.0,2.3312,2.3419,2.313,0.0,0.0,0.0,0.0,2.3117,0.0,0.0,2.7013,2.8257,2.8952,2.8994,2.8319,2.7952,2.7952,2.7056,2.6636,2.6599,2.5282,2.4503,2.4228,2.3917,2.3735,2.3671,2.3069,2.2772,2.2695,2.2695,2.2669,2.2686,2.3119,2.3276,2.343,2.4556,2.5072,2.5362,2.6352,2.679,0.0,0.0,0.0,2.8036,2.839,2.8496,2.8529,2.8529,2.8779,2.9044,2.9017,2.8749,2.8471,2.842,2.8094,2.7692,2.7239,2.6266,2.5536,2.5768,2.5776,2.5964,2.659,2.6691,2.6691,2.6691,2.615,2.5676,2.549,2.4323,2.346,2.3274,2.2682,2.231,2.231,2.231,2.231,2.231,2.231,2.231,2.231,2.231,2.231,2.231,2.231,2.231,2.231,2.231,2.231,2.231,2.231,2.231,2.231,2.231,2.231,2.231,2.231,2.231,2.231,2.231,2.231,2.231,2.231,2.231,2.231,0.0,0.0,0.0,0.0,0.0,0.0,0.0,0.0,0.0,0.0,0.0,2.3661,2.4109,2.3454,0.0,0.0,0.0,0.0,2.3459,2.4886,0.0,2.618,2.7574,2.8117,2.7677,2.775,2.7585,2.7126,2.6319,2.5933,2.5897,2.4819,2.443,2.4608,2.4444,2.4019,2.3392,2.3117,2.2972,2.2972,2.2972,2.326,2.3643,2.3506,2.3768,2.4167,2.4417,2.4796,2.5275,2.5745,2.6227,2.6667,2.7016,0.0,0.0,0.0,2.7905,2.8129,2.8129,2.8255,2.836,2.836,2.8255,2.8075,2.7833,2.7344,2.6842,2.6433,2.5514,2.506,2.603,2.6218,2.6319,2.664,2.6691,2.6691,2.6691,2.642,2.6065,2.5659,2.4661,2.3849,2.3427,2.2733,2.231,2.231,2.231,2.231,2.231,2.231,2.231,2.231,2.231,2.231,2.231,2.231,2.231,2.231,2.231,2.231,2.231,2.231,2.231,2.231,2.231,2.231,2.231,2.231,2.2388,2.25,2.2377,2.2388,2.25,2.2349,2.231,2.231,0.0,0.0,0.0,0.0,0.0,0.0,0.0,0.0,0.0,0.0,0.0,0.0,2.4392,0.0,0.0,0.0,0.0,0.0,2.3795,0.0,0.0,0.0,0.0,2.742,2.6631,2.7181,2.709,2.63,2.5474,2.5201,2.5403,2.4777,2.4655,2.4883,2.4685,2.4123,2.3323,2.3253,2.3218,2.331,2.3616,2.4118,2.4676,2.4634,2.4951,2.5327,2.4779,2.4928,2.5384,2.5164,2.5493,2.6004,2.6124,2.6368,0.0,0.0,0.0,2.7507,2.7701,2.7953,2.818,2.818,2.8094,2.7947,2.7643,2.6916,2.6227,2.5944,2.5439,2.5389,2.6488,2.6539,2.6471,2.6657,2.6691,2.6691,2.6691,2.6539,2.6218,2.5676,2.4949,2.4286,2.3714,2.3004,2.2581,2.2581,2.2412,2.231,2.231,2.231,2.231,2.231,2.231,2.231,2.231,2.231,2.231,2.231,2.231,2.2349,2.2415,2.2321,2.2349,2.2415,2.2321,2.231,2.231,2.236,2.2527,2.2695,2.2581,2.259,2.2686,2.249,2.2377,2.231,0.0,0.0,0.0,0.0,0.0,0.0,0.0,0.0,0.0,0.0,0.0,0.0,2.3265,2.3248,2.3346,2.3649,0.0,0.0,0.0,0.0,0.0,0.0,0.0,0.0,2.6631,2.6649,2.6264,2.5476,2.4649,2.4649,2.5403,2.5366,2.5166,2.4865,2.4089,2.3728,2.3649,2.3346,2.332,2.3587,2.4734,2.5281,2.5574,2.6691,2.6979,2.6674,2.5891,2.5523,2.5293,2.452,2.4281,2.4408,2.4849,2.5014,2.5039,0.0,0.0,0.0,2.7126,2.8115,2.8947,2.8947,2.8644,2.8362,2.8362,2.7483,2.6674,2.664,2.6607,2.6607,2.6674,2.6133,2.5896,2.659,2.6691,2.6691,2.6691,2.6099,2.5642,2.5609,2.4949,2.4489,2.4455,2.3765,2.3342,2.3342,2.2699,2.231,2.231,2.231,2.231,2.231,2.231,2.231,2.231,2.231,2.231,2.231,2.231,2.2409,2.2669,2.2426,2.2453,2.266,2.2398,2.231,2.2338,2.2573,2.2695,2.2721,2.3021,2.2972,2.2695,2.2669,2.2527,2.231,0.0,0.0,0.0,0.0,0.0,0.0,0.0,0.0,0.0,0.0,0.0,0.0,0.0,2.4155,2.421,2.4211,2.4096,0.0,0.0,0.0,0.0,0.0,0.0,0.0,2.5841,2.6337,2.6209,2.5403,2.4379,2.4142,2.463,2.4415,2.4374,2.4433,2.4465,2.4251,2.3888,2.3751,2.395,2.442,2.5363,2.6083,2.662,2.6926,2.7306,2.755,2.6615,2.6237,2.6043,2.5236,2.498,2.4866,2.4324,2.4293,2.4622,2.5252,2.5593,2.5968,2.6702,2.7225,2.7511,2.7511,2.7757,2.7879,2.7418,2.7352,2.7283,2.6793,2.6691,2.6691,2.6691,2.6471,2.6387,2.6657,2.6691,2.6691,2.6691,2.6471,2.6302,2.6302,2.5642,2.5203,2.5203,2.4526,2.39,2.3427,2.3156,2.2801,2.2344,2.231,2.231,2.231,2.231,2.231,2.231,2.231,2.231,2.231,2.249,2.2599,2.2695,2.2815,2.2815,2.2721,2.2832,2.2773,2.259,2.2898,2.3141,2.3346,2.3253,2.3259,2.3323,2.3093,2.2815,2.2563,0.0,0.0,0.0,0.0,0.0,0.0,0.0,0.0,0.0,2.4303,0.0,0.0,0.0,0.0,2.4607,2.4428,2.4266,2.419,2.419,2.419,0.0,0.0,0.0,0.0,2.5421,2.619,2.6209,2.5403,2.4257,2.3876,2.419,2.3876,2.3876,2.4226,2.4586,2.4536,2.4173,2.4245,2.4498,2.4959,2.6096,2.6902,2.7495,2.7907,2.8307,2.8503,2.7586,2.7147,2.6888,2.6062,2.5706,2.5415,2.4298,2.3773,2.3779,2.4628,2.5033,2.5389,2.6133,2.6691,2.7063,2.7063,2.7452,2.7757,2.752,2.7638,2.7637,2.7182,2.7063,2.6996,2.6742,2.6691,2.6691,2.6691,2.6488,2.642,2.6657,2.6691,2.6691,2.6691,2.6268,2.5981,2.5981,2.5304,2.4543,2.3816,2.3528,2.3071,2.2344,2.231,2.231,2.231,2.231,2.231,2.231,2.231,2.2349,2.2453,2.2643,2.284,2.3045,2.3141,2.3141,2.3045,2.3259,2.3117,2.2746,2.3189,2.35,2.3692,2.3566,2.3588,2.3671,2.3437,2.3093,2.2695,0.0,0.0,0.0,0.0,0.0,0.0,0.0,0.0,2.4512,2.4512,0.0,0.0,0.0,0.0,0.0,2.4228,2.419,2.419,2.419,2.419,0.0,0.0,0.0,0.0,2.5458,2.619,2.6227,2.5439,2.4293,2.3894,2.419,2.3876,2.3876,2.4209,2.441,2.4512,2.4528,2.4731,2.4896,2.5182,2.6893,2.7719,2.8102,2.9725,3.0061,2.96,2.8789,2.8222,2.7714,2.6906,2.6376,2.5859,2.4746,2.3423,2.2446,2.3173,2.39,2.4675,0.0,0.0,0.0,2.7722,2.7755,2.801,2.8755,2.8349,2.7772,2.7755,2.7755,2.7571,2.6826,2.6674,2.6674,2.6691,2.6099,2.5879,2.659,2.6691,2.6691,2.6691,2.6691,2.6691,2.6691,2.6048,2.5321,2.4574,2.3833,2.3105,2.2344,2.231,2.231,2.231,2.231,2.231,2.231,2.231,2.2436,2.2695,2.2798,2.3146,2.3692,2.3369,2.3392,2.3692,2.3714,2.3346,2.2772,2.3437,2.3714,2.3753,2.4074,2.3996,2.3714,2.3714,2.33,2.2721,0.0,0.0,0.0,0.0,0.0,2.6836,2.6257,2.533,2.4716,0.0,0.0,0.0,2.4818,2.4623,2.4478,2.4409,2.4284,2.419,2.419,2.419,2.419,2.419,2.5181,2.5897,2.6264,2.6502,2.6502,2.6264,2.5129,2.4439,2.419,2.3876,2.3876,2.4209,2.441,2.4575,2.4731,2.4877,2.5416,2.6203,2.6683,2.7646,2.8772,2.8917,2.9266,2.9623,2.9074,2.8784,2.8558,2.7732,2.7372,2.6964,2.5022,2.3423,2.2446,2.3173,2.39,2.4557,2.4729,0.0,0.0,0.0,0.0,0.0,2.7402,2.7588,2.7672,2.7114,2.6996,2.6945,2.6725,2.6251,2.6082,2.6607,2.6522,2.6471,2.6657,2.6691,2.6691,2.6691,2.6691,2.6691,2.6691,2.6522,2.5862,2.4608,2.432,2.363,2.2378,2.231,2.231,2.231,2.231,2.231,2.231,2.25,2.2634,2.2721,2.3206,2.354,2.3714,2.3855,2.3837,2.3714,2.3976,2.3816,2.3477,2.3896,2.4074,2.4074,2.417,2.4151,2.4074,2.4074,2.3795,2.3414,0.0,0.0,0.0,2.839,2.7671,2.6924,2.6117,2.5357,2.4877,0.0,0.0,0.0,2.47,2.4559,2.4461,2.4375,2.4284,2.419,2.419,2.419,2.419,2.419,2.498,2.5768,2.6594,2.6612,2.6759,2.7108,2.5946,2.5328,2.5199,2.4529,2.4366,2.4705,2.4644,2.4685,2.4818,2.503,2.5491,2.6101,2.6447,2.7198,2.806,2.8051,2.8307,2.8606,2.8253,2.8279,2.8429,2.7952,2.7702,2.7263,2.5444,2.4322,2.3653,2.3613,2.4389,2.5179,2.5012,2.5812,2.659,2.6167,0.0,0.0,2.7199,2.7503,2.7689,2.7249,2.7165,2.7063,2.6759,2.6353,2.6201,2.6623,2.6691,2.6691,2.6691,2.6691,2.6691,2.6691,2.6691,2.6691,2.6691,2.6691,2.6082,2.4625,2.4506,2.3849,2.2395,2.231,2.231,2.231,2.231,2.2332,2.2463,2.2608,2.2848,2.3117,2.3522,2.3774,2.3917,2.4113,2.4094,2.3917,2.4132,2.4094,2.3917,2.4113,2.419,2.419,2.419,2.419,2.419,2.419,2.3996,2.3692,0.0,0.0,2.9315,2.8447,2.7743,2.6964,2.6046,2.5418,2.5022,0.0,2.4974,2.4831,2.4526,2.4478,2.4393,2.4209,2.419,2.419,2.419,2.419,2.419,2.419,2.4907,2.564,2.6447,2.6557,2.6961,2.7658,2.6645,2.6245,2.6447,2.5332,2.499,2.5257,2.4928,2.4775,2.4818,2.5138,2.5274,2.536,2.614,2.6563,2.6792,2.7243,2.7333,2.7172,2.697,2.7303,2.7853,2.7966,2.7698,2.7158,2.6075,2.5664,2.5409,2.4382,2.5108,2.616,2.5726,2.6163,2.6741,2.6656,2.6657,0.0,2.7554,2.7689,2.7654,2.7619,2.7619,2.7451,2.6742,2.6657,2.6674,2.659,2.664,2.6691,2.6691,2.6691,2.6691,2.6691,2.6691,2.6691,2.6691,2.6691,2.6082,2.4625,2.4384,2.3723,2.2417,2.2377,2.2405,2.2405,2.2405,2.2517,2.2746,2.2797,2.3117,2.3692,2.3753,2.3917,2.419,2.419,2.419,2.419,2.419,2.419,2.419,2.419,2.419,2.419,2.419,2.419,2.419,2.419,2.4016,2.3774,0.0,2.8158,2.8703,2.7828,2.772,2.7244,2.5661,2.5329,2.5173,2.5022,2.478,2.4575,2.4512,2.4357,2.4247,2.419,2.419,2.419,2.419,2.419,2.419,2.419,2.4355,2.4795,2.5623,2.6264,2.6686,2.6833,2.6603,2.6203,2.5603,2.4756,2.4371,2.4448,2.4518,2.4639,2.4818,2.4993,2.5152,2.5303,2.5495,2.639,2.7561,2.6645,2.6673,2.7172,2.6971,2.74,2.8163,2.9045,2.8572,2.7585,2.7354,2.6495,2.5567,2.5331,2.5932,2.6523,2.5799,2.6359,2.704,2.6437,2.6495,0.0,2.6877,2.6911,2.6809,2.6443,2.6654,2.6758,2.6243,2.6436,2.6505,2.5913,2.6302,2.6691,2.6691,2.6691,2.6691,2.6691,2.6691,2.6691,2.6691,2.6691,2.6082,2.4625,2.3596,2.2919,2.2625,2.289,2.3014,2.3014,2.3014,2.3063,2.3093,2.3369,2.3566,2.3692,2.3976,2.4151,2.419,2.419,2.419,2.419,2.419,2.419,2.419,2.419,2.419,2.419,2.419,2.419,2.419,2.419,2.417,2.4094,2.7369,2.832,2.8696,2.7841,2.7796,2.7313,2.5572,2.5214,2.5252,2.5571,2.5404,2.5107,2.4676,2.4561,2.4495,2.4495,2.4495,2.4461,2.4357,2.4339,2.4303,2.419,2.419,2.4575,2.5384,2.5786,2.6392,2.72,2.6796,2.6638,2.6725,2.5523,2.5004,2.5091,2.4851,2.4809,2.4917,2.5077,2.5214,2.5303,2.5303,2.5753,2.6385,2.5679,2.5657,2.5966,2.5775,2.628,2.7208,2.8137,2.8203,2.7837,2.7429,2.7303,2.7181,2.6577,2.6967,2.7469,2.6881,2.7166,2.7472,2.6896,2.6871,0.0,0.0,2.6691,2.6624,2.6401,2.6556,2.6506,2.5899,2.5967,2.6031,2.5659,2.5913,2.615,2.615,2.6793,2.7114,2.6742,2.7029,2.7114,2.6725,2.6691,2.6082,2.4625,2.3755,2.3128,2.2712,2.3021,2.3189,2.3189,2.3189,2.3277,2.3437,2.3628,2.3795,2.3937,2.4113,2.419,2.419,2.419,2.419,2.419,2.419,2.419,2.419,2.419,2.419,2.419,2.419,2.419,2.419,2.419,2.419,2.419,2.7695,2.8409,2.8698,2.8217,2.8099,2.7539,2.5953,2.5432,2.5463,2.6136,2.6242,2.6019,2.5367,2.5313,2.5313,2.5291,2.531,2.5167,2.4802,2.4752,2.4668,2.4487,2.4301,2.4575,2.5384,2.5403,2.614,2.7635,2.6825,2.6947,2.7886,2.6282,2.56,2.5755,2.5228,2.501,2.5022,2.5214,2.5274,2.5234,2.5234,2.5152,2.4986,2.4855,2.4775,2.4749,2.4794,2.5311,2.6151,2.7182,2.7769,2.8033,2.753,2.8128,2.88,2.7834,2.8039,2.8504,2.8201,2.7995,2.7779,2.7566,2.7365,2.7113,0.0,0.0,0.0,2.6624,2.6624,2.6472,2.5782,2.5628,2.5526,2.5309,2.526,2.526,2.526,2.6522,2.7264,2.6759,2.7351,2.7588,2.6962,2.664,2.6013,2.4904,2.4315,2.372,2.3142,2.3301,2.3392,2.3392,2.3392,2.3522,2.3795,2.3795,2.3917,2.419,2.419,2.419,2.419,2.419,2.419,2.419,2.419,2.419,2.419,2.419,2.419,2.419,2.419,2.419,2.419,2.419,2.419,2.419,2.7717,2.7967,2.8217,2.8852,2.881,2.8382,2.7395,2.6568,2.6117,2.6276,2.6836,2.7211,2.7116,2.7163,2.7166,2.7109,2.7097,2.6751,2.5884,2.5654,2.5555,2.554,2.4672,2.4575,2.5384,2.5403,2.5927,2.7009,2.6191,2.6317,2.7269,2.5665,2.4907,2.4936,2.4994,2.501,2.5022,2.5214,2.5203,2.5034,2.5034,2.5022,2.4986,2.4855,2.4685,2.4655,2.5524,2.5903,2.6269,2.8042,2.8391,2.822,2.8909,2.9055,2.8975,2.8842,2.9042,2.9228,2.8957,2.826,2.7734,2.8152,2.7531,2.6852,2.7178,0.0,2.7002,2.6245,0.0,2.6556,2.604,0.0,0.0,2.4265,2.41,2.41,2.41,2.5342,2.6414,2.6674,2.7351,2.7755,2.7671,2.6505,2.5802,2.5984,2.4935,2.4364,2.4644,2.4278,2.4094,2.4094,2.4094,2.4094,2.4151,2.4151,2.417,2.419,2.419,2.419,2.419,2.419,2.419,2.419,2.419,2.419,2.419,2.419,2.419,2.419,2.419,2.419,2.419,2.419,2.419,2.419,2.7534,2.8077,2.8492,2.867,2.8605,2.8173,2.6928,2.6911,2.7017,2.7036,2.7757,2.8117,2.7736,2.7756,2.7779,2.7744,2.7787,2.7566,2.7012,2.6899,2.6783,2.6637,2.563,2.5226,2.5579,2.5134,2.5319,2.6209,2.5508,2.5702,2.6655,2.5454,2.4968,2.5091,2.5141,2.5173,2.5163,2.5141,2.5088,2.4998,2.4917,2.4809,2.4708,2.4654,2.4559,2.4566,2.5107,2.5295,2.5437,2.63,2.6725,2.7054,2.7999,2.8462,2.8762,2.9247,2.9494,2.9551,2.9436,2.8763,2.8143,2.8539,2.7901,2.7266,2.7571,2.7648,2.747,2.6872,0.0,0.0,0.0,0.0,0.0,0.0,2.3489,2.3192,2.3192,2.4713,2.6017,2.664,2.7351,2.7638,2.7199,2.6607,2.6243,2.6182,2.5883,2.545,2.4915,2.4892,2.4667,2.4208,2.419,2.419,2.419,2.419,2.419,2.419,2.419,2.419,2.419,2.419,2.419,2.419,2.419,2.419,2.419,2.419,2.419,2.419,2.419,2.419,2.419,2.419,2.419,2.417,2.7433,2.8207,2.8751,2.8544,2.8652,2.8345,2.7128,2.7717,2.8247,2.8061,2.8801,2.9146,2.8667,2.867,2.8711,2.869,2.875,2.8588,2.8144,2.8078,2.7958,2.7752,2.6701,2.6141,2.6105,2.5321,2.5209,2.5858,2.52,2.5373,2.6352,2.5497,2.5163,2.5303,2.5303,2.5303,2.5303,2.5088,2.4986,2.4924,2.4785,2.4591,2.4428,2.4428,2.4428,2.4444,2.4716,2.476,2.4779,2.519,2.563,2.6167,2.7115,2.7865,2.8489,2.8904,2.9219,2.9441,2.9355,2.8716,2.8198,2.8817,2.8268,2.7601,2.7692,2.7662,2.7494,2.7052,2.6899,0.0,0.0,0.0,2.405,2.3719,0.0,2.2539,2.2666,2.3912,2.5192,2.6285,2.7063,2.7215,2.6471,2.6404,2.6377,2.6377,2.6581,2.6409,2.5737,2.55,2.5146,2.4538,2.43,2.419,2.419,2.419,2.419,2.419,2.419,2.419,2.419,2.419,2.419,2.419,2.419,2.419,2.419,2.419,2.419,2.419,2.419,2.419,2.419,2.419,2.419,2.4151,2.7548,2.8207,2.8793,2.8802,2.9257,2.9469,2.889,2.9547,2.9874,2.923,2.9902,3.0445,3.0423,3.0477,3.0487,3.042,3.0485,3.0134,2.9216,2.9028,2.8931,2.886,2.7823,2.7217,2.7151,2.6355,2.6062,2.6282,2.5418,2.5539,2.6572,2.5707,2.5284,2.5303,2.5303,2.5303,2.5303,2.5088,2.493,2.479,2.4591,2.4393,2.4209,2.4209,2.4209,2.4247,2.4654,2.467,2.469,2.5787,2.6077,2.6136,2.6949,2.7756,2.8246,2.7495,2.8029,2.8774,2.8501,2.7848,2.7573,2.9024,2.8593,2.7679,2.7314,2.703,2.67,2.6212,2.588,2.5714,2.5955,2.5318,2.4421,2.3285,2.2511,0.0,0.0,2.2747,2.3484,2.5392,2.6285,2.6437,2.571,2.5642,2.5956,2.6737,2.6737,2.6994,2.7669,2.6227,2.5403,2.5366,2.4612,2.419,2.419,2.419,2.419,2.419,2.419,2.419,2.419,2.419,2.419,2.419,2.419,2.419,2.419,2.419,2.419,2.419,2.419,2.419,2.419,2.419,2.419,2.4151,2.6867,2.8278,2.955,2.9428,2.9596,2.9759,2.976,2.9706,2.9745,2.9974,3.0297,3.0482,3.0449,3.0494,3.0513,3.0503,3.0595,3.0503,3.0154,3.0127,3.0101,3.0032,2.9011,2.8408,2.8396,2.6949,2.6224,2.6308,2.5562,2.5378,2.5726,2.5297,2.5099,2.5099,2.5099,2.5041,2.4962,2.4896,2.5077,2.5381,2.5171,2.4726,2.419,2.419,2.4284,2.4428,2.4543,2.4639,2.4783,2.5247,2.5368,2.5513,2.6492,2.6988,2.7275,2.7561,2.7917,2.8159,2.7932,2.7262,2.6929,2.8222,2.7473,2.6611,2.7423,2.6946,2.6369,2.6476,2.6236,2.6019,2.6007,2.5138,2.4281,2.3895,2.3199,2.2797,0.0,2.3304,2.3524,2.3662,2.4605,2.5338,2.5592,2.5846,2.6415,2.7444,2.771,2.7807,2.7801,2.6778,2.5952,2.5421,2.4612,2.419,2.419,2.419,2.419,2.419,2.419,2.419,2.419,2.419,2.419,2.419,2.419,2.419,2.419,2.419,2.419,2.419,2.419,2.419,2.419,2.419,2.4074,2.3795,2.7431,2.883,2.9994,2.9536,2.9819,3.0161,3.0325,3.0058,2.9978,3.038,3.0449,3.0451,3.039,3.043,3.0472,3.0498,3.0606,3.0651,3.064,3.0676,3.0684,3.0648,2.9923,2.939,2.9081,2.7904,2.7005,2.64,2.5973,2.5591,2.5303,2.5163,2.5077,2.501,2.501,2.493,2.4808,2.5035,2.5171,2.5261,2.5059,2.4707,2.4303,2.4303,2.4393,2.4528,2.4636,2.4752,2.491,2.5053,2.5099,2.5236,2.5917,2.6351,2.6659,2.6909,2.7146,2.7301,2.7166,2.6616,2.6333,2.7419,2.6841,2.6223,2.698,2.6506,2.594,2.6053,2.6045,2.5817,2.5276,2.4991,2.4681,2.411,2.3956,2.3819,0.0,2.3624,2.3431,2.2645,2.3479,2.4171,2.4357,2.5244,2.623,2.7193,2.7967,2.8347,2.8223,2.72,2.6355,2.5841,2.4759,2.419,2.419,2.419,2.419,2.419,2.419,2.419,2.419,2.419,2.419,2.419,2.419,2.419,2.419,2.419,2.419,2.419,2.419,2.419,2.419,2.419,2.3917,2.3437,2.9102,2.9844,3.0213,2.9359,3.0043,3.0687,3.0664,3.0625,3.0581,3.0505,3.0462,3.0402,3.0402,3.0402,3.0449,3.0498,3.0561,3.0619,3.0693,3.0702,3.0716,3.0696,3.0575,3.012,2.9287,2.9157,2.8313,2.6717,2.664,2.6178,2.536,2.5322,2.5173,2.4998,2.5037,2.4974,2.4873,2.5495,2.5316,2.4591,2.4395,2.4414,2.4551,2.453,2.4528,2.4575,2.4898,2.501,2.5034,2.5243,2.5303,2.5303,2.5303,2.587,2.637,2.5534,2.5746,2.6219,2.6225,2.5925,2.5837,2.6637,2.6631,2.6359,2.6007,2.564,2.5271,2.5021,2.5231,2.5142,2.3984,2.499,2.552,2.41,2.4776,2.5135,2.4247,2.3733,2.3219,2.2496,2.305,2.3151,2.2338,2.3994,2.5447,2.6164,2.7597,2.8608,2.8994,2.7475,2.6612,2.6612,2.5034,2.419,2.419,2.419,2.419,2.419,2.419,2.419,2.419,2.419,2.419,2.419,2.419,2.419,2.419,2.419,2.419,2.419,2.419,2.419,2.419,2.417,2.3774,2.3165,2.9102,3.0394,3.1663,3.2118,3.1379,3.0907,3.1534,3.1084,3.0657,3.0581,3.0554,3.0552,3.0552,3.0552,3.0567,3.0568,3.0643,3.0684,3.0693,3.08,3.0795,3.0696,3.0628,3.0443,3.0178,2.9466,2.889,2.8448,2.7217,2.6486,2.6255,2.5458,2.5005,2.4874,2.5471,2.5555,2.5319,2.621,2.6394,2.6051,2.5991,2.5742,2.5333,2.4879,2.478,2.4885,2.4974,2.5099,2.5224,2.5274,2.5303,2.5303,2.5303,2.5437,2.5562,2.5187,2.5206,2.5273,2.5032,2.4893,2.4982,2.5614,2.5118,2.4577,2.5086,2.4264,2.3545,2.4081,2.4081,2.4174,2.4841,2.5279,2.5696,2.6136,2.6298,2.6208,2.5698,2.5034,2.4396,2.3918,2.4327,2.4585,2.4361,2.5243,2.6397,2.7716,2.8446,2.8905,2.8994,2.7475,2.6612,2.6612,2.5034,2.419,2.419,2.419,2.419,2.419,2.419,2.419,2.419,2.419,2.419,2.419,2.419,2.419,2.419,2.419,2.419,2.419,2.419,2.419,2.417,2.3917,2.3714,2.35,3.0315,3.1521,3.2795,3.3701,3.2778,3.2049,3.2502,3.1828,3.1246,3.1182,3.117,3.1014,3.0645,3.1273,3.1596,3.1237,3.1246,3.1274,3.1269,3.0975,3.0767,3.0665,3.0594,3.0502,3.0366,2.979,2.9264,2.8782,2.7504,2.6683,2.6308,2.5355,2.4842,2.4707,2.5501,2.5688,2.5458,2.639,2.6903,2.709,2.6849,2.6377,0.0,2.5546,2.5317,2.5141,2.5141,2.5203,2.5303,2.5303,2.5303,2.5303,2.5303,2.5303,2.5264,2.5046,2.4962,2.485,2.4575,2.4445,2.445,2.4779,2.4403,2.4076,2.4703,2.4093,2.3493,2.3821,2.399,2.4161,2.431,2.5305,2.6486,2.7654,2.7493,2.7108,2.6719,2.6149,2.5439,2.4524,2.5085,2.5393,2.5057,2.5673,2.6362,2.704,2.7949,2.8484,2.8484,2.7291,2.6612,2.6612,2.5034,2.419,2.419,2.419,2.419,2.419,2.419,2.419,2.419,2.419,2.419,2.419,2.419,2.419,2.419,2.419,2.419,2.419,2.419,2.419,2.417,2.3816,2.3692,2.3588,3.2224,3.2994,3.3883,3.4649,3.4215,3.373,3.3656,3.2812,3.2157,3.2109,3.2104,3.1807,3.1042,3.2318,3.2946,3.2243,3.2187,3.2185,3.2163,3.136,3.0849,3.0769,3.0587,3.0395,3.0175,3.006,2.9528,2.8584,2.7754,2.6943,2.6136,2.5337,2.4854,2.4681,2.5502,2.5875,2.5917,2.6677,2.7377,2.7966,2.7344,2.6812,2.6367,2.6453,2.6048,2.5457,2.5457,2.5399,2.5303,2.5303,2.5303,2.5303,2.5264,2.5264,2.5214,2.4998,2.485,2.4716,2.4512,2.4321,2.419,2.419,2.417,2.4237,2.4577,2.4403,2.4091,2.3859,2.4299,2.447,2.346,2.5308,2.7367,2.8503,2.8204,2.7647,2.7175,2.6923,2.6251,2.4824,2.5488,0.0,2.5085,2.581,2.6118,2.5603,2.6943,2.775,2.764,2.6888,2.6447,2.6447,2.4979,2.419,2.419,2.419,2.419,2.419,2.419,2.419,2.419,2.419,2.419,2.419,2.419,2.419,2.419,2.419,2.419,2.419,2.419,2.417,2.4094,2.3816,2.3671,2.3544,3.3981,3.4833,3.5511,3.572,3.5644,3.5547,3.5527,3.4179,3.3143,3.3142,3.3141,3.3082,3.2926,3.318,3.3317,3.3163,3.3144,3.3124,3.3074,3.2254,3.1729,3.1599,3.0895,3.0355,3.0051,3.0009,2.9832,2.947,2.8602,2.7773,2.6962,2.617,2.5668,2.552,2.6321,2.7318,2.8397,2.8913,2.9139,2.9074,2.8462,2.8263,2.8237,2.7611,2.696,2.637,2.637,2.5909,2.5303,2.5303,2.5303,2.5274,2.5099,2.5046,2.4986,2.4678,2.4575,2.4512,2.4303,2.4228,2.419,2.419,2.3996,2.381,2.3873,2.3629,2.3377,2.3329,2.3428,2.378,2.4641,2.5976,2.719,2.8067,2.7725,2.7083,2.6339,2.6506,2.6534,2.6041,2.5982,2.5891,2.5597,2.6749,2.7193,2.6447,2.7273,2.7512,2.6851,2.6043,2.5623,2.5623,2.4685,2.419,2.419,2.419,2.419,2.419,2.419,2.419,2.419,2.419,2.419,2.419,2.419,2.419,2.419,2.419,2.419,2.419,2.419,2.4016,2.3774,2.3714,2.3522,2.3212,3.5813,3.6342,3.6637,3.668,3.6309,3.5996,3.595,3.5244,3.4545,3.4121,3.4062,3.3906,3.3457,3.4219,3.457,3.4101,3.4062,3.404,3.3975,3.2745,3.1938,3.1814,3.0972,3.0334,3.0013,2.9999,2.9908,2.9696,2.8724,2.8104,2.7862,2.6902,2.6495,2.6585,2.7375,2.8353,2.9377,2.9607,2.9643,2.9533,2.9344,2.9102,2.8769,2.8492,2.7911,2.7274,2.7274,2.7005,2.6505,2.5591,2.5303,2.5264,2.5057,2.501,2.4917,2.4588,2.4495,2.4444,2.4247,2.419,2.419,2.419,2.4074,2.3976,2.3976,2.3692,2.3459,2.3459,2.3459,2.3869,2.5207,2.6338,2.7137,2.7438,2.7506,2.7232,2.6409,2.6506,2.6457,2.5908,2.6115,2.5935,2.5023,2.6289,2.6833,2.6043,2.6337,2.6557,2.6612,2.5841,2.5403,2.5403,2.4612,2.419,2.419,2.419,2.419,2.419,2.419,2.3988,2.3584,2.3584,2.3584,2.3584,2.3584,2.3804,2.419,2.419,2.419,2.417,2.4016,2.3837,2.3671,2.3323,2.3069,2.2923,3.7207,3.7421,3.742,3.7069,3.6402,3.5925,3.5873,3.5864,3.5627,3.4992,3.4938,3.4686,3.4002,3.5175,3.5723,3.5039,3.498,3.4959,3.4878,3.3412,3.2415,3.2108,3.1258,3.0656,3.0349,3.0142,3.0041,3.0007,2.895,2.8463,2.8482,2.7638,2.7355,2.7592,2.8436,2.9141,2.9713,2.9815,2.9815,2.978,3.0003,2.9707,2.9148,2.9325,2.8871,2.8159,2.8159,2.8044,2.7678,2.6332,2.5726,2.5494,2.5087,2.4949,2.4885,2.4543,2.4445,2.441,2.4247,2.419,2.4209,2.4247,2.4228,2.4209,2.4247,2.4036,2.3816,2.3816,2.3862,2.43,2.5482,2.623,2.6674,2.6635,2.7001,2.6998,2.6209,2.6245,2.6064,2.5297,2.5735,2.5605,2.4376,2.5386,2.5897,2.5439,2.5403,2.5585,2.608,2.5493,2.5146,2.5146,2.452,2.419,2.419,2.419,2.4116,2.3933,2.3933,2.3529,2.274,2.274,2.285,2.2997,2.2997,2.3456,2.419,2.419,2.419,2.417,2.3816,2.3671,2.3522,2.2923,2.2643,2.2625,3.7441,3.7844,3.7822,3.63,3.5851,3.5729,3.5717,3.5717,3.5684,3.5612,3.5704,3.575,3.5672,3.5875,3.5976,3.5898,3.5879,3.5856,3.5789,3.4895,3.3977,3.3109,3.2234,3.1669,3.1458,3.0621,3.0439,3.0977,3.0023,2.9187,2.8501,2.8409,2.8353,2.8442,2.9414,2.9801,2.9731,3.0142,3.0196,2.9999,3.0254,3.0328,3.0251,3.0263,2.9737,2.8986,2.8986,2.8525,2.7871,2.7717,2.7121,2.629,2.517,2.4832,2.4727,2.4339,2.4228,2.4228,2.4227,2.419,2.4247,2.4428,2.4321,2.4247,2.4426,2.4303,2.4151,2.4151,2.4442,2.4911,2.5587,2.5327,2.5201,2.5736,2.5708,2.5348,2.4538,2.5034,2.5279,2.4667,2.4506,2.445,2.4462,2.4432,2.4685,2.5348,2.5403,2.5127,2.4465,2.4355,2.43,2.43,2.4245,2.419,2.419,2.419,2.3823,2.3125,2.3125,2.2685,2.1913,2.1913,2.2299,2.2997,2.2997,2.3456,2.419,2.419,2.419,2.417,2.3816,2.3522,2.3189,2.2848,2.2537,2.236,3.7311,3.7418,3.7356,3.6674,3.608,3.5689,3.5657,3.5648,3.5621,3.5599,3.5768,3.5913,3.597,3.5976,3.5996,3.5996,3.5996,3.5996,3.5951,3.5133,3.4478,3.4066,3.3208,3.2674,3.2557,3.2182,3.1835,3.151,3.1015,3.0385,2.9645,3.0007,3.0517,3.1131,3.1052,3.0981,3.0887,3.0541,3.0343,3.0254,3.0355,3.0398,3.0398,3.0398,3.0179,2.989,2.989,2.9679,2.9302,2.867,2.7541,2.63,2.5721,2.5111,2.4575,2.4445,2.4375,2.441,2.4528,2.4543,2.4561,2.4512,2.4426,2.4375,2.4339,2.4266,2.419,2.419,2.4409,2.4671,2.4782,2.5092,2.5217,2.4875,2.515,2.5127,2.43,2.4483,2.4577,2.4358,2.4247,2.4228,2.4321,2.4247,2.4318,2.4649,2.5146,2.5518,2.582,2.5242,2.4984,2.5096,2.4505,2.3969,2.3492,2.3492,2.3088,2.2281,2.2281,2.184,2.1015,2.1015,2.1473,2.2336,2.3309,2.3896,2.419,2.419,2.4074,2.3876,2.3522,2.3189,2.2873,2.2581,2.25,2.2563,3.7132,3.706,3.69,3.662,3.6062,3.5621,3.5577,3.5566,3.5562,3.5528,3.5718,3.5857,3.5903,3.5955,3.5996,3.5996,3.5996,3.5996,3.5996,3.543,3.494,3.4636,3.4031,3.3688,3.3637,3.3366,3.3011,3.259,3.2184,3.1672,3.1129,3.1569,3.2158,3.2852,3.2064,3.1698,3.1641,3.0775,3.0398,3.0398,3.0398,3.0398,3.0398,3.0398,3.0398,3.0398,3.0398,3.0398,3.0271,2.9526,2.8235,2.6816,2.6133,2.5431,2.4811,2.4569,2.4495,2.4526,2.4746,2.4804,2.476,2.4623,2.4526,2.4461,2.4321,2.4247,2.4209,2.4266,2.4444,2.4528,2.4339,2.4909,2.5148,2.4339,2.4667,2.4832,2.4281,2.4266,2.4284,2.4284,2.4339,2.4375,2.4375,2.4375,2.4375,2.4375,2.5116,2.5746,2.6171,2.5745,2.5449,2.5349,2.4377,2.3566,2.3015,2.2776,2.2226,2.1418,2.1418,2.0978,2.017,2.0666,2.1216,2.1894,2.3492,2.419,2.419,2.4094,2.3917,2.3671,2.3212,2.2923,2.2669,2.2473,2.2537,2.2721,3.7001,3.6956,3.6638,3.5766,3.5546,3.5507,3.5507,3.5507,3.5522,3.559,3.5663,3.571,3.571,3.5876,3.5996,3.5996,3.5996,3.5996,3.5996,3.5996,3.5605,3.4746,3.4687,3.4687,3.4687,3.3777,3.368,3.4465,3.3533,3.3014,3.2872,3.2891,3.2891,3.2852,3.2064,3.1698,3.1641,3.0775,3.0398,3.0398,3.0398,3.0398,3.0398,3.0398,3.0398,3.0398,3.0398,3.0398,3.0398,3.0379,2.9522,2.8148,2.6298,2.5706,2.5539,2.4737,2.4495,2.4526,2.4746,2.4804,2.4804,2.4804,2.4639,2.4495,2.4495,2.4339,2.4266,2.4444,2.4654,2.4731,2.4526,2.4673,2.4689,2.4284,2.4208,2.4208,2.419,2.4375,2.4495,2.4495,2.467,2.479,2.479,2.479,2.479,2.479,2.5533,2.5568,2.4586,2.5274,2.533,2.4549,2.3546,2.3015,2.2997,2.2208,2.1382,2.0521,2.0521,2.0097,1.9378,2.1031,2.1803,2.1894,2.3492,2.419,2.417,2.3837,2.3692,2.3631,2.2972,2.2695,2.2695,2.2695,2.2695,2.2797,3.6047,3.5994,3.5868,3.5586,3.5515,3.5493,3.5493,3.5493,3.5501,3.5534,3.559,3.5646,3.5696,3.5876,3.5996,3.5996,3.5996,3.5996,3.5996,3.5996,3.5879,3.5605,3.5586,3.5586,3.5586,3.5259,3.4885,3.451,3.4115,3.3865,3.3795,3.3795,3.4103,3.4622,3.316,3.2526,3.2429,3.1006,3.0398,3.0398,3.0398,3.0398,3.0398,3.0398,3.0398,3.0398,3.0398,3.0398,3.0367,3.0196,2.9772,2.9129,2.7968,2.6742,2.5668,2.5558,2.5205,2.4885,2.5103,2.5138,2.5091,2.4861,2.476,2.4623,2.4357,2.4339,2.4461,2.4654,2.476,2.4746,2.4545,2.4543,2.4512,2.4247,2.419,2.4247,2.4393,2.4503,2.4595,2.4685,2.4796,2.4855,2.4803,2.481,2.4796,2.4785,2.5674,2.6056,2.5736,2.5708,2.5645,2.5528,2.3875,2.274,2.2189,2.1345,2.0501,1.9675,1.9675,1.984,2.0152,2.0684,2.1547,2.2648,2.3162,2.3694,2.419,2.4094,2.3917,2.3671,2.3477,2.3093,2.2721,2.2972,2.3045,2.3093,3.5562,3.5534,3.5493,3.5493,3.5493,3.5493,3.5493,3.5493,3.5493,3.5493,3.555,3.5621,3.5663,3.583,3.5973,3.5996,3.5996,3.5996,3.5996,3.5996,3.5996,3.5996,3.5974,3.5951,3.5951,3.5861,3.5527,3.4913,3.4807,3.4723,3.468,3.468,3.4988,3.543,3.368,3.2891,3.2795,3.1121,3.0398,3.0398,3.0398,3.0398,3.0398,3.0299,3.0311,3.0398,3.0299,3.0311,3.0367,3.0209,2.9958,2.9619,2.9207,2.798,2.6628,2.6216,2.5823,2.5442,2.5248,2.5192,2.5107,2.4771,2.4685,2.4623,2.4375,2.4461,2.467,2.4842,2.4883,2.4836,2.4708,2.4636,2.4561,2.4358,2.4321,2.4356,2.4519,2.4674,2.4793,2.4899,2.5012,2.5069,2.5026,2.5034,2.5039,2.5034,2.5585,2.5879,2.5831,2.5812,2.556,2.5001,2.3393,2.2152,2.1327,2.0464,1.9803,1.9289,1.9601,2.0189,2.0996,2.1291,2.2006,2.3033,2.3327,2.3749,2.419,2.4074,2.3896,2.3671,2.3414,2.3069,2.2746,2.3069,2.3189,2.3277,3.5493,3.5493,3.5493,3.5493,3.5493,3.5493,3.5493,3.5493,3.5493,3.5493,3.555,3.56,3.5611,3.5775,3.591,3.5975,3.5996,3.5996,3.5996,3.5996,3.5996,3.5996,3.5921,3.5896,3.5896,3.5761,3.5663,3.559,3.5528,3.5493,3.5493,3.5493,3.5493,3.543,3.3737,3.2987,3.2872,3.1256,3.0533,3.0494,3.0494,3.0436,3.0336,3.0089,3.015,3.0343,3.0089,3.0163,3.0398,3.0398,3.0099,2.9748,2.9939,2.9311,2.8202,2.6795,2.6346,2.6129,2.5239,2.501,2.4924,2.4572,2.4495,2.4512,2.4526,2.4685,2.4855,2.4986,2.5022,2.5022,2.501,2.4891,2.4731,2.4545,2.4495,2.4522,2.4605,2.485,2.5046,2.5124,2.5294,2.5412,2.541,2.542,2.5413,2.5398,2.5311,2.5203,2.4998,2.557,2.5114,2.343,2.2419,2.1492,2.0668,1.9877,1.947,1.9488,2.0244,2.1051,2.1913,2.2611,2.2997,2.3125,2.3823,2.4153,2.417,2.3858,2.3735,2.3671,2.3021,2.2772,2.2772,2.3117,2.3212,2.33,3.5493,3.5493,3.5493,3.5493,3.5493,3.5493,3.5493,3.5493,3.5493,3.5493,3.5515,3.5534,3.56,3.564,3.5706,3.5777,3.5906,3.5996,3.5996,3.5948,3.5916,3.5916,3.5812,3.5755,3.5755,3.5682,3.559,3.5522,3.5501,3.5493,3.5493,3.5493,3.5493,3.5449,3.4372,3.3891,3.3814,3.2756,3.1948,3.1391,3.1391,3.0874,3.0089,3.0013,3.0028,3.0089,3.0013,3.0163,3.0398,3.0398,3.0099,2.9748,2.9939,2.9709,2.9125,2.7637,2.6898,2.6316,2.5294,2.501,2.4924,2.4572,2.4495,2.4575,2.4818,2.4924,2.5018,2.5192,2.5224,2.5173,2.5022,2.4891,2.4731,2.4545,2.4495,2.4551,2.4727,2.4941,2.5157,2.5382,2.5488,2.5525,2.5487,2.5476,2.5459,2.5406,2.5197,2.5005,2.4855,2.4854,2.4655,2.4232,2.3233,2.263,2.241,2.1602,2.1215,2.1215,2.14,2.1914,2.2703,2.2281,2.274,2.3896,2.3474,2.3639,2.419,2.4113,2.4074,2.4036,2.3628,2.3323,2.3117,2.3459,2.3414,2.33,3.557,3.6122,3.6526,3.6122,3.6392,3.6642,3.6642,3.6642,3.6507,3.6103,3.6065,3.5919,3.5596,3.5588,3.5621,3.5646,3.5783,3.5851,3.5851,3.5825,3.5807,3.5807,3.5709,3.5655,3.5655,3.559,3.554,3.5493,3.5493,3.5493,3.5493,3.5493,3.5493,3.5468,3.4584,3.4199,3.4141,3.3276,3.2641,3.2218,3.1852,3.1481,3.1104,3.0738,3.059,3.059,3.0605,3.0508,3.0367,3.0254,2.9988,2.9731,2.9829,2.9712,2.9381,2.8388,2.7668,2.6954,2.5886,2.5254,2.485,2.4575,2.462,2.4771,2.5,2.5118,2.5216,2.5348,2.5391,2.534,2.5207,2.5053,2.4886,2.4747,2.4752,2.4809,2.4918,2.5143,2.5343,2.5475,2.5564,2.5588,2.5541,2.5523,2.5473,2.5447,2.5168,2.4937,2.4804,2.4607,2.4293,2.382,2.329,2.2832,2.2464,2.2006,2.1969,2.2354,2.2354,2.2776,2.3529,2.3088,2.3364,2.4171,2.3749,2.3804,2.419,2.419,2.419,2.4134,2.3436,2.3261,2.3401,2.3214,2.3261,2.3482,3.5988,3.7026,3.7777,3.7026,3.7507,3.8007,3.8007,3.8007,3.7738,3.6988,3.6776,3.6449,3.5757,3.5616,3.5579,3.5579,3.5639,3.5675,3.5703,3.5689,3.5682,3.5682,3.5611,3.5579,3.5579,3.5515,3.5493,3.5493,3.5493,3.5493,3.5493,3.5493,3.5493,3.5468,3.4737,3.4391,3.4353,3.3603,3.3218,3.3045,3.2352,3.222,3.2371,3.1733,3.147,3.142,3.1333,3.1,3.054,3.0174,2.9908,2.9748,2.9748,2.9644,2.942,2.9091,2.8549,2.783,2.6612,2.5568,2.476,2.4604,2.4804,2.5042,2.512,2.5294,2.5428,2.5498,2.5493,2.5473,2.5428,2.5255,2.513,2.5203,2.5166,2.5161,2.5302,2.543,2.5503,2.5516,2.5561,2.5603,2.5588,2.5529,2.5508,2.5493,2.5159,2.493,2.4804,2.4575,2.406,2.3217,2.318,2.285,2.217,2.217,2.2501,2.318,2.318,2.3547,2.419,2.419,2.419,2.419,2.419,2.419,2.419,2.419,2.419,2.4097,2.3091,2.3094,2.362,2.2932,2.3094,2.3753,3.7488,3.7815,3.7969,3.7815,3.7911,3.8007,3.8007,3.8007,3.795,3.7815,3.7161,3.6661,3.6526,3.5905,3.5528,3.5528,3.5534,3.5588,3.5696,3.5638,3.5621,3.5621,3.5558,3.5528,3.5528,3.552,3.5493,3.5493,3.5493,3.5493,3.5493,3.5493,3.5493,3.5474,3.5372,3.5295,3.5295,3.5161,3.468,3.3987,3.3853,3.3177,3.2277,3.2368,3.2262,3.1975,3.1477,3.1383,3.1379,3.0605,3.0169,2.9954,2.9954,2.9939,2.9886,2.9832,2.9392,2.8541,2.6765,2.5568,2.4814,2.4898,2.4992,2.513,2.5313,2.5415,2.5498,2.5508,2.5493,2.5508,2.5498,2.5312,2.5401,2.6072,2.5618,2.5437,2.6176,2.5821,2.5525,2.5579,2.5598,2.5572,2.5526,2.5515,2.5482,2.5427,2.505,2.4814,2.4804,2.4444,2.4173,2.4025,2.4006,2.3951,2.3823,2.3823,2.3896,2.4006,2.4006,2.408,2.419,2.419,2.419,2.419,2.419,2.419,2.419,2.419,2.419,2.4152,2.3689,2.3584,2.3674,2.3566,2.3584,2.3753,3.7663,3.8105,3.8488,3.8661,3.9065,3.9354,3.9354,3.9354,3.9008,3.8123,3.7642,3.7219,3.6757,3.5988,3.568,3.6122,3.5757,3.5534,3.5579,3.5562,3.5546,3.5546,3.5528,3.5493,3.5493,3.5493,3.5493,3.5493,3.5493,3.5493,3.5493,3.5493,3.5493,3.5493,3.5493,3.5493,3.5493,3.5493,3.5276,3.4853,3.4391,3.4025,3.3747,3.3555,3.3303,3.3044,3.2924,3.2365,3.1628,3.1078,3.0486,2.9984,2.9877,2.9845,2.9861,2.9969,2.9277,2.8137,2.6689,2.5697,2.5072,2.5056,2.5149,2.5306,2.5473,2.5535,2.5561,2.5601,2.5605,2.5601,2.5561,2.587,2.6062,2.5931,2.6034,2.6076,2.5983,2.5753,2.5604,2.5605,2.5602,2.5585,2.556,2.5492,2.5395,2.5249,2.4967,2.476,2.4639,2.4357,2.419,2.419,2.419,2.419,2.419,2.419,2.419,2.419,2.419,2.419,2.419,2.419,2.419,2.419,2.419,2.419,2.419,2.419,2.419,2.4153,2.3541,2.3593,2.3921,2.3484,2.3611,2.3996,3.8113,3.8745,3.9277,3.9527,4.0085,4.0489,4.0489,4.0489,4.0027,3.8738,3.8411,3.8046,3.7373,3.6392,3.6045,3.6661,3.5968,3.5493,3.5493,3.5493,3.5493,3.5493,3.5493,3.5493,3.5493,3.5493,3.5493,3.5493,3.5493,3.5493,3.5493,3.5493,3.5493,3.5493,3.5493,3.5493,3.5493,3.5493,3.5493,3.5449,3.4776,3.474,3.5064,3.4649,3.4338,3.4108,3.4169,3.3237,3.1924,3.1522,3.0811,3.0061,2.9912,2.9864,2.9896,3.0047,2.9168,2.7964,2.6948,2.5998,2.5274,2.5196,2.529,2.544,2.5567,2.5607,2.5636,2.5683,2.5703,2.5683,2.5634,2.6177,2.6442,2.5909,2.6275,2.6436,2.5896,2.5742,2.5683,2.5619,2.5602,2.5595,2.5558,2.5414,2.5249,2.5091,2.4866,2.4654,2.4512,2.4321,2.419,2.419,2.419,2.419,2.419,2.419,2.419,2.419,2.419,2.419,2.419,2.419,2.419,2.419,2.419,2.419,2.419,2.419,2.419,2.4135,2.3529,2.3657,2.4135,2.3511,2.3676,2.419,3.9941,4.0335,4.0373,4.0412,4.045,4.0489,4.0489,4.0489,4.045,4.0315,3.9662,3.9181,3.9123,3.7603,3.6642,3.6699,3.5968,3.5493,3.5493,3.5493,3.5493,3.5493,3.5493,3.5493,3.5493,3.5493,3.5493,3.5493,3.5493,3.5493,3.5493,3.5493,3.5493,3.5493,3.5493,3.5493,3.5493,3.5493,3.5493,3.5474,3.543,3.5277,3.5122,3.534,3.5243,3.4928,3.4381,3.3603,3.2699,3.1936,3.1078,3.0367,3.0355,3.0343,3.0355,3.0367,2.9725,2.8832,2.8014,2.6572,2.5313,2.5368,2.5441,2.5503,2.5573,2.5658,2.5683,2.5703,2.5703,2.5703,2.5683,2.5742,2.6013,2.6691,2.6223,2.6013,2.6696,2.6167,2.5683,2.5611,2.5603,2.5554,2.5428,2.5239,2.5081,2.5015,2.4708,2.4528,2.4495,2.4321,2.419,2.419,2.419,2.419,2.419,2.419,2.419,2.419,2.419,2.419,2.419,2.419,2.419,2.419,2.419,2.419,2.419,2.419,2.419,2.419,2.4135,2.4153,2.419,2.4135,2.4153,2.419,3.9296,3.9451,3.9662,4.0373,4.0489,4.0489,4.0489,4.0489,4.0315,3.9815,3.9488,3.9296,3.9296,3.8238,3.7719,3.8277,3.7046,3.6238,3.6238,3.5795,3.5493,3.5493,3.5493,3.5493,3.5493,3.5493,3.5493,3.5493,3.5493,3.5493,3.5493,3.5493,3.5493,3.5493,3.5493,3.5493,3.5493,3.5493,3.5493,3.5493,3.5493,3.5432,3.5369,3.546,3.5432,3.533,3.5095,3.4449,3.3583,3.2737,3.1891,3.1121,3.0571,3.0398,3.0398,3.0398,2.9775,2.8909,2.8121,2.7024,2.5996,2.557,2.5468,2.5535,2.5636,2.5683,2.5703,2.5703,2.5703,2.5703,2.5703,2.6133,2.6425,2.6187,2.6347,2.6405,2.613,2.5824,2.5607,2.5551,2.5493,2.5465,2.5401,2.5188,2.4996,2.4877,2.4636,2.4462,2.4321,2.4247,2.419,2.419,2.419,2.419,2.419,2.419,2.419,2.419,2.419,2.419,2.419,2.419,2.419,2.419,2.419,2.419,2.419,2.419,2.419,2.419,2.419,2.419,2.419,2.419,2.419,2.419,3.9278,3.9336,3.9565,4.0354,4.0489,4.0489,4.0489,4.0489,4.0296,3.9738,3.9681,3.9681,3.9681,3.8911,3.8642,3.9238,3.7719,3.6815,3.7084,3.6353,3.5776,3.5512,3.5493,3.5493,3.5493,3.5493,3.5493,3.5493,3.5493,3.5493,3.5493,3.5493,3.5493,3.5493,3.5493,3.5493,3.5493,3.5493,3.5493,3.5493,3.5493,3.5493,3.5493,3.5493,3.5493,3.5493,3.5493,3.4949,3.4064,3.3179,3.2372,3.1545,3.0679,3.0398,3.0398,3.0398,2.9987,2.9275,2.8179,2.7467,2.6766,2.5732,2.5477,2.5508,2.5607,2.5659,2.5662,2.5662,2.5683,2.5703,2.5703,2.6191,2.6387,2.578,2.617,2.6322,2.5668,2.5564,2.5547,2.5488,2.5428,2.5364,2.528,2.5072,2.4877,2.4716,2.4528,2.4358,2.4209,2.419,2.419,2.419,2.419,2.419,2.419,2.419,2.419,2.419,2.419,2.419,2.419,2.419,2.419,2.419,2.419,2.419,2.419,2.419,2.419,2.419,2.419,2.419,2.419,2.419,2.4113,2.4036,4.0284,4.0489,4.0489,4.0489,4.0489,4.0489,4.0489,4.0489,4.0489,4.0489,4.0489,4.0489,4.0489,3.9777,3.9296,3.9296,3.7719,3.7065,3.7911,3.718,3.6334,3.5532,3.5493,3.5493,3.5493,3.5493,3.5493,3.5493,3.5493,3.5493,3.5493,3.5493,3.5493,3.5493,3.5493,3.5493,3.5493,3.5493,3.5493,3.5493,3.5493,3.5493,3.5493,3.5493,3.5493,3.5493,3.5493,3.4949,3.4083,3.3199,3.2372,3.1564,3.0698,3.0398,3.0398,3.0398,3.0398,3.0044,2.8352,2.789,2.7498,2.5828,2.5394,2.5415,2.5479,2.5554,2.5601,2.5601,2.5659,2.5703,2.5703,2.5703,2.5682,2.5605,2.5601,2.559,2.5517,2.5489,2.5463,2.5401,2.5413,2.5288,2.5034,2.4877,2.4716,2.4512,2.4321,2.419,2.419,2.419,2.419,2.419,2.419,2.419,2.419,2.419,2.419,2.419,2.419,2.419,2.419,2.419,2.419,2.419,2.419,2.419,2.419,2.419,2.419,2.419,2.419,2.419,2.419,2.419,2.3996,2.3692,3.9719,4.0104,4.0489,4.0489,4.0489,4.0489,4.0489,4.0489,4.0489,4.0489,4.0008,3.9873,4.0431,3.9777,3.9296,3.9296,3.8277,3.7219,3.6315,3.6007,3.5757,3.5512,3.5493,3.5493,3.5493,3.5493,3.5493,3.5493,3.5493,3.5493,3.5493,3.5493,3.5493,3.5493,3.5493,3.5493,3.5493,3.5493,3.5493,3.5493,3.5493,3.5493,3.5493,3.5493,3.5493,3.5493,3.5493,3.5334,3.4988,3.4103,3.3641,3.3199,3.1775,3.0891,3.0398,3.0398,3.0398,3.016,2.9044,2.8332,2.7498,2.582,2.5406,2.5427,2.5473,2.5526,2.5535,2.5535,2.5551,2.5558,2.5558,2.5558,2.5554,2.5539,2.5535,2.5517,2.5447,2.5428,2.5406,2.5339,2.5216,2.5094,2.5022,2.4752,2.4559,2.4512,2.4321,2.419,2.419,2.419,2.419,2.419,2.419,2.419,2.419,2.419,2.419,2.419,2.419,2.419,2.419,2.419,2.419,2.419,2.419,2.419,2.419,2.419,2.419,2.419,2.419,2.419,2.419,2.419,2.3996,2.3735,3.9526,3.9923,4.0339,4.0339,4.0441,4.0489,4.0489,4.0489,4.0489,4.0489,3.9796,3.9488,3.9969,3.9277,3.8796,3.8796,3.8296,3.743,3.6065,3.5968,3.5968,3.5968,3.568,3.5493,3.5493,3.5493,3.5493,3.5493,3.5493,3.5493,3.5493,3.5493,3.5493,3.5493,3.5493,3.5493,3.5493,3.5493,3.5493,3.5493,3.5493,3.5493,3.5493,3.5493,3.5493,3.5493,3.5493,3.5493,3.5372,3.4487,3.3757,3.3026,3.2025,3.1102,3.0398,3.0398,3.0398,3.014,2.8948,2.8275,2.7488,2.5781,2.5354,2.5371,2.5401,2.5447,2.5471,2.5471,2.5473,2.5493,2.5493,2.5493,2.5484,2.5451,2.5465,2.5441,2.536,2.5363,2.5311,2.5214,2.5057,2.4962,2.4818,2.462,2.4461,2.4393,2.4266,2.419,2.419,2.419,2.419,2.419,2.419,2.419,2.419,2.419,2.419,2.419,2.419,2.419,2.419,2.419,2.419,2.419,2.419,2.419,2.419,2.419,2.419,2.419,2.419,2.419,2.419,2.419,2.3896,2.3522,3.9645,3.9859,4.0042,4.0101,4.0304,4.0473,4.0489,4.0489,4.0489,4.0489,3.9796,3.9315,3.9392,3.8565,3.8007,3.8007,3.7853,3.745,3.6642,3.6603,3.6603,3.6603,3.5892,3.5493,3.5493,3.5493,3.5493,3.5493,3.5493,3.5493,3.5493,3.5493,3.5493,3.5493,3.5493,3.5493,3.5493,3.5493,3.5493,3.5493,3.5493,3.5493,3.5493,3.5493,3.5493,3.5493,3.5493,3.5493,3.5372,3.4487,3.3122,3.1795,3.1718,3.1102,3.0398,3.0398,3.0398,3.0083,2.8544,2.8005,2.7525,2.5928,2.5418,2.5303,2.5303,2.5337,2.5398,2.5398,2.5441,2.5473,2.5473,2.5473,2.5471,2.5398,2.5391,2.536,2.5303,2.5274,2.5203,2.5022,2.4967,2.4831,2.4526,2.4478,2.4393,2.4209,2.419,2.419,2.4151,2.417,2.419,2.4151,2.417,2.419,2.419,2.419,2.419,2.419,2.419,2.419,2.419,2.419,2.419,2.419,2.419,2.419,2.419,2.419,2.419,2.419,2.419,2.419,2.419,2.419,2.3774,2.3189,3.9622,3.9645,3.9797,4.0042,4.0139,4.0269,4.0473,4.0489,4.0489,4.0489,3.9796,3.9527,4.0162,3.8892,3.8007,3.8007,3.6796,3.5968,3.5776,3.5757,3.5757,3.5757,3.5589,3.5493,3.5493,3.5493,3.5493,3.5493,3.5493,3.5493,3.5493,3.5493,3.5493,3.5493,3.5493,3.5493,3.5493,3.5493,3.5493,3.5493,3.5493,3.5493,3.5493,3.5493,3.5493,3.5493,3.5493,3.5493,3.5372,3.4487,3.3506,3.2526,3.191,3.1102,3.0398,3.0398,3.0398,3.0321,2.9967,2.8909,2.7813,2.7428,2.6313,2.5303,2.5303,2.5313,2.5312,2.5312,2.533,2.5329,2.5329,2.5329,2.5339,2.5312,2.5331,2.5322,2.5293,2.5163,2.5046,2.501,2.4762,2.4591,2.4512,2.4357,2.4247,2.419,2.419,2.4094,2.3816,2.4074,2.4074,2.3816,2.4074,2.419,2.419,2.419,2.419,2.419,2.419,2.419,2.419,2.419,2.419,2.419,2.419,2.419,2.419,2.419,2.419,2.419,2.419,2.419,2.419,2.419,2.3774,2.3165,3.8208,3.8758,3.9349,3.9307,3.9736,4.0195,4.0457,4.0489,4.0489,4.0489,3.9796,3.945,3.9873,3.8392,3.7238,3.6834,3.6007,3.5493,3.5493,3.5493,3.5493,3.5493,3.5493,3.5493,3.5493,3.5493,3.5493,3.5493,3.5493,3.5493,3.5493,3.5493,3.5493,3.5493,3.5493,3.5493,3.5493,3.5493,3.5493,3.5493,3.5493,3.5493,3.5493,3.5493,3.5493,3.5493,3.5493,3.5493,3.543,3.4968,3.3968,3.2833,3.241,3.141,3.0398,3.0398,3.0398,3.0302,2.989,2.914,2.8275,2.7486,2.6601,2.5813,2.538,2.5303,2.5303,2.5303,2.5303,2.5303,2.5303,2.5303,2.5303,2.5303,2.5303,2.5264,2.5163,2.5077,2.4949,2.4776,2.4604,2.4461,2.4357,2.4247,2.419,2.419,2.419,2.4036,2.3714,2.4016,2.4054,2.3714,2.4034,2.419,2.419,2.419,2.419,2.419,2.419,2.419,2.419,2.419,2.419,2.419,2.419,2.419,2.419,2.419,2.419,2.419,2.419,2.4094,2.3958,2.3958,2.3544,2.2947,3.6849,3.7867,3.892,3.8578,3.9299,4.0023,4.0283,4.0353,4.0372,4.0422,3.9845,3.94,3.9315,3.7738,3.6392,3.557,3.5493,3.5565,3.5699,3.5523,3.5489,3.5624,3.546,3.5383,3.5432,3.5432,3.5446,3.5493,3.5493,3.5493,3.5493,3.5493,3.5493,3.5493,3.5493,3.5493,3.5493,3.5493,3.5493,3.5493,3.5493,3.5493,3.5493,3.5493,3.5493,3.5493,3.5493,3.5493,3.5488,3.5334,3.4218,3.2872,3.2737,3.1641,3.0398,3.0398,3.0398,3.0237,2.9525,2.9198,2.8717,2.7198,2.6717,2.637,2.5495,2.5303,2.5303,2.5303,2.5303,2.5303,2.5303,2.5303,2.5303,2.5253,2.5253,2.5173,2.4986,2.4937,2.4804,2.4526,2.4461,2.4375,2.4209,2.419,2.419,2.419,2.419,2.4036,2.3714,2.4016,2.4054,2.3714,2.4034,2.419,2.419,2.419,2.419,2.419,2.419,2.419,2.419,2.419,2.419,2.419,2.419,2.419,2.419,2.419,2.419,2.419,2.4151,2.3937,2.3692,2.3566,2.3165,2.2695,3.7526,3.8107,3.8807,3.8995,3.9111,3.9339,3.9671,3.9735,3.984,4.012,4.0062,3.9811,3.9358,3.7738,3.6392,3.557,3.5493,3.5815,3.6488,3.5672,3.546,3.6167,3.5305,3.4926,3.5138,3.5138,3.5273,3.5493,3.5493,3.5493,3.5493,3.5493,3.5493,3.5493,3.5493,3.5493,3.5493,3.5493,3.5493,3.5493,3.5493,3.5493,3.5493,3.5493,3.5493,3.5493,3.5493,3.5493,3.5391,3.4622,3.3718,3.2776,3.2083,3.1198,3.0398,3.0398,3.0398,3.0359,3.0256,2.9679,2.8871,2.7948,2.7159,2.637,2.5495,2.5303,2.5303,2.5303,2.5303,2.5303,2.5303,2.5303,2.5234,2.5077,2.5034,2.4986,2.4842,2.4666,2.4559,2.4512,2.4358,2.4228,2.419,2.419,2.419,2.419,2.419,2.4036,2.3714,2.4016,2.4054,2.3714,2.4034,2.419,2.419,2.419,2.419,2.419,2.419,2.419,2.419,2.419,2.419,2.419,2.419,2.419,2.419,2.419,2.419,2.417,2.3876,2.3735,2.3628,2.3045,2.2772,2.2686,3.7074,3.7845,3.8645,3.8468,3.8782,3.9212,3.9552,3.9599,3.9731,4.0061,4.0101,3.9908,3.9358,3.818,3.7084,3.6238,3.6427,3.6594,3.6479,3.5874,3.5912,3.6707,3.5434,3.4981,3.5533,3.5097,3.4944,3.5034,3.5354,3.5493,3.5493,3.5493,3.5493,3.5493,3.5493,3.5493,3.5493,3.5493,3.5493,3.5493,3.5493,3.5493,3.5493,3.5493,3.5493,3.5493,3.5493,3.5493,3.5449,3.5064,3.4353,3.3468,3.2641,3.1795,3.1025,3.0533,3.0398,3.0398,3.0398,3.0121,2.9621,2.8775,2.7928,2.7101,2.6217,2.5649,2.5303,2.5303,2.5303,2.5303,2.5303,2.5214,2.5099,2.5022,2.4943,2.4823,2.4654,2.4561,2.4461,2.4358,2.4247,2.419,2.419,2.419,2.419,2.419,2.419,2.4036,2.3714,2.4016,2.3976,2.3455,2.3753,2.3816,2.3631,2.3649,2.3753,2.3917,2.3917,2.4016,2.419,2.419,2.419,2.419,2.419,2.419,2.419,2.419,2.4094,2.3917,2.3774,2.3459,2.3093,2.2643,2.249,2.2463]}]]